     2              OBSERVATION DATA    GPS                 RINEX VERSION / TYPE
teqc 1997Sep10 19970910 19:01:33UTC                         PGM / RUN BY / DATE
                                                            COMMENT
BIT 2 OF LLI FLAGS DATA COLLECTED UNDER A-S CONDITION       COMMENT
BIT 2 OF LLI FLAGS DATA COLLECTED UNDER A-S CONDITION       COMMENT
Original Marker Name: unknown                               COMMENT
Campaign Name: Southern California GPS Survey March - A     COMMENT
4-Character Station Name: ENDD                              COMMENT
6-Character Antenna Code: TI4100                            COMMENT
Vertical Measurement Point: PAE                             COMMENT
Vertical Offset to Rinex Ref. Point: 0.0000                 COMMENT
Radial Measurement Point: RRP                               COMMENT
Radial Offset to Rinex Ref. Point: 0.0000                   COMMENT
Antenna Height from Field Measurement: 1.2649 m             COMMENT
Original XYZ: 0.0000 0.0000 0.0000                          COMMENT
New XYZ position is based on association with SCEC monument COMMENT
E1D1R8K1+0011. Position of that monument is believed to be  COMMENT
valid to within 1 m horizontally; vertical accuracy         COMMENT
should be no worse than 3-times this value.                 COMMENT
                                                            COMMENT
Revised Rinex header created by UCSD GPS archive for        COMMENT
GSAC on 17-Apr-1999 (1999:107) 00:29:49 GMT                 COMMENT
For assistance contact dagnew@ucsd.edu or hjohnson@ucsd.edu COMMENT
                                                            COMMENT
STA END - RIV CO                                            MARKER NAME
unknown NATIONAL GEODETIC SURVEY                            OBSERVER / AGENCY
0066 TI 4100 GSI TI4100                                     REC # / TYPE / VERS
UNKNOWN TI 4100                                             ANT # / TYPE
 -2192419.0000 -4814959.0000  3550555.0000                  APPROX POSITION XYZ
        1.2649        0.0000        0.0000                  ANTENNA: DELTA H/E/N
     1     1     0                                          WAVELENGTH FACT L1/2
     6    L1    L2    P1    P2    D1    D2                  # / TYPES OF OBSERV
     0                                                      INTERVAL
  1988     3    21     3    38   11.000000                  TIME OF FIRST OBS
  1988     3    21     8    35   32.000000                  TIME OF LAST OBS
     0                                                      # OF SATELLITES
                                                            END OF HEADER
 88  3 21  3 38 10.8800000  0  3G 6G 9G11
   4895069.899 9  -7922257.548 8  18403436.177    18403439.008        1720.802
      1330.850
    170955.690 9   -142270.989 9  20972080.815    20972082.088        3088.580
      2405.082
    179607.980 8    -77346.703 8  19533720.969    19533725.604        2937.538
      2278.098
 88  3 21  3 56 32.0800000  0  3G 6G 9G11
   3169297.309 9  -9267015.153 9  18075032.426    18075035.939        1389.237
      1093.241
  -3226857.489 9  -2789915.566 9  20325495.730    20325498.163        3072.312
      2394.215
  -2774878.800 9  -2379543.444 8  18971500.392    18971505.808        2428.630
      1896.248
 88  3 21  3 57  2.0800000  0  3G 6G 9G11
   3127633.322 9  -9299480.583 9  18067104.616    18067106.443        1399.811
      1075.693
  -3318978.471 9  -2861698.104 8  20307965.706    20307967.566        3067.185
      2389.666
  -2847237.483 9  -2435926.823 8  18957731.821    18957736.111        2395.265
      1869.274
 88  3 21  3 57 32.0800000  0  3G 6G 9G11
   3086282.923 9  -9331701.666 9  18059236.127    18059238.315        1378.702
      1066.174
  -3411052.664 8  -2933444.192 9  20290445.240    20290446.598        3072.201
      2379.736
  -2919141.041 9  -2491955.564 8  18944048.599    18944052.420        2397.761
      1868.398
 88  3 21  3 58  2.0800000  0  3G 6G 9G11
   3045248.752 9  -9363676.354 9  18051426.599    18051430.716        1357.036
      1074.680
  -3503077.992 9  -3005152.199 9  20272932.327    20272933.602        3067.823
      2390.822
  -2990587.552 8  -2547628.134 8  18930453.104    18930455.871        2371.047
      1851.664
 88  3 21  3 58 32.0800000  0  3G 6G 9G11
   3004533.054 9  -9395402.860 9  18043679.168    18043681.992        1353.208
      1041.213
  -3595052.622 9  -3076820.702 8  20255429.725    20255432.560        3062.918
      2400.180
  -3061575.178 9  -2602943.166 7  18916943.971    18916948.669        2356.996
      1844.270
 88  3 21  3 59  2.0800000  0  3G 6G 9G11
   2964138.141 9  -9426879.409 8  18035992.025    18035994.698        1360.337
      1043.891
  -3686974.469 9  -3148448.092 9  20237937.509    20237940.829        3061.515
      2388.374
  -3132102.465 8  -2657899.473 8  18903523.568    18903526.729        2345.705
      1839.939
 88  3 21  3 59 32.0800000  0  3G 6G 9G11
   2924066.406 8  -9458104.133 9  18028366.035    18028369.412        1318.249
      1035.154
  -3778841.362 9  -3220032.650 8  20220457.224    20220459.789        3047.233
      2398.260
  -3202167.374 9  -2712495.468 8  18890191.456    18890194.489        2325.171
      1825.753
 88  3 21  4  0  2.0800000  0  3G 6G 9G11
   2884320.187 9  -9489075.193 9  18020803.936    18020806.305        1331.981
      1045.127
  -3870651.697 9  -3291573.144 8  20202985.279    20202987.312        3073.532
      2399.447
  -3271768.386 9  -2766730.012 9  18876946.323    18876949.584        2302.611
      1807.795
 88  3 21  4  0 32.0800000  0  3G 6G 9G11
   2844901.793 8  -9519790.826 9  18013302.853    18013304.948        1319.070
      1027.928
  -3962403.395 9  -3363067.961 9  20185525.228    20185527.720        3054.051
      2394.587
  -3340904.251 9  -2820602.095 9  18863789.491    18863792.857        2296.758
      1785.686
 88  3 21  4  1  2.0800000  0  3G 6G 9G11
   2805813.619 9  -9550249.130 9  18005864.537    18005866.359        1312.906
      1011.219
  -4054094.411 9  -3434515.488 9  20168076.716    20168079.897        3051.228
      2400.925
  -3409573.152 9  -2874110.298 8  18850722.278    18850726.260        2272.620
      1795.113
 88  3 21  4  1 32.0800000  0  3G 6G 9G11
   2767058.001 9  -9580448.308 9  17998488.680    17998491.542        1288.369
      1012.151
  -4145722.443 9  -3505913.921 9  20150640.996    20150643.544        3052.831
      2383.409
  -3477773.187 8  -2927253.165 8  18837744.231    18837749.633        2265.666
      1771.817
 88  3 21  4  2  2.0800000  0  3G 6G 9G11
   2728637.306 9  -9610386.510 8  17991178.088    17991179.765        1268.497
      1008.603
  -4237285.692 9  -3577261.895 9  20133216.956    20133218.931        3053.764
      2384.757
  -3545503.113 9  -2980029.718 8  18824854.991    18824859.295        2248.458
      1757.699
 88  3 21  4  2 32.0800000  0  3G 6G 9G11
   2690553.779 9  -9640061.984 9  17983930.888    17983933.136        1250.172
       988.886
  -4328782.164 9  -3648557.800 9  20115805.910    20115808.515        3041.874
      2376.362
  -3612761.520 9  -3032438.845 8  18812056.790    18812061.064        2224.160
      1724.493
 88  3 21  4  3  2.0800000  0  3G 6G 9G11
   2652809.768 9  -9669472.892 9  17976748.549    17976750.319        1240.802
       996.200
  -4420209.849 9  -3719800.115 9  20098407.314    20098410.147        3039.386
      2376.151
  -3679546.702 9  -3084479.233 7  18799349.677    18799351.584        2211.369
      1721.479
 88  3 21  4  3 32.0800000  0  3G 6G 9G11
   2615407.638 9  -9698617.407 9  17969630.728    17969633.610        1241.081
       963.696
  -4511566.447 7  -3790987.042 9  20081023.308    20081025.971        3044.522
      2376.337
  -3745857.107 9  -3136149.655 8  18786729.736    18786733.441        2210.468
      1720.280
 88  3 21  4  4  2.0800000  0  3G 6G 9G11
   2578349.523 9  -9727493.855 8  17962578.407    17962581.883        1229.670
       955.581
  -4602850.219 8  -3862117.217 9  20063652.046    20063654.894        3049.314
      2379.562
  -3811691.539 9  -3187449.186 7  18774201.586    18774204.920        2181.600
      1726.214
 88  3 21  4  4 32.0800000  0  3G 6G 9G11
   2541638.085 9  -9756100.169 8  17955593.165    17955595.338        1223.569
       945.297
  -4694058.909 8  -3933188.884 8  20046295.321    20046298.425        3025.742
      2357.062
  -3877048.180 8  -3238376.418 8  18761765.351    18761768.813        2166.027
      1688.167
 88  3 21  4  5  2.0800000  0  3G 6G 9G11
   2505275.619 9  -9784434.553 8  17948673.290    17948675.381        1197.708
       940.438
  -4785190.223 8  -4004200.260 9  20028953.424    20028957.542        3038.908
      2355.086
  -3941925.863 8  -3288930.437 7  18749420.058    18749421.705        2159.775
      1693.412
 88  3 21  4  5 32.0800000  0  3G 6G 9G11
   2469264.368 8  -9812495.262 7  17941820.672    17941822.258        1204.184
       928.793
  -4876242.169 9  -4075149.795 9  20011627.375    20011630.351        3039.354
      2365.849
  -4006323.037 9  -3339110.041 6  18737165.156    18737166.791        2138.491
      1673.037
 88  3 21  4  6  2.0800000  0  3G 6G 9G11
   2433606.838 8  -9840280.345 9  17935036.174    17935037.154        1189.184
       926.090
  -4967212.430 9  -4146035.680 9  19994316.705    19994318.476        3051.284
      2360.741
  -4070238.020 9  -3388913.902 8  18725002.289    18725005.599        2119.233
      1660.491
 88  3 21  4  6 32.0800000  0  3G 6G 9G11
   2398305.109 9  -9867788.191 8  17928317.954    17928319.141        1177.581
       916.782
  -5058099.077 9  -4216856.413 9  19977020.336    19977023.856        3029.689
      2359.859
  -4133669.755 9  -3438341.208 7  18712931.953    18712934.590        2117.056
      1648.138
 88  3 21  4  7  2.0800000  0  3G 6G 9G11
   2363361.645 9  -9895016.860 9  17921668.676    17921669.943        1164.280
       912.513
  -5148899.939 9  -4287610.308 9  19959742.717    19959744.193        3021.914
      2368.334
  -4196616.632 9  -3487390.699 8  18700952.512    18700957.107        2093.045
      1641.682
 88  3 21  4  7 32.0800000  0  3G 6G 9G11
   2328781.399 8  -9921962.511 9  17915088.466    17915088.945        1149.647
       893.660
  -5239609.984 9  -4358293.429 9  19942480.414    19942482.929        3038.453
      2348.674
  -4259074.638 8  -3536059.242 9  18689067.059    18689071.699        2061.555
      1615.764
 88  3 21  4  8  2.0800000  0  3G 6G 9G11
   2294564.344 9  -9948625.149 8  17908575.152    17908578.072        1121.601
       882.109
  -5330229.567 9  -4428906.073 8  19925236.074    19925238.751        3017.257
      2357.628
  -4321044.725 9  -3584347.597 8  18677275.045    18677278.625        2059.768
      1601.796
 88  3 21  4  8 32.0800000  0  3G 6G 9G11
   2260712.265 9  -9975003.395 9  17902135.200    17902137.273        1121.545
       864.368
  -5420756.950 9  -4499446.874 8  19908009.633    19908012.421        3027.664
      2345.126
  -4382526.095 9  -3632255.144 8  18665575.434    18665579.533        2028.947
      1599.633
 88  3 21  4  9  2.0800000  0  3G 6G 9G11
   2227227.275 9 -10001095.592 9  17895763.047    17895764.528        1107.343
       868.905
  -5511190.131 9  -4569914.271 9  19890801.074    19890803.264        2997.792
      2345.088
  -4443517.887 8  -3679781.207 7  18653969.294    18653974.182        2033.628
      1590.300
 88  3 21  4  9 32.0800000  0  3G 6G 9G11
   2194111.399 9 -10026900.165 9  17889461.434    17889462.986        1092.008
       851.960
  -5601527.227 9  -4640306.801 8  19873609.311    19873612.731        3008.087
      2346.381
  -4504018.930 9  -3726924.845 8  18642455.600    18642459.283        1995.926
      1575.126
 88  3 21  4 10  2.0800000  0  3G 6G 9G11
   2161366.980 9 -10052415.289 8  17883230.554    17883232.250        1084.201
       844.894
  -5691766.004 9  -4710622.693 8  19856439.079    19856439.836        3020.782
      2345.486
  -4564028.088 9  -3773685.190 8  18631036.428    18631040.873        1990.631
      1543.653
 88  3 21  4 10 32.0800000  0  3G 6G 9G11
   2128996.266 9 -10077639.218 8  17877070.476    17877072.776        1067.096
       816.280
  -5781904.177 9  -4780860.221 8  19839285.755    19839287.858        3008.111
      2338.980
  -4623544.279 9  -3820061.417 8  18619711.187    18619713.799        1978.478
      1538.061
 88  3 21  4 11  2.0800000  0  3G 6G 9G11
   2097001.677 9 -10102570.079 8  17870981.900    17870984.111        1064.888
       835.244
  -5871939.438 9  -4851017.548 9  19822153.670    19822155.170        3014.745
      2333.761
  -4682565.776 8  -3866052.169 8  18608479.859    18608483.672        1956.588
      1520.420
 88  3 21  4 11 32.0800000  0  3G 6G 9G11
   2065385.643 9 -10127205.938 8  17864965.669    17864967.069        1055.900
       805.915
  -5961869.185 9  -4921092.657 8  19805039.924    19805041.141        2996.596
      2334.351
  -4741091.383 9  -3911656.514 8  18597342.676    18597345.927        1940.895
      1524.732
 88  3 21  4 12  2.0800000  0  3G 6G 9G11
   2034150.235 9 -10151545.209 9  17859021.515    17859023.623        1050.932
       796.147
  -6051691.794 9  -4991084.275 9  19787946.769    19787949.128        2998.055
      2326.640
  -4799120.482 8  -3956873.954 8  18586299.984    18586304.034        1910.799
      1501.157
 88  3 21  4 12 32.0800000  0  3G 6G 9G11
   2003297.821 9 -10175586.033 8  17853150.845    17853152.672         995.248
       804.797
  -6141404.490 9  -5060990.239 9  19770874.609    19770877.886        3004.753
      2338.638
  -4856651.290 9  -4001703.150 8  18575351.389    18575354.844        1910.927
      1495.807
 88  3 21  4 13  2.0800000  0  3G 6G 9G11
   1972830.845 9 -10199326.542 9  17847353.446    17847355.341        1020.869
       790.692
  -6231004.949 9  -5130808.754 9  19753824.350    19753826.297        2986.014
      2336.532
  -4913682.881 9  -4046143.322 8  18564498.830    18564502.345        1887.387
      1486.026
 88  3 21  4 13 32.0800000  0  3G 6G 9G11
   1942751.890 9 -10222764.676 9  17841628.847    17841631.037        1009.546
       758.312
  -6320490.433 8  -5200537.673 9  19736795.213    19736798.343        2993.039
      2317.220
  -4970213.978 9  -4090193.526 8  18553741.222    18553745.782        1858.703
      1465.061
 88  3 21  4 14  2.0800000  0  3G 6G 9G11
   1913063.239 9 -10245898.691 9  17835979.513    17835981.203         974.945
       763.854
  -6409858.986 8  -5270175.476 8  19719789.911    19719791.743        2974.794
      2318.145
  -5026243.507 8  -4133852.878 7  18543080.087    18543084.806        1871.254
      1459.991
 88  3 21  4 14 32.0800000  0  3G 6G 9G11
   1883766.875 8 -10268727.018 9  17830403.901    17830406.388         982.002
       755.950
  -6499108.087 9  -5339720.214 8  19702805.783    19702808.216        2973.287
      2306.470
  -5081770.213 9  -4177120.408 8  18532513.416    18532517.657        1855.673
      1429.071
 88  3 21  4 15  2.0800000  0  3G 6G 9G11
   1854865.240 9 -10291247.773 9  17824904.274    17824905.421         947.872
       748.717
  -6588235.476 9  -5409170.094 8  19685844.736    19685847.842        2969.786
      2316.319
  -5136793.242 9  -4219995.476 8  18522043.190    18522047.303        1842.220
      1427.530
 88  3 21  4 15 32.0800000  0  3G 6G 9G11
   1826360.409 9 -10313459.326 9  17819480.683    17819482.007         939.283
       723.639
  -6677238.963 9  -5478523.428 9  19668909.241    19668910.658        2966.062
      2309.415
  -5191311.540 9  -4262477.234 8  18511668.825    18511672.077        1807.818
      1405.825
 88  3 21  4 16  2.0800000  0  3G 6G 9G11
   1798255.063 9 -10335359.587 8  17814132.069    17814134.544         931.620
       722.992
  -6766115.705 9  -5547778.013 9  19651995.927    19651998.329        2965.017
      2300.243
  -5245323.571 9  -4304564.501 7  18501391.299    18501393.921        1783.186
      1371.842
 88  3 21  4 16 32.0800000  0  3G 6G 9G11
   1770550.888 9 -10356947.265 9  17808860.460    17808862.193         912.880
       725.024
  -6854863.732 9  -5616932.298 9  19635107.257    19635109.944        2958.789
      2288.723
  -5298829.122 9  -4346257.117 7  18491210.055    18491211.237        1772.181
      1388.060
 88  3 21  4 17  2.0800000  0  3G 6G 9G11
   1743250.427 9 -10378220.354 9  17803664.898    17803666.957         902.753
       701.617
  -6943480.410 9  -5685984.237 9  19618245.370    19618246.270        2953.917
      2297.528
  -5351827.006 9  -4387554.153 7  18481124.345    18481126.268        1768.154
      1373.538
 88  3 21  4 17 32.0800000  0  3G 6G 9G11
   1716355.679 9 -10399177.301 8  17798547.690    17798549.069         895.034
       688.363
  -7031963.737 9  -5754932.258 9  19601407.068    19601409.242        2948.997
      2296.180
  -5404316.404 9  -4428454.973 8  18471135.113    18471138.873        1747.883
      1364.199
 88  3 21  4 18  2.0800000  0  3G 6G 9G11
   1689869.052 9 -10419816.227 8  17793507.167    17793509.642         865.569
       677.756
  -7120311.072 9  -5823774.324 9  19584595.636    19584597.423        2952.434
      2287.710
  -5456295.942 9  -4468958.473 9  18461243.311    18461247.010        1720.754
      1346.881
 88  3 21  4 18 32.0800000  0  3G 6G 9G11
   1663792.634 9 -10440135.499 9  17788544.144    17788546.334         866.844
       677.887
  -7208520.086 9  -5892508.602 9  19567809.648    19567811.911        2928.136
      2295.738
  -5507765.026 9  -4509064.228 7  18451448.502    18451453.435        1716.632
      1339.450
 88  3 21  4 19  2.0800000  0  3G 6G 9G11
   1638128.679 9 -10460133.377 9  17783660.892    17783663.832         848.910
       662.054
  -7296588.352 9  -5961133.202 9  19551050.510    19551052.316        2934.914
      2301.045
  -5558722.970 9  -4548771.694 8  18441751.977    18441756.559        1696.768
      1318.795
 88  3 21  4 19 32.0800000  0  3G 6G 9G11
   1612879.454 9 -10479808.096 8  17778856.192    17778858.185         846.845
       647.507
  -7384513.159 9  -6029646.032 9  19534319.842    19534320.388        2909.093
      2278.489
  -5609168.576 8  -4588079.929 8  18432153.028    18432157.139        1667.781
      1308.033
 88  3 21  4 20  2.0800000  0  3G 6G 9G11
   1588046.995 8 -10499158.068 9  17774130.820    17774133.286         816.088
       630.034
  -7472292.444 9  -6098045.445 9  19517614.486    19517618.046        2928.439
      2269.181
  -5659101.212 9  -4626988.447 8  18422650.933    18422654.502        1658.945
      1287.558
 88  3 21  4 20 32.0800000  0  3G 6G 9G11
   1563633.763 9 -10518181.363 9  17769484.751    17769487.469         803.074
       627.021
  -7559923.267 9  -6166329.200 9  19500940.058    19500941.974        2928.933
      2278.918
  -5708519.917 9  -4665496.507 7  18413246.828    18413250.167        1645.819
      1291.958
 88  3 21  4 21  2.0800000  0  3G 6G 9G11
   1539641.873 9 -10536876.349 9  17764920.125    17764922.457         803.999
       623.907
  -7647403.414 9  -6234495.527 9  19484292.505    19484294.635        2928.383
      2267.640
  -5757423.886 8  -4703603.460 8  18403942.003    18403944.386        1601.514
      1266.841
 88  3 21  4 21 32.0800000  0  3G 6G 9G11
   1516073.560 9 -10555241.272 8  17760434.708    17760436.814         766.304
       617.097
  -7734730.015 9  -6302542.216 8  19467674.204    19467676.665        2913.918
      2271.523
  -5805812.201 9  -4741308.626 7  18394734.000    18394736.071        1616.482
      1250.530
 88  3 21  4 22  2.0800000  0  3G 6G 9G11
   1492930.944 9 -10573274.489 9  17756031.263    17756034.181         770.139
       595.063
  -7821900.819 9  -6370467.507 8  19451087.097    19451089.741        2895.513
      2245.326
  -5853684.200 9  -4778611.463 8  18385623.516    18385626.200        1579.879
      1238.370
 88  3 21  4 22 32.0800000  0  3G 6G 9G11
   1470215.879 9 -10590974.543 9  17751707.611    17751710.641         767.189
       572.227
  -7908913.713 9  -6438269.739 9  19434528.065    19434530.568        2907.929
      2262.377
  -5901039.423 9  -4815511.606 8  18376612.215    18376615.677        1552.783
      1223.289
 88  3 21  4 23  2.0800000  0  3G 6G 9G11
   1447930.678 9 -10608339.630 9  17747468.235    17747469.764         731.488
       560.340
  -7995765.927 9  -6505946.781 8  19418000.826    19418003.215        2898.966
      2257.493
  -5947876.802 8  -4852008.248 8  18367699.765    18367702.094        1559.601
      1216.653
 88  3 21  4 23 32.0800000  0  3G 6G 9G11
   1426077.648 9 -10625367.973 8  17743308.986    17743309.963         739.606
       563.553
  -8082454.908 9  -6573496.628 9  19401504.095    19401506.615        2898.017
      2265.521
  -5994195.882 9  -4888101.017 7  18358884.133    18358889.096        1530.598
      1207.096
 88  3 21  4 24  2.0800000  0  3G 6G 9G11
   1404658.525 9 -10642058.186 9  17739232.787    17739235.012         700.938
       550.883
  -8168978.012 9  -6640917.211 9  19385040.568    19385041.885        2885.569
      2247.638
  -6039996.327 8  -4923789.649 8  18350168.524    18350173.174        1528.580
      1163.140
 88  3 21  4 24 32.0800000  0  3G 6G 9G11
   1383675.709 9 -10658408.429 8  17735241.431    17735242.203         698.410
       536.032
  -8255333.007 9  -6708206.791 9  19368607.490    19368609.408        2872.108
      2243.549
  -6085277.297 9  -4959073.496 7  18341551.670    18341554.945        1501.603
      1184.559
 88  3 21  4 25  2.0800000  0  3G 6G 9G11
   1363131.356 9 -10674417.019 9  17731331.736    17731332.544         675.348
       519.131
  -8341517.131 9  -6775363.233 8  19352206.353    19352209.130        2881.932
      2253.603
  -6130038.001 9  -4993951.933 8  18333034.465    18333037.399        1484.873
      1166.657
 88  3 21  4 25 32.0800000  0  3G 6G 9G11
   1343027.185 9 -10690082.602 9  17727505.400    17727506.827         679.112
       514.526
  -8427528.076 9  -6842384.719 8  19335839.873    19335841.747        2868.033
      2233.539
  -6174278.121 8  -5028424.738 8  18324615.327    18324619.244        1465.830
      1142.678
 88  3 21  4 26  2.0800000  0  3G 6G 9G11
   1323365.485 9 -10705403.418 8  17723763.406    17723765.086         657.430
       504.050
  -8513363.026 9  -6909269.082 9  19319506.304    19319509.251        2857.555
      2225.709
  -6217996.579 9  -5062491.044 7  18316296.469    18316299.731        1446.006
      1141.280
 88  3 21  4 26 32.0800000  0  4G 6G 9G11G13
   1304148.344 9 -10720377.831 8  17720107.097    17720108.204         644.775
       496.506
  -8599019.372 8  -6976014.269 9  19303206.490    19303207.834        2861.048
      2218.016
  -6261193.044 9  -5096150.592 8  18308076.141    18308078.906        1438.574
      1117.574
 -17392871.673 9                                  22049120.000 1      3666.003

 88  3 21  4 27  2.0800000  0  4G 6G 9G11G13
   1285377.483 9 -10735004.469 8  17716535.360    17716536.065         619.544
       483.557
  -8684495.025 9  -7042618.664 9  19286940.687    19286942.375        2843.966
      2206.322
  -6303867.526 9  -5129403.422 8  18299955.389    18299958.861        1410.345
      1090.507
 -17503694.725 8  22045983.792 9  21395407.522    21395413.835        3684.121
      2880.642
 88  3 21  4 27 32.0800000  0  4G 6G 9G11G13
   1267055.055 9 -10749281.696 8  17713048.262    17713049.536         599.408
       479.872
  -8769787.154 9  -7109080.047 8  19270709.635    19270711.295        2843.041
      2206.167
  -6346019.147 9  -5162248.820 8  18291934.908    18291938.004        1391.637
      1093.589
 -17614313.488 9  21959787.393 8  21374359.156    21374363.905        3686.920
      2865.965
 88  3 21  4 28  2.0800000  0  4G 6G 9G11G13
   1249183.167 9 -10763207.842 8  17709646.958    17709648.861         579.895
       452.016
  -8854893.096 9  -7175396.345 8  19254514.675    19254516.558        2816.758
      2195.448
  -6387647.731 9  -5194686.656 8  18284012.706    18284016.268        1374.572
      1085.635
 -17724723.245 9  21873753.845 9  21353349.443    21353353.879        3674.472
      2860.777
 88  3 21  4 28 32.0800000  0  4G 6G 9G11G13
   1231764.032 9 -10776781.205 9  17706332.889    17706334.143         563.484
       456.713
  -8939810.089 8  -7241565.411 8  19238355.895    19238357.204        2833.081
      2206.726
  -6428752.704 9  -5226716.484 9  18276191.055    18276193.786        1364.939
      1042.083
 -17834921.695 9  21787884.928 8  21332379.458    21332383.793        3663.499
      2850.977
 88  3 21  4 29  2.0800000  0  4G 6G 9G11G13
   1214799.727 9 -10790000.157 8  17703103.798    17703106.140         559.784
       420.959
  -9024535.721 9  -7307585.362 8  19222232.076    19222234.463        2830.761
      2188.861
  -6469333.691 9  -5258338.007 8  18268468.792    18268472.054        1346.103
      1036.465
 -17944906.205 9  21702182.738 8  21311449.337    21311453.659        3660.549
      2856.073
 88  3 21  4 29 32.0800000  0  4G 6G 9G11G13
   1198292.098 9 -10802863.234 8  17699963.293    17699963.926         554.449
       435.207
  -9109066.995 9  -7373453.873 8  19206147.308    19206149.089        2807.835
      2187.898
  -6509389.863 9  -5289550.592 8  18260845.944    18260849.296        1316.183
      1036.422
 -18054674.680 9  21616648.893 8  21290562.235    21290564.567        3665.652
      2852.096
 88  3 21  4 30  2.0800000  0  4G 6G 9G11G13
   1182243.126 9 -10815368.939 8  17696909.693    17696910.518         532.703
       411.011
  -9193401.618 9  -7439169.151 9  19190099.452    19190100.713        2809.900
      2197.747
  -6548920.886 9  -5320353.958 9  18253324.160    18253327.113        1311.112
      1015.457
 -18164224.533 9  21531285.386 8  21269714.909    21269719.058        3662.462
      2849.766
 88  3 21  4 30 32.0800000  0  4G 6G 9G11G13
   1166654.764 9 -10827515.711 7  17693942.546    17693943.928         511.092
       401.373
  -9277536.920 9  -7504729.121 8  19174088.485    19174090.726        2813.425
      2192.409
  -6587926.655 9  -5350748.054 8  18245901.424    18245904.558        1299.310
      1011.076
 -18273553.996 9  21446093.610 7  21248910.603    21248913.205        3646.641
      2826.066
 88  3 21  4 31  2.0800000  0  4G 6G 9G11G13
   1151529.004 9 -10839302.019 7  17691063.758    17691065.595         506.292
       387.461
  -9361470.159 8  -7570131.627 8  19158115.175    19158117.778        2807.109
      2177.360
  -6626406.662 9  -5380732.452 8  18238578.717    18238581.292        1280.275
      1012.897
 -18382660.125 9  21361075.861 8  21228148.311    21228152.530        3644.201
      2834.150
 88  3 21  4 31 32.0800000  0  4G 6G 9G11G13
   1136867.833 9 -10850726.314 7  17688273.207    17688274.555         485.678
       382.782
  -9445198.713 9  -7635374.641 9  19142183.216    19142185.740        2788.401
      2165.417
  -6664360.884 9  -5410307.149 8  18231356.681    18231358.640        1249.709
      1000.749
 -18491541.382 9  21276233.332 8  21207427.541    21207432.149        3639.098
      2842.937
 88  3 21  4 32  2.0800000  0  4G 6G 9G11G13
   1122673.284 9 -10861787.016 8  17685573.038    17685574.020         466.986
       361.748
  -9528719.574 9  -7700455.811 8  19126289.600    19126292.054        2795.833
      2179.087
  -6701788.542 9  -5439471.547 8  18224233.581    18224236.753        1237.692
       982.263
 -18600195.099 8  21191568.111 8  21186751.668    21186755.875        3618.205
      2820.959
 88  3 21  4 32 32.0800000  0  4G 6G 9G11G13
   1108947.213 9 -10872482.661 8  17682960.864    17682962.763         461.436
       356.267
  -9612030.533 9  -7765373.429 8  19110436.116    19110438.840        2791.280
      2162.739
  -6738689.585 9  -5468225.563 8  18217212.410    18217214.648        1216.368
       954.835
 -18708619.263 9  21107081.815 9  21166119.135    21166124.671        3615.565
      2803.796
 88  3 21  4 33  2.0800000  0  4G 6G 9G11G13
   1095691.571 9 -10882811.731 8  17680438.387    17680439.616         428.837
       343.156
  -9695128.736 9  -7830125.277 9  19094624.175    19094625.208        2754.829
      2161.409
  -6775064.018 9  -5496569.258 8  18210290.324    18210291.519        1203.992
       943.594
 -18816811.312 9  21022776.348 8  21145531.333    21145535.868        3615.773
      2817.181
 88  3 21  4 33 32.0800000  0  4G 6G 9G11G13
   1082908.190 9 -10892772.806 8  17678005.244    17678005.680         419.666
       352.377
  -9778011.432 9  -7894709.193 8  19078851.323    19078853.067        2769.749
      2150.150
  -6810911.352 9  -5524502.238 8  18203468.094    18203470.867        1184.559
       927.513
 -18924769.368 8  20938653.217 9  21124987.598    21124991.720        3600.916
      2813.222
 88  3 21  4 34  2.0800000  0  4G 6G 9G11G13
   1070598.926 9 -10902364.434 8  17675663.232    17675664.560         410.352
       309.123
  -9860676.026 9  -7959123.151 8  19063121.181    19063122.889        2748.218
      2133.347
  -6846231.460 9  -5552024.385 7  18196746.548    18196749.601        1170.811
       920.255
 -19032490.888 9  20854714.401 9  21104487.564    21104493.056        3583.006
      2772.087
 88  3 21  4 34 32.0800000  0  4G 6G 9G11G13
   1058765.596 8 -10911585.204 8  17673411.097    17673413.557         388.335
       304.625
  -9943119.765 9  -8023365.019 7  19047432.539    19047433.691        2743.825
      2130.185
  -6881024.104 9  -5579135.517 8  18190127.160    18190128.732        1162.629
       895.052
 -19139973.279 9  20770961.929 7  21084037.557    21084038.502        3575.414
      2783.291
 88  3 21  4 35  2.0800000  0  4G 6G 9G11G13
   1047410.236 8 -10920433.536 8  17671250.393    17671253.114         377.929
       285.610
 -10025339.933 9  -8087432.673 8  19031785.839    19031787.322        2726.018
      2137.076
  -6915289.344 9  -5605835.697 8  18183605.402    18183607.861        1141.130
       877.517
 -19247215.217 8  20687396.804 7  21063627.136    21063632.043        3564.585
      2768.931
 88  3 21  4 35 32.0800000  0  4G 6G 9G11G13
   1036534.706 9 -10928907.975 8  17669181.719    17669182.509         362.427
       266.093
 -10107333.688 9  -8151323.900 8  19016182.779    19016184.723        2755.347
      2136.554
  -6949026.623 9  -5632124.454 7  18177186.298    18177187.763        1123.045
       868.215
 -19354213.793 9  20604021.296 8  21043268.062    21043270.177        3558.325
      2765.892
 88  3 21  4 36  2.0800000  0  4G 6G 9G11G13
   1026141.038 9 -10937006.945 8  17667202.965    17667205.639         322.172
       260.550
 -10189098.427 9  -8215036.686 8  19000623.843    19000626.282        2734.638
      2124.804
  -6982235.641 9  -5658001.601 8  18170866.087    18170869.716        1115.844
       859.236
 -19460967.231 9  20520836.811 7  21022953.502    21022957.552        3562.328
      2771.025
 88  3 21  4 36 32.0800000  0  4G 6G 9G11G13
   1016230.960 8 -10944729.080 7  17665317.742    17665319.873         323.767
       252.957
 -10270630.893 9  -8278568.473 9  18985108.377    18985111.248        2702.629
      2116.875
  -7014916.423 9  -5683467.138 8  18164646.512    18164650.758        1087.208
       839.004
 -19567472.666 9  20437845.571 7  21002685.607    21002689.267        3545.694
      2749.836
 88  3 21  4 37  2.0800000  0  4G 6G 9G11G13
   1006806.180 9 -10952073.077 8  17663523.778    17663526.370         304.892
       231.289
 -10351928.908 9  -8341917.556 9  18969638.450    18969640.675        2710.548
      2116.862
  -7047068.996 9  -5708521.070 8  18158528.647    18158532.720        1064.888
       822.904
 -19673728.654 9  20355048.717 9  20982466.810    20982469.130        3538.334
      2767.408
 88  3 21  4 37 32.0800000  0  4G 6G 9G11G13
    997868.597 9 -10959037.434 9  17661823.521    17661825.864         305.545
       235.900
 -10432989.566 9  -8405081.707 9  18954212.852    18954215.370        2692.637
      2091.237
  -7078693.307 9  -5733163.378 8  18152510.768    18152514.129        1046.507
       802.902
 -19779732.556 9  20272448.300 8  20962294.328    20962296.978        3532.935
      2768.744
 88  3 21  4 38  2.0800000  0  4G 6G 9G11G13
    989420.206 8 -10965620.608 7  17660214.564    17660217.277         271.009
       217.346
 -10513809.693 9  -8468058.420 8  18938833.855    18938835.338        2694.503
      2105.721
  -7109789.155 9  -5757393.881 7  18146594.350    18146596.468        1024.426
       796.961
 -19885482.417 9  20190045.837 8  20942169.979    20942172.999        3518.828
      2745.355
 88  3 21  4 38 32.0800000  0  4G 6G 9G11G13
    981462.662 9 -10971821.293 8  17658700.774    17658702.956         247.612
       198.729
 -10594386.663 9  -8530845.658 8  18923500.117    18923502.641        2681.768
      2085.545
  -7140356.465 8  -5781212.564 8  18140777.820    18140780.720        1018.923
       787.137
 -19990975.544 9  20107843.439 9  20922095.202    20922099.651        3521.755
      2740.055
 88  3 21  4 39  2.0800000  0  4G 6G 9G11G13
    973997.957 9 -10977637.951 8  17657280.962    17657283.676         229.414
       196.648
 -10674717.463 9  -8593441.070 8  18908213.894    18908215.321        2689.280
      2081.773
  -7170395.159 8  -5804619.323 7  18135060.384    18135062.427         995.255
       791.953
 -20096209.501 9  20025842.981 9  20902070.133    20902074.880        3508.741
      2715.045
 88  3 21  4 39 32.0800000  0  4G 6G 9G11G13
    967027.559 9 -10983069.456 7  17655955.077    17655956.530         228.720
       161.589
 -10754799.784 9  -8655842.870 9  18892974.633    18892975.862        2671.194
      2072.434
  -7199905.838 9  -5827614.646 8  18129445.288    18129448.635         972.521
       770.627
 -20201182.799 9  19944045.621 8  20882095.142    20882098.475        3499.323
      2711.385
 88  3 21  4 40  2.0800000  0  4G 6G 9G11G13
    960553.053 9 -10988114.526 8  17654723.304    17654724.370         205.148
       155.270
 -10834630.459 9  -8718048.567 8  18877783.924    18877784.681        2655.684
      2067.643
  -7228888.115 9  -5850198.205 8  18123928.744    18123932.971         961.165
       742.398
 -20305893.318 9  19862453.019 9  20862168.842    20862172.233        3485.830
      2717.978
 88  3 21  4 40 32.0800000  0  4G 6G 9G11G13
    954575.887 9 -10992772.049 8  17653585.587    17653586.420         193.338
       154.468
 -10914207.598 9  -8780056.727 9  18862640.199    18862641.982        2639.568
      2068.830
  -7257342.248 8  -5872370.240 9  18118514.351    18118518.299         929.882
       713.535
 -20410339.640 9  19781066.300 8  20842292.934    20842297.299        3475.488
      2712.777
 88  3 21  4 41  2.0800000  0  4G 6G 9G11G13
    949097.988 9 -10997040.538 8  17652543.239    17652544.684         175.372
       136.175
 -10993527.987 9  -8841864.812 9  18847545.436    18847547.882        2635.174
      2049.859
  -7285268.703 8  -5894131.107 8  18113199.794    18113202.649         919.356
       723.017
 -20514518.646 8  19699887.880 9  20822468.343    20822472.351        3465.584
      2708.483
 88  3 21  4 41 32.0800000  0  4G 6G 9G11G13
    944121.035 9 -11000918.688 8  17651594.945    17651597.402         173.171
       125.556
 -11072588.440 9  -8903470.340 8  18832500.751    18832502.796        2638.978
      2057.949
  -7312667.629 8  -5915480.897 7  18107985.755    18107990.505         897.641
       698.125
 -20618428.209 9  19618919.430 9  20802694.036    20802698.314        3462.753
      2698.907
 88  3 21  4 42  2.0800000  0  4G 6G 9G11G13
    939646.428 8 -11004405.410 8  17650743.568    17650746.042         141.967
       120.001
 -11151386.696 9  -8964871.583 9  18817506.728    18817508.944        2609.002
      2060.715
  -7339538.981 8  -5936419.599 7  18102872.384    18102876.801         879.125
       675.606
 -20722067.051 8  19538161.919 9  20782972.298    20782976.904        3458.718
      2684.094
 88  3 21  4 42 32.0800000  0  4G 6G 9G11G13
    935676.090 9 -11007499.182 8  17649989.017    17649990.161         110.006
        87.857
 -11229919.930 9  -9026066.295 8  18802561.878    18802563.650        2631.171
      2033.417
  -7365882.693 9  -5956947.148 8  18097859.841    18097862.840         866.844
       681.292
 -20825432.571 8  19457617.425 8  20763303.106    20763306.397        3437.570
      2679.458
 88  3 21  4 43  2.0800000  0  4G 6G 9G11G13
    932211.799 8 -11010198.629 8  17649329.488    17649331.464         108.770
        95.959
 -11308184.388 9  -9087051.579 9  18787667.869    18787670.909        2602.981
      2028.912
  -7391698.875 9  -5977063.609 8  18092947.222    18092950.891         841.941
       660.488
 -20928522.300 8  19377287.787 8  20743686.204    20743690.569        3427.793
      2682.074
 88  3 21  4 43 32.0800000  0  4G 6G 9G11G13
    929255.054 9 -11012502.606 9  17648766.864    17648768.787          89.424
        70.912
 -11386178.251 9  -9147826.002 9  18772827.381    18772828.782        2594.808
      2014.962
  -7416987.911 9  -5996769.359 8  18088134.828    18088138.020         854.325
       651.304
 -21031335.225 8  19297173.866 8  20724121.012    20724125.349        3424.603
      2681.950
 88  3 21  4 44  2.0800000  0  4G 6G 9G11G13
    926807.179 9 -11014410.049 8  17648300.976    17648303.061          72.670
        55.085
 -11463898.335 9  -9208387.097 9  18758037.755    18758038.420        2589.872
      2016.398
  -7441750.322 9  -6016064.726 8  18083422.464    18083427.215         808.042
       614.817
 -21133869.082 9  19217277.368 8  20704609.053    20704613.228        3431.094
      2650.129
 88  3 21  4 44 32.0800000  0  4G 6G 9G11G13
    924869.891 9 -11015919.632 7  17647932.835    17647934.783          60.454
        40.694
 -11541341.799 9  -9268732.637 8  18743300.222    18743301.908        2583.077
      2000.907
  -7465986.221 9  -6034949.815 7  18078811.771    18078813.662         803.074
       622.385
 -21236120.898 8  19137600.681 9  20685152.041    20685156.032        3404.476
      2646.513
 88  3 21  4 45  2.0800000  0  4G 6G 9G11G13
    923444.595 8 -11017030.261 8  17647661.739    17647663.282          39.513
        38.227
 -11618505.751 9  -9328860.392 9  18728616.451    18728618.091        2563.357
      2002.535
  -7489695.957 9  -6053424.913 8  18074299.734    18074301.341         783.696
       618.700
 -21338089.392 9  19058144.726 8  20665747.405    20665751.296        3381.103
      2632.165
 88  3 21  4 45 32.0800000  0  4G 6G 9G11G13
    922533.110 8 -11017740.529 8  17647487.077    17647490.372          21.953
        20.213
 -11695387.707 9  -9388768.396 9  18713987.324    18713987.788        2570.055
      1997.924
  -7512879.487 9  -6071489.987 8  18069887.639    18069890.710         756.719
       581.517
 -21439772.121 9  18978911.435 8  20646398.685    20646401.603        3392.092
      2633.377
 88  3 21  4 46  2.0800000  0  4G 6G 9G11G13
    922136.748 8 -11018049.386 8  17647411.672    17647414.980           1.794
         3.809
 -11771984.257 9  -9448454.013 9  18699410.849    18699411.824        2547.488
      1992.295
  -7535537.317 8  -6089145.424 8  18065576.360    18065579.113         739.550
       568.449
 -21541167.137 9  18899902.351 8  20627104.058    20627107.207        3360.434
      2627.468
 88  3 21  4 46 32.0800000  0  4G 6G 9G11G13
    922256.769 9 -11017955.894 7  17647434.800    17647437.731          -8.836
         1.796
 -11848293.137 9  -9507915.463 9  18684890.051    18684891.152        2545.175
      1977.723
  -7557670.247 8  -6106391.846 8  18061364.576    18061366.324         732.429
       554.723
 -21642273.168 9  18821118.458 8  20607864.551    20607867.227        3361.582
      2622.733
 88  3 21  4 47  2.0800000  0  4G 6G 9G11G13
    922894.839 9 -11017458.687 8  17647556.443    17647558.935         -12.568
       -39.750
 -11924311.538 9  -9567150.578 9  18670423.840    18670425.449        2546.124
      1978.724
  -7579278.491 8  -6123229.427 6  18057251.120    18057255.613         701.153
       545.197
 -21743087.364 9  18742561.944 8  20588679.964    20588683.042        3349.445
      2616.600
 88  3 21  4 47 32.0800000  0  4G 6G 9G11G13
    924052.424 9 -11016556.687 8  17647776.361    17647778.871         -48.723
       -22.370
 -12000036.387 9  -9626156.950 8  18656014.004    18656016.265        2531.635
      1969.906
  -7600362.319 9  -6139658.363 8  18053239.744    18053243.797         704.790
       573.706
 -21843608.243 9  18664234.003 8  20569551.553    20569555.129        3348.951
      2591.676
 88  3 21  4 48  2.0800000  0  4G 6G 9G11G13
    925730.929 8 -11015248.774 8  17648096.139    17648098.560         -55.310
       -50.947
 -12075464.977 9  -9684932.470 8  18641659.485    18641661.580        2515.862
      1955.360
  -7620922.002 9  -6155678.886 8  18049328.292    18049331.085         684.439
       531.602
 -21943833.844 9  18586136.144 7  20550479.206    20550482.256        3328.114
      2599.934
 88  3 21  4 48 32.0800000  0  4G 6G 9G11G13
    927931.799 9 -11013533.830 8  17648515.133    17648517.380         -99.871
       -67.090
 -12150593.907 9  -9743474.484 9  18627363.658    18627364.616        2510.742
      1958.324
  -7640958.337 9  -6171291.606 7  18045514.443    18045518.083         657.071
       505.243
 -22043762.132 9  18508269.960 8  20531462.421    20531466.299        3332.244
      2599.947
 88  3 21  4 49  2.0800000  0  4G 6G 9G11G13
    930656.316 8 -11011410.830 8  17649033.743    17649036.382        -102.494
       -66.015
 -12225421.286 9  -9801781.526 8  18613123.478    18613125.202        2486.452
      1931.965
  -7660471.786 8  -6186496.887 8  18041801.204    18041805.247         663.395
       496.071
 -22143391.288 9  18430636.866 8  20512504.612    20512507.472        3328.297
      2584.679
 88  3 21  4 49 32.0800000  0  4G 6G 9G11G13
    933905.804 9 -11008878.771 8  17649652.378    17649653.836        -116.792
      -104.236
 -12299943.298 8  -9859850.627 8  18598942.202    18598945.007        2475.392
      1932.487
  -7679462.507 9  -6201294.829 8  18038187.237    18038191.827         616.785
       483.886
 -22242718.631 9  18353238.962 8  20493603.007    20493607.512        3309.206
      2571.655
 88  3 21  4 50  2.0800000  0  4G 6G 9G11G13
    937682.002 9 -11005936.294 7  17650370.337    17650373.007        -131.266
       -95.692
 -12374157.675 9  -9917679.984 9  18584820.545    18584822.404        2467.362
      1913.653
  -7697930.960 9  -6215685.816 7  18034673.569    18034676.470         609.265
       492.983
 -22341742.922 9  18276077.171 9  20474758.495    20474761.896        3318.608
      2555.761
 88  3 21  4 50 32.0800000  0  4G 6G 9G11G13
    941986.056 9 -11002582.508 8  17651188.823    17651191.822        -154.575
      -114.992
 -12448061.042 9  -9975267.017 9  18570757.622    18570759.317        2463.071
      1913.535
  -7715877.638 8  -6229670.237 8  18031258.787    18031261.374         589.193
       475.224
 -22440461.759 9  18199153.415 9  20455973.424    20455976.859        3280.347
      2561.794
 88  3 21  4 51  2.0800000  0  4G 6G 9G11G13
    946819.287 8 -10998816.355 8  17652109.689    17652111.768        -176.169
      -122.772
 -12521650.832 9 -10032609.709 8  18556753.801    18556754.745        2449.635
      1906.526
  -7733303.464 9  -6243248.803 8  18027941.776    18027945.081         560.494
       453.476
 -22538873.674 9  18122468.843 8  20437246.284    20437249.215        3286.256
      2548.708
 88  3 21  4 51 32.0800000  0  4G 6G 9G11G13
    952182.951 8 -10994636.898 7  17653129.719    17653131.968        -187.429
      -143.222
 -12594924.184 9 -10089705.809 8  18542810.646    18542812.463        2441.724
      1906.706
  -7750208.843 9  -6256421.808 7  18024725.202    18024727.566         549.377
       425.694
 -22636976.492 9  18046025.099 9  20418576.890    20418581.309        3273.338
      2530.079
 88  3 21  4 52  2.0800000  0  4G 6G 9G11G13
    958078.675 9 -10990042.836 8  17654252.248    17654253.344        -203.171
      -153.487
 -12667877.827 9 -10146552.800 8  18528928.045    18528930.126        2433.782
      1898.050
  -7766594.310 9  -6269189.693 7  18021607.932    18021610.302         541.523
       414.994
 -22734768.280 9  17969823.743 9  20399967.773    20399972.238        3248.203
      2533.062
 88  3 21  4 52 32.0800000  0  4G 6G 9G11G13
    964507.494 8 -10985033.380 8  17655475.165    17655477.434        -219.670
      -165.647
 -12740509.268 9 -10203148.725 8  18515106.326    18515108.534        2419.595
      1868.516
  -7782460.408 9  -6281552.881 8  18018587.801    18018590.602         515.582
       405.617
 -22832247.526 9  17893865.919 8  20381418.214    20381422.475        3245.148
      2516.396
 88  3 21  4 53  2.0800000  0  4G 6G 9G11G13
    971470.807 9 -10979607.438 8  17656800.730    17656803.175        -239.813
      -185.854
 -12812815.209 9 -10259491.006 8  18501346.508    18501349.154        2415.488
      1880.229
  -7797807.482 9  -6293511.639 8  18015668.602    18015670.752         495.216
       382.260
 -22929411.984 9  17818153.388 8  20362929.663    20362932.069        3238.099
      2538.306
 88  3 21  4 53 32.0800000  0  4G 6G 9G11G13
    978969.683 8 -10973764.173 7  17658228.071    17658230.397        -233.928
      -197.511
 -12884792.925 9 -10315577.540 9  18487650.291    18487652.038        2389.325
      1870.902
  -7812636.562 9  -6305066.747 7  18012846.763    18012848.916         483.996
       372.063
 -23026259.913 9  17742687.499 8  20344499.669    20344503.387        3223.594
      2502.397
 88  3 21  4 54  2.0800000  0  4G 6G 9G11G13
    987005.162 9 -10967502.775 8  17659756.371    17659758.012        -269.533
      -211.275
 -12956440.035 9 -10371406.447 9  18474015.895    18474017.742        2379.851
      1861.445
  -7826948.618 9  -6316218.987 8  18010121.593    18010124.611         465.678
       392.208
 -23122789.660 9  17667469.522 7  20326130.571    20326133.590        3205.899
      2488.024
 88  3 21  4 54 32.0800000  0  4G 6G 9G11G13
    995578.611 8 -10960822.178 8  17661387.779    17661390.553        -292.156
      -237.665
 -13027753.106 9 -10426975.068 9  18460445.349    18460447.603        2368.384
      1845.214
  -7840743.992 9  -6326968.615 9  18007496.658    18007499.740         436.078
       347.872
 -23218999.129 9  17592501.113 9  20307822.327    20307826.433        3203.514
      2495.356
 88  3 21  4 55  2.0800000  0  4G 6G 9G11G13
   1004691.437 9 -10953721.285 8  17663121.893    17663124.476        -309.804
      -236.565
 -13098729.149 9 -10482281.074 8  18446938.073    18446940.771        2367.036
      1848.731
  -7854022.861 8  -6337315.766 8  18004970.721    18004972.790         434.770
       344.635
 -23314885.884 9  17517784.187 9  20289575.007    20289580.216        3199.407
      2492.454
 88  3 21  4 55 32.0800000  0  4G 6G 9G11G13
   1014344.678 9 -10946199.303 8  17664959.530    17664960.948        -331.486
      -248.707
 -13169365.370 9 -10537322.280 9  18433497.960    18433498.598        2350.896
      1839.417
  -7866786.016 9  -6347261.076 8  18002541.687    18002544.348         429.204
       335.488
 -23410449.104 9  17443319.370 9  20271391.306    20271394.724        3181.776
      2470.141
 88  3 21  4 56  2.0800000  0  4G 6G 9G11G13
   1024539.722 9 -10938255.119 8  17666899.336    17666900.948        -343.137
      -269.728
 -13239658.680 9 -10592096.279 9  18420121.166    18420122.782        2340.346
      1819.775
  -7879034.620 9  -6356805.414 9  18000210.863    18000213.232         399.683
       318.618
 -23505686.254 9  17369108.620 8  20253268.159    20253271.452        3161.960
      2466.990
 88  3 21  4 56 32.0800000  0  4G 6G 9G11G13
   1035277.235 9 -10929888.241 8  17668943.258    17668944.943        -368.607
      -290.277
 -13309606.455 9 -10646601.035 8  18406810.184    18406812.753        2326.367
      1816.954
  -7890769.847 9  -6365949.738 8  17997977.721    17997980.826         397.354
       308.117
 -23600595.706 9  17295153.220 8  20235206.864    20235211.599        3160.963
      2452.605
 88  3 21  4 57  2.0800000  0  4G 6G 9G11G13
   1046558.423 9 -10921097.725 8  17671089.764    17671092.342        -387.641
      -312.976
 -13379205.849 9 -10700834.326 8  18393565.983    18393568.612        2301.208
      1811.175
  -7901991.868 9  -6374694.174 9  17995842.408    17995844.560         368.511
       295.987
 -23695176.333 9  17221454.057 8  20217208.812    20217211.730        3140.429
      2438.227
 88  3 21  4 57 32.0800000  0  4G 6G 9G11G13
   1058384.045 9 -10911882.955 7  17673339.739    17673340.916        -399.467
      -308.322
 -13448454.215 9 -10754794.081 9  18380388.730    18380390.412        2295.514
      1794.292
  -7912702.026 9  -6383039.731 8  17993803.592    17993806.526         358.057
       280.633
 -23789426.241 9  17148012.567 7  20199273.125    20199277.243        3149.735
      2439.159
 88  3 21  4 58  2.0800000  0  4G 6G 9G11G13
   1070755.279 9 -10902243.047 8  17675694.107    17675696.201        -411.214
      -306.775
 -13517348.327 9 -10808477.791 9  18367278.808    18367280.083        2285.578
      1793.969
  -7922900.685 8  -6390986.736 7  17991863.748    17991866.676         330.098
       262.048
 -23883343.514 9  17074830.298 9  20181401.629    20181405.332        3138.451
      2425.687
 88  3 21  4 58 32.0800000  0  4G 6G 9G11G13
   1083673.194 9 -10892177.161 8  17678152.315    17678154.096        -445.759
      -342.715
 -13585885.517 9 -10861883.392 8  18354236.264    18354238.562        2265.339
      1777.981
  -7932589.061 8  -6398536.112 8  17990019.967    17990022.326         310.434
       245.569
 -23976926.271 9  17001908.697 9  20163593.205    20163597.842        3119.943
      2434.436
 88  3 21  4 59  2.0800000  0  4G 6G 9G11G13
   1097138.926 9 -10881684.414 8  17680714.741    17680717.026        -438.574
      -343.430
 -13654062.680 9 -10915008.450 8  18341263.356    18341263.712        2278.066
      1764.348
  -7941767.898 9  -6405688.428 8  17988272.649    17988275.206         304.844
       231.308
 -24070172.446 9  16929249.357 9  20145850.205    20145853.683        3099.848
      2417.386
 88  3 21  4 59 32.0800000  0  4G 6G 9G11G13
   1111153.516 9 -10870763.961 8  17683380.716    17683383.840        -481.308
      -373.430
 -13721876.744 9 -10967850.569 8  18328358.603    18328360.153        2266.352
      1753.760
  -7950438.034 9  -6412444.374 8  17986622.830    17986625.301         307.053
       230.786
 -24163080.836 9  16856853.218 8  20128170.369    20128172.544        3090.733
      2416.584
 88  3 21  5  0  2.0800000  0  4G 6G 9G11G13
   1125717.843 9 -10859415.152 8  17686152.878    17686155.023        -498.692
      -388.641
 -13789324.945 9 -11020407.595 8  18315523.841    18315524.698        2235.236
      1734.050
  -7958600.109 9  -6418804.418 7  17985070.257    17985072.810         264.366
       201.588
 -24255650.103 8  16784721.358 8  20110554.263    20110557.443        3067.344
      2415.062
 88  3 21  5  0 32.0800000  0  4G 6G 9G11G13
   1140833.053 8 -10847637.075 8  17689029.368    17689030.870        -500.064
      -391.170
 -13856404.221 9 -11072677.165 8  18302759.251    18302760.426        2235.850
      1744.184
  -7966255.019 9  -6424769.270 9  17983612.916    17983616.378         242.915
       188.949
 -24347877.730 9  16712855.706 8  20093003.148    20093007.399        3072.535
      2394.009
 88  3 21  5  1  2.0800000  0  4G 6G 9G11G13
   1156499.875 8 -10835429.167 8  17692010.891    17692012.758        -537.432
      -413.012
 -13923111.774 9 -11124657.083 9  18290064.532    18290066.155        2223.115
      1719.833
  -7973403.992 9  -6430339.886 8  17982252.347    17982256.379         229.996
       184.549
 -24439761.905 9  16641257.673 9  20075519.867    20075524.048        3047.887
      2392.543
 88  3 21  5  1 32.0800000  0  4G 6G 9G11G13
   1172719.359 9 -10822790.627 8  17695097.234    17695099.170        -547.001
      -424.495
 -13989444.681 9 -11176345.049 8  18277442.633    18277444.115        2204.957
      1723.082
  -7980047.633 8  -6435516.731 8  17980988.141    17980991.653         217.724
       163.472
 -24531301.099 8  16569928.456 9  20058099.175    20058103.368        3055.574
      2383.850
 88  3 21  5  2  2.0800000  0  4G 6G 9G11G13
   1189492.402 9 -10809720.737 8  17698288.724    17698290.009        -577.160
      -462.759
 -14055399.875 9 -11227738.708 9  18264892.112    18264892.870        2184.639
      1705.758
  -7986186.696 9  -6440300.429 8  17979820.599    17979823.799         210.946
       158.135
 -24622493.868 9  16498869.189 9  20040745.329    20040749.478        3031.292
      2356.863
 88  3 21  5  2 32.0800000  0  4G 6G 9G11G13
   1206819.768 9 -10796218.910 8  17701586.264    17701587.467        -583.101
      -443.813
 -14120974.702 9 -11278835.961 9  18252412.556    18252414.862        2178.132
      1712.985
  -7991822.836 9  -6444692.214 8  17978748.298    17978749.673         177.302
       135.597
 -24713338.398 9  16428081.258 9  20023459.572    20023462.692        3024.498
      2363.835
 88  3 21  5  3  2.0800000  0  4G 6G 9G11G13
   1224702.201 9 -10782284.562 8  17704988.301    17704991.657        -595.142
      -479.518
 -14186166.062 9 -11329634.424 9  18240007.537    18240009.142        2162.909
      1693.554
  -7996956.989 9  -6448692.844 7  17977770.576    17977773.042         173.626
       145.589
 -24803832.767 9  16357566.195 8  20006239.204    20006241.896        2999.147
      2339.950
 88  3 21  5  3 32.0800000  0  4G 6G 9G11G13
   1243140.539 9 -10767917.042 8  17708497.741    17708499.593        -618.914
      -488.652
 -14250971.387 9 -11380132.074 9  18227675.213    18227677.616        2149.001
      1670.930
  -8001589.895 9  -6452302.892 8  17976888.983    17976892.220         139.160
       107.890
 -24893976.179 9  16287324.586 9  19989084.068    19989088.474        3010.726
      2340.167
 88  3 21  5  4  2.0800000  0  4G 6G 9G11G13
   1262135.625 9 -10753115.696 9  17712112.375    17712114.170        -624.320
      -494.704
 -14315387.595 9 -11430326.515 8  18215417.339    18215418.455        2139.480
      1666.611
  -8005722.847 9  -6455523.371 8  17976102.293    17976104.960         129.727
       110.059
 -24983766.793 9  16217357.903 9  19971998.241    19972001.719        2996.093
      2335.668
 88  3 21  5  4 32.0800000  0  4G 6G 9G11G13
   1281688.070 9 -10737880.037 8  17715832.465    17715835.926        -675.053
      -518.118
 -14379411.731 9 -11480215.452 9  18203233.084    18203236.116        2137.702
      1656.632
  -8009357.108 9  -6458355.254 8  17975410.647    17975414.373         116.689
        73.254
 -25073202.776 9  16147667.546 9  19954979.150    19954983.200        2967.497
      2318.257
 88  3 21  5  5  2.0800000  0  4G 6G 9G11G13
   1301798.736 9 -10722209.405 8  17719660.811    17719662.309        -668.267
      -523.033
 -14443041.081 9 -11529796.753 8  18191125.030    18191126.406        2113.005
      1663.853
  -8012493.634 8  -6460799.289 8  17974814.400    17974816.781          91.609
        80.469
 -25162282.644 9  16078254.684 9  19938028.061    19938030.965        2971.365
      2311.528
 88  3 21  5  5 32.0800000  0  4G 6G 9G11G13
   1322468.332 9 -10706103.255 7  17723593.370    17723595.832        -709.646
      -552.940
 -14506272.791 9 -11579068.218 9  18179092.706    18179094.465        2106.115
      1639.824
  -8015133.297 9  -6462856.163 8  17974311.451    17974315.675          61.299
        59.578
 -25251005.060 9  16009120.355 8  19921143.707    19921147.485        2955.193
      2304.916
 88  3 21  5  6  2.0800000  0  4G 6G 9G11G13
   1343697.332 8 -10689561.186 8  17727632.851    17727635.751        -726.615
      -550.311
 -14569103.803 9 -11628027.444 8  18167136.654    18167138.473        2074.601
      1630.410
  -8017277.168 9  -6464526.689 8  17973904.652    17973905.076          75.772
        65.400
 -25339368.466 9  15940265.777 8  19904329.648    19904331.665        2943.885
      2288.978
 88  3 21  5  6 32.0800000  0  4G 6G 9G11G13
   1365486.572 9 -10672582.566 7  17731779.086    17731781.331        -726.233
      -566.312
 -14631531.478 9 -11676672.392 9  18155257.858    18155258.664        2076.498
      1608.283
  -8018926.640 9  -6465811.990 8  17973590.124    17973592.193          50.789
        44.112
 -25427371.367 9  15871692.094 9  19887582.204    19887586.011        2928.710
      2285.480
 88  3 21  5  7  2.0800000  0  4G 6G 9G11G13
   1387836.735 9 -10655166.885 8  17736032.387    17736034.710        -745.363
      -578.938
 -14693552.755 9 -11725000.645 9  18143454.493    18143456.116        2073.987
      1615.056
  -8020082.819 8  -6466712.896 7  17973370.002    17973371.995          30.550
         6.276
 -25515011.692 9  15803400.956 9  19870905.712    19870908.745        2916.701
      2268.255
 88  3 21  5  7 32.0800000  0  4G 6G 9G11G13
   1410748.387 8 -10637313.651 8  17740392.071    17740394.979        -763.018
      -622.062
 -14755164.845 9 -11773010.064 8  18131730.268    18131732.025        2062.695
      1593.351
  -8020747.102 9  -6467230.517 8  17973243.092    17973246.373           4.992
        12.297
 -25602288.760 9  15735392.889 9  19854298.445    19854299.977        2902.012
      2267.223
 88  3 21  5  8  2.0800000  0  4G 6G 9G11G13
   1434222.244 9 -10619022.363 7  17744858.939    17744860.254        -779.382
      -619.763
 -14816364.760 9 -11820698.305 9  18120084.914    18120084.962        2037.791
      1563.630
  -8020920.559 9  -6467365.679 8  17973210.575    17973212.776          -1.555
         0.541
 -25689200.736 9  15667669.301 8  19837759.007    19837762.013        2877.889
      2250.198
 88  3 21  5  8 32.0800000  0  4G 6G 9G11G13
   1458258.577 9 -10600292.748 8  17749433.987    17749435.187        -811.750
      -642.070
 -14877149.885 9 -11868063.330 9  18108517.538    18108518.552        2015.997
      1557.920
  -8020604.230 9  -6467119.174 8  17973271.296    17973274.082         -26.610
       -18.840
 -25775746.053 9  15600231.415 8  19821288.856    19821292.734        2883.990
      2249.763
 88  3 21  5  9  2.0800000  0  4G 6G 9G11G13
   1482858.063 8 -10581124.336 8  17754114.841    17754116.727        -833.041
      -639.032
 -14937517.285 9 -11915102.878 8  18097029.347    18097030.512        2012.967
      1556.516
  -8019799.371 9  -6466492.022 8  17973424.163    17973425.790         -37.009
       -36.730
 -25861923.602 9  15533080.104 9  19804889.446    19804893.639        2871.398
      2236.235
 88  3 21  5  9 32.0800000  0  4G 6G 9G11G13
   1508021.410 9 -10561516.554 7  17758902.090    17758905.516        -849.907
      -669.703
 -14997463.962 9 -11961814.573 8  18085621.803    18085624.843        1991.946
      1544.939
  -8018507.382 9  -6465485.268 8  17973670.365    17973672.575         -45.063
       -40.930
 -25947731.412 9  15466216.909 9  19788560.816    19788565.437        2862.898
      2226.275
 88  3 21  5 10  2.0800000  0  4G 6G 9G11G13
   1533748.948 8 -10541469.143 7  17763798.993    17763801.385        -867.443
      -682.914
 -15056986.999 9 -12008196.150 7  18074295.112    18074296.236        1985.407
      1547.897
  -8016729.151 9  -6464099.615 8  17974007.911    17974010.745         -75.677
       -48.126
 -26033167.913 9  15399643.035 8  19772303.358    19772306.360        2859.851
      2215.935
 88  3 21  5 10 32.0800000  0  4G 6G 9G11G13
   1560041.245 9 -10520981.663 8  17768802.283    17768804.861        -884.731
      -698.423
 -15116084.037 9 -12054245.795 8  18063049.824    18063050.445        1974.243
      1526.547
  -8014466.131 9  -6462336.218 9  17974438.808    17974440.640         -78.731
       -48.561
 -26118232.135 9  15333359.256 8  19756117.844    19756120.161        2825.378
      2200.177
 88  3 21  5 11  2.0800000  0  4G 6G 9G11G13
   1586898.764 9 -10500053.745 8  17773912.773    17773915.163        -892.330
      -717.294
 -15174751.767 9 -12099960.900 7  18051885.929    18051886.994        1950.599
      1506.532
  -8011719.908 8  -6460196.305 7  17974961.515    17974964.650         -93.404
       -86.421
 -26202922.106 9  15267367.082 8  19740000.785    19740004.276        2822.300
      2198.990
 88  3 21  5 11 32.0800000  0  4G 6G 9G11G13
   1614321.768 9 -10478685.185 8  17779132.343    17779133.852        -928.662
      -728.883
 -15232987.719 9 -12145339.565 8  18040802.988    18040804.159        1945.041
      1500.132
  -8008491.674 8  -6457680.807 7  17975574.521    17975578.817         -97.941
       -94.630
 -26287237.147 9  15201667.072 8  19723955.704    19723958.681        2797.324
      2187.376
 88  3 21  5 12  2.0800000  0  4G 6G 9G11G13
   1642310.966 9 -10456875.426 8  17784456.910    17784458.829        -945.025
      -745.033
 -15290788.626 9 -12190379.231 8  18029803.891    18029806.359        1921.876
      1503.568
  -8004782.647 9  -6454790.665 8  17976280.751    17976284.448        -141.202
      -100.912
 -26371175.786 9  15136260.359 8  19707983.775    19707986.523        2796.104
      2181.411
 88  3 21  5 12 32.0800000  0  4G 6G 9G11G13
   1670866.507 9 -10434624.379 7  17789891.006    17789893.514        -938.733
      -747.636
 -15348151.911 9 -12235077.894 8  18018888.443    18018889.015        1915.137
      1488.723
  -8000594.123 9  -6451526.860 7  17977079.108    17977082.572        -148.538
      -115.148
 -26454736.582 9  15071148.068 9  19692081.556    19692085.535        2772.971
      2169.524
 88  3 21  5 13  2.0800000  0  4G 6G 9G11G13
   1699988.740 9 -10411931.737 8  17795433.921    17795435.632        -963.549
      -754.105
 -15405074.843 9 -12279433.422 8  18008056.425    18008057.845        1882.650
      1485.647
  -7995927.628 9  -6447890.626 8  17977967.672    17977969.141        -151.672
      -128.843
 -26537917.657 9  15006331.682 8  19676252.781    19676257.257        2765.028
      2138.207
 88  3 21  5 13 32.0800000  0  4G 6G 9G11G13
   1729677.971 9 -10388797.281 7  17801083.202    17801084.688        -990.128
      -783.353
 -15461554.460 9 -12323443.533 8  17997308.886    17997310.280        1872.546
      1454.808
  -7990784.664 9  -6443883.106 7  17978945.135    17978947.699        -178.450
      -128.545
 -26620718.697 9  14941811.403 9  19660496.808    19660498.656        2763.162
      2165.653
 88  3 21  5 14  2.0800000  0  4G 6G 9G11G13
   1759934.749 9 -10365220.590 8  17806840.379    17806843.012       -1018.660
      -792.655
 -15517588.055 9 -12367106.066 8  17986645.995    17986648.091        1863.304
      1445.221
  -7985166.535 8  -6439505.328 8  17980014.899    17980017.162        -205.005
      -148.050
 -26703137.657 9  14877588.852 9  19644812.317    19644815.595        2734.495
      2137.324
 88  3 21  5 14 32.0800000  0  4G 6G 9G11G13
   1790759.336 9 -10341201.469 7  17812706.035    17812708.442       -1018.269
      -811.265
 -15573172.859 9 -12410418.893 8  17976068.523    17976070.314        1846.255
      1453.342
  -7979074.278 9  -6434758.110 8  17981173.628    17981176.729        -225.140
      -156.090
 -26785172.783 9  14813665.411 8  19629201.587    19629204.878        2730.459
      2128.265
 88  3 21  5 15  2.0800000  0  4G 6G 9G11G13
   1822151.864 9 -10316739.773 8  17818679.962    17818682.125       -1049.952
      -816.038
 -15628305.931 9 -12453379.717 8  17965576.260    17965579.221        1836.877
      1427.542
  -7972509.689 9  -6429642.838 8  17982423.436    17982425.261        -229.047
      -196.884
 -26866823.361 9  14750041.599 8  19613664.116    19613666.007        2713.977
      2128.755
 88  3 21  5 15 32.0800000  0  4G 6G 9G11G13
   1854112.682 9 -10291835.266 8  17824762.436    17824764.086       -1089.951
      -824.575
 -15682984.517 9 -12495986.414 8  17955171.443    17955172.787        1821.845
      1409.647
  -7965474.000 9  -6424160.473 7  17983761.706    17983764.684        -237.987
      -201.544
 -26948088.350 9  14686718.238 9  19598200.191    19598203.583        2714.399
      2112.388
 88  3 21  5 16  2.0800000  0  4G 6G 9G11G13
   1886641.796 9 -10266487.927 7  17830952.167    17830954.059       -1105.796
      -839.700
 -15737205.960 9 -12538236.884 8  17944853.706    17944855.013        1797.859
      1394.876
  -7957968.759 9  -6418312.229 8  17985190.039    17985192.451        -250.451
      -189.191
 -27028966.518 9  14623696.315 8  19582810.107    19582812.269        2686.808
      2102.260
 88  3 21  5 16 32.0800000  0  4G 6G 9G11G13
   1919739.497 9 -10240697.540 7  17837250.156    17837253.489       -1105.541
      -873.093
 -15790967.630 9 -12580129.099 9  17934622.141    17934625.268        1778.600
      1392.403
  -7949995.377 9  -6412099.211 8  17986706.765    17986709.556        -258.138
      -200.295
 -27109456.160 9  14560977.129 8  19567493.344    19567495.576        2678.347
      2086.179
 88  3 21  5 17  2.0800000  0  4G 6G 9G11G13
   1953405.855 9 -10214464.028 8  17843656.508    17843659.109       -1121.896
      -877.237
 -15844266.666 9 -12621660.820 9  17924481.601    17924483.219        1756.743
      1371.500
  -7941555.747 9  -6405522.864 8  17988312.186    17988316.470        -294.262
      -222.528
 -27189556.348 9  14498561.431 9  19552250.071    19552252.834        2658.977
      2079.524
 88  3 21  5 17 32.0800000  0  4G 6G 9G11G13
   1987641.151 9 -10187787.191 9  17850171.907    17850173.066       -1148.100
      -895.251
 -15897100.335 9 -12662829.904 8  17914426.545    17914429.062        1757.915
      1368.008
  -7932651.052 9  -6398584.134 9  17990007.922    17990010.973        -298.129
      -234.794
 -27269265.907 9  14436450.094 8  19537082.065    19537084.341        2655.453
      2073.844
 88  3 21  5 18  2.0800000  0  4G 6G 9G11G13
   2022445.494 9 -10160666.939 7  17856795.295    17856796.509       -1180.739
      -913.911
 -15949465.797 9 -12703634.148 8  17904462.326    17904464.361        1718.386
      1359.545
  -7923282.795 9  -6391284.194 8  17991790.520    17991793.437        -309.883
      -253.212
 -27348583.269 9  14374644.374 8  19521988.096    19521991.676        2632.869
      2065.375
 88  3 21  5 18 32.0800000  0  4G 6G 9G11G13
   2057818.832 9 -10133103.313 8  17863526.581    17863529.049       -1186.018
      -929.806
 -16001360.432 9 -12744071.528 8  17894587.114    17894589.461        1723.617
      1347.242
  -7913452.725 9  -6383624.388 8  17993661.281    17993663.510        -344.755
      -239.523
 -27427507.545 9  14313144.975 9  19506969.144    19506972.134        2631.873
      2048.647
 88  3 21  5 19  2.0800000  0  4G 6G 9G11G13
   2093761.399 9 -10105096.132 8  17870365.930    17870368.073       -1207.796
      -954.294
 -16052781.464 9 -12784139.861 8  17884802.763    17884804.222        1713.721
      1332.416
  -7903162.117 9  -6375605.711 9  17995619.903    17995620.389        -350.385
      -273.947
 -27506037.704 9  14251952.663 9  19492026.790    19492029.281        2591.155
      2029.919
 88  3 21  5 19 32.0800000  0  4G 6G 9G11G13
   2130273.427 9 -10076645.233 8  17877313.426    17877315.306       -1210.770
      -949.889
 -16103725.925 9 -12823836.830 8  17875107.142    17875110.799        1690.675
      1328.209
  -7892412.558 9  -6367229.438 7  17997665.818    17997668.035        -363.854
      -283.703
 -27584172.224 9  14191068.642 9  19477156.987    19477160.609        2593.739
      2020.617
 88  3 21  5 20  2.0800000  0  4G 6G 9G11G13
   2167354.733 9 -10047750.718 8  17884370.603    17884372.977       -1242.883
      -969.301
 -16154191.517 9 -12863160.672 8  17865503.929    17865506.105        1669.910
      1305.895
  -7881205.372 9  -6358496.545 9  17999798.160    17999800.066        -380.161
      -301.412
 -27661910.168 9  14130493.644 8  19462363.695    19462367.401        2601.068
      2025.047
 88  3 21  5 20 32.0800000  0  4G 6G 9G11G13
   2205005.245 9 -10018412.671 8  17891535.472    17891536.459       -1259.773
      -982.579
 -16204175.371 9 -12902109.127 9  17855991.937    17855994.463        1654.727
      1291.927
  -7869542.318 9  -6349408.448 8  18002016.551    18002020.126        -393.845
      -303.568
 -27739250.537 8  14070228.450 9  19447646.202    19447649.911        2562.679
      2014.820
 88  3 21  5 21  2.0800000  0  4G 6G 9G11G13
   2243224.947 9  -9988631.118 8  17898808.410    17898809.239       -1271.990
      -992.702
 -16253674.903 9 -12940680.189 8  17846572.855    17846575.502        1633.260
      1270.402
  -7857425.389 9  -6339966.689 8  18004322.315    18004325.504        -396.421
      -320.582
 -27816192.307 9  14010273.855 9  19433004.012    19433007.472        2572.137
      1993.127
 88  3 21  5 21 32.0800000  0  4G 6G 9G11G13
   2282013.774 9  -9958406.084 8  17906189.258    17906190.640       -1302.380
     -1008.447
 -16302687.342 9 -12978871.695 9  17837246.042    17837248.011        1626.657
      1272.974
  -7844855.989 9  -6330172.333 8  18006715.341    18006717.184        -418.255
      -324.614
 -27892734.203 9  13950630.835 8  19418439.310    19418442.146        2543.142
      2000.087
 88  3 21  5 22  2.0800000  0  4G 6G 9G11G13
   2321371.711 8  -9927737.587 8  17913678.786    17913680.649       -1306.989
     -1025.635
 -16351209.880 9 -13016681.459 8  17828013.054    17828013.763        1611.043
      1259.950
  -7831835.415 9  -6320026.435 8  18009191.602    18009195.185        -443.374
      -350.141
 -27968874.726 9  13891300.571 8  19403950.535    19403952.967        2535.279
      1964.886
 88  3 21  5 22 32.0800000  0  4G 6G 9G11G13
   2361298.546 9  -9896625.807 7  17921277.415    17921279.221       -1342.985
     -1055.890
 -16399240.129 9 -13054107.633 8  17818872.731    17818875.773        1575.382
      1247.374
  -7818365.514 9  -6309530.398 8  18011754.695    18011757.801        -453.757
      -353.887
 -28044613.513 9  13832283.377 8  19389537.985    19389540.918        2523.828
      1968.521
 88  3 21  5 23  2.0800000  0  4G 6G 9G11G13
   2401794.150 9  -9865070.812 8  17928982.630    17928985.526       -1352.291
     -1060.525
 -16446775.622 9 -13091148.280 8  17809826.860    17809829.043        1571.164
      1229.901
  -7804447.996 8  -6298685.573 8  18014403.080    18014406.043        -466.173
      -351.129
 -28119949.478 9  13773580.048 8  19375202.211    19375205.297        2524.482
      1941.223
 88  3 21  5 23 32.0800000  0  4G 6G 9G11G13
   2442858.287 9  -9833072.814 8  17936795.920    17936799.426       -1389.532
     -1062.103
 -16493813.384 9 -13127801.085 8  17800875.398    17800878.246        1555.438
      1212.987
  -7790084.515 9  -6287493.242 8  18017137.349    18017138.885        -488.134
      -396.806
 -28194881.389 9  13715191.573 8  19360942.957    19360945.475        2488.478
      1939.751
 88  3 21  5 24  2.0800000  0  4G 6G 9G11G13
   2484490.803 9  -9800631.912 8  17944718.676    17944721.773       -1383.479
     -1082.534
 -16540351.113 9 -13164064.247 9  17792019.789    17792022.931        1548.461
      1206.475
  -7775276.793 9  -6275954.751 8  18019956.049    18019957.013        -512.695
      -389.704
 -28269408.414 8  13657118.584 7  19346760.490    19346764.080        2476.365
      1920.867
 88  3 21  5 24 32.0800000  0  4G 6G 9G11G13
   2526692.362 8  -9767747.622 8  17952750.075    17952753.286       -1418.343
     -1113.274
 -16586386.056 9 -13199935.631 8  17783260.323    17783262.902        1542.344
      1180.004
  -7760026.575 9  -6264071.446 7  18022856.958    18022859.268        -523.150
      -387.895
 -28343529.581 9  13599361.852 7  19332655.955    19332658.731        2465.982
      1923.061
 88  3 21  5 25  2.0800000  0  4G 6G 9G11G13
   2569461.219 8  -9734421.272 8  17960889.138    17960891.464       -1439.379
     -1114.790
 -16631915.714 8 -13235413.293 7  17774596.723    17774597.978        1511.372
      1187.516
  -7744335.505 9  -6251844.636 9  18025842.111    18025845.096        -529.784
      -405.623
 -28417243.940 9  13541922.099 9  19318628.251    19318632.273        2450.424
      1913.939
 88  3 21  5 25 32.0800000  0  4G 6G 9G11G13
   2612797.718 9  -9700652.601 8  17969135.849    17969137.859       -1458.877
     -1130.878
 -16676937.444 9 -13270495.145 8  17766028.176    17766030.258        1490.072
      1168.030
  -7728205.168 9  -6239275.530 8  18028912.074    18028915.260        -546.219
      -409.165
 -28490550.294 9  13484800.290 8  19304678.257    19304682.048        2453.765
      1901.896
 88  3 21  5 26  2.0800000  0  4G 6G 9G11G13
   2656701.825 9  -9666441.642 8  17977490.481    17977493.204       -1476.189
     -1147.897
 -16721448.639 9 -13305179.191 8  17757558.663    17757560.308        1481.364
      1153.446
  -7711637.259 8  -6226365.474 8  18032064.470    18032068.148        -552.320
      -445.267
 -28563447.816 9  13427997.037 9  19290806.243    19290809.377        2427.434
      1891.016
 88  3 21  5 26 32.0800000  0  4G 6G 9G11G13
   2701173.261 9  -9631788.609 8  17985952.828    17985955.690       -1497.297
     -1166.085
 -16765446.717 9 -13339463.405 8  17749185.841    17749187.721        1453.701
      1126.236
  -7694633.642 9  -6213115.889 8  18035300.841    18035301.986        -569.082
      -444.410
 -28635935.675 9  13371513.023 8  19277011.987    19277016.109        2412.650
      1883.236
 88  3 21  5 27  2.0800000  0  4G 6G 9G11G13
   2746211.559 8  -9596693.848 8  17994524.287    17994525.003       -1504.625
     -1174.442
 -16808929.007 9 -13373345.707 8  17740911.443    17740914.177        1443.630
      1127.193
  -7677195.978 9  -6199528.082 8  18038618.810    18038620.035        -593.260
      -454.948
 -28708012.763 9  13315349.079 8  19263296.950    19263299.528        2399.085
      1886.903
 88  3 21  5 27 32.0800000  0  4G 6G 9G11G13
   2791816.351 9  -9561157.682 8  18003201.236    18003203.652       -1537.089
     -1186.932
 -16851893.275 8 -13406824.361 8  17732734.953    17732737.251        1414.611
      1115.865
  -7659326.229 8  -6185603.600 7  18042018.713    18042021.517        -588.508
      -469.482
 -28779677.993 9  13259506.068 9  19249658.615    19249663.120        2390.034
      1854.721
 88  3 21  5 28  2.0800000  0  4G 6G 9G11G13
   2837987.197 9  -9525180.437 8  18011987.673    18011989.710       -1531.635
     -1200.453
 -16894337.000 9 -13439897.395 9  17724659.624    17724660.893        1401.700
      1103.674
  -7641026.080 9  -6171343.734 8  18045501.567    18045503.703        -598.515
      -471.011
 -28850930.849 9  13203984.374 8  19236100.915    19236103.459        2374.755
      1830.388
 88  3 21  5 28 32.0800000  0  4G 6G 9G11G13
   2884723.788 9  -9488762.314 8  18020880.965    18020884.835       -1566.698
     -1233.797
 -16936257.552 9 -13472562.764 8  17716682.699    17716683.780        1376.900
      1079.949
  -7622297.388 9  -6156749.946 8  18049066.296    18049068.702        -629.304
      -520.529
 -28921770.128 9  13148784.959 8  19222619.773    19222623.639        2350.912
      1846.625
 88  3 21  5 29  2.0800000  0  4G 6G 9G11G13
   2932025.638 9  -9451903.763 8  18029882.323    18029884.967       -1595.230
     -1233.517
 -16977652.389 9 -13504818.483 8  17708804.503    17708806.538        1366.231
      1084.299
  -7603141.701 9  -6141823.427 7  18052711.750    18052713.953        -631.457
      -490.640
 -28992195.658 9  13093907.962 9  19209217.879    19209221.858        2348.440
      1828.704
 88  3 21  5 29 32.0800000  0  4G 6G 9G11G13
   2979892.351 9  -9414605.053 8  18038992.024    18038992.496       -1598.922
     -1247.218
 -17018519.249 9 -13536662.790 7  17701026.855    17701029.928        1372.801
      1050.291
  -7583560.982 9  -6126565.724 8  18056436.748    18056440.541        -657.039
      -510.400
 -29062206.637 9  13039353.977 9  19195895.606    19195899.283        2342.045
      1820.527
 88  3 21  5 30  2.0800000  0  4G 6G 9G11G13
   3028323.439 9  -9376866.568 8  18048207.750    18048209.806       -1632.183
     -1276.330
 -17058855.506 9 -13568093.643 8  17693352.214    17693353.610        1330.665
      1047.141
  -7563556.928 9  -6110978.148 7  18060243.785    18060246.514        -689.439
      -520.641
 -29131801.494 9  12985124.247 9  19182651.940    19182655.275        2309.421
      1808.491
 88  3 21  5 30 32.0800000  0  4G 6G 9G11G13
   3077318.274 9  -9338688.802 8  18057531.624    18057533.091       -1657.279
     -1284.420
 -17098658.823 9 -13599109.222 8  17685777.307    17685779.928        1314.070
      1039.753
  -7543131.402 8  -6095062.157 9  18064130.398    18064133.948        -684.208
      -545.415
 -29200979.983 9  12931218.946 9  19169488.121    19169492.282        2292.396
      1767.380
 88  3 21  5 31  2.0800000  0  4G 6G 9G11G13
   3126876.409 9  -9300072.090 7  18066962.372    18066963.826       -1672.773
     -1306.479
 -17137926.744 8 -13629707.583 8  17678305.405    17678307.866        1297.452
      1009.386
  -7522286.178 9  -6078819.131 7  18068096.977    18068100.264        -688.952
      -547.204
 -29269741.056 9  12877638.922 8  19156403.463    19156406.998        2286.288
      1786.413
 88  3 21  5 31 32.0800000  0  4G 6G 9G11G13
   3176997.057 9  -9261017.060 8  18076499.982    18076501.019       -1677.573
     -1301.918
 -17176657.076 9 -13659887.068 8  17670935.669    17670938.529        1296.726
       999.027
  -7501023.552 8  -6062250.838 8  18072144.074    18072145.983        -701.002
      -552.089
 -29338084.345 8  12824384.433 9  19143398.390    19143401.164        2283.664
      1765.989
 88  3 21  5 32  2.0800000  0  4G 6G 9G11G13
   3227680.106 9  -9221523.827 8  18086145.574    18086145.912       -1691.855
     -1330.402
 -17214847.160 9 -13689645.585 9  17663668.407    17663671.068        1277.588
       992.994
  -7479345.008 9  -6045358.458 8  18076268.699    18076271.644        -729.670
      -567.679
 -29406008.566 9  12771456.493 8  19130472.593    19130475.997        2261.950
      1753.803
 88  3 21  5 32 32.0800000  0  4G 6G 9G11G13
   3278924.585 9  -9181593.099 7  18095896.338    18095897.838       -1709.750
     -1343.930
 -17252494.557 9 -13718981.214 8  17656504.012    17656505.752        1250.714
       981.088
  -7457252.381 9  -6028143.395 8  18080472.589    18080475.304        -737.269
      -573.874
 -29473513.300 9  12718855.413 9  19117626.444    19117629.104        2237.373
      1742.569
 88  3 21  5 33  2.0800000  0  4G 6G 9G11G13
   3330729.899 9  -9141225.347 8  18105753.758    18105756.120       -1723.067
     -1350.721
 -17289597.258 9 -13747892.401 8  17649443.478    17649445.163        1233.984
       942.445
  -7434747.460 9  -6010607.093 7  18084754.403    18084757.958        -749.709
      -590.384
 -29540597.645 9  12666581.918 8  19104860.567    19104863.900        2247.851
      1744.445
 88  3 21  5 33 32.0800000  0  4G 6G 9G11G13
   3383095.532 9  -9100421.002 7  18115718.962    18115720.373       -1748.130
     -1375.974
 -17326152.864 9 -13776377.310 8  17642487.051    17642489.119        1219.447
       951.529
  -7411832.517 9  -5992751.286 8  18089115.433    18089118.541        -764.302
      -599.015
 -29607261.619 9  12614635.968 8  19092175.306    19092178.696        2228.506
      1728.234
 88  3 21  5 34  2.0800000  0  4G 6G 9G11G13
   3436020.634 9  -9059180.699 8  18125790.092    18125791.780       -1767.588
     -1378.012
 -17362158.945 9 -13804433.999 7  17635635.241    17635637.190        1182.836
       934.963
  -7388509.544 9  -5974577.535 8  18093553.878    18093556.485        -783.170
      -598.257
 -29673503.968 8  12563018.572 9  19079569.891    19079572.610        2206.169
      1718.422
 88  3 21  5 34 32.0800000  0  4G 6G 9G11G13
   3489504.813 9  -9017504.759 8  18135968.070    18135970.428       -1800.243
     -1391.826
 -17397612.857 8 -13832060.422 7  17628887.330    17628889.990        1193.434
       914.601
  -7364779.932 9  -5956086.915 8  18098069.127    18098071.099        -785.331
      -622.329
 -29739323.881 9  12511730.338 8  19067044.580    19067047.013        2190.771
      1707.063
 88  3 21  5 35  2.0800000  0  1G 6
   3543547.140 9  -8975393.883 8  18146251.748    18146253.807       -1804.445
     -1415.997
 88  3 21  5 36  2.0800000  0  4G 6G 9G11G13
   3653303.235 9  -8889869.705 7  18167138.503    18167139.732       -1849.668
     -1429.953
 -17500640.811 9 -13912341.941 8  17609282.895    17609285.441        1120.684
       865.586
  -7291171.669 9  -5898729.803 8  18112077.512    18112078.902        -839.819
      -656.809
 -29934244.546 9  12359844.168 9  19029953.733    19029955.779        2147.478
      1668.817
 88  3 21  5 36 32.0800000  0  4G 6G 9G11G13
   3709015.297 9  -8846457.735 8  18177739.998    18177740.635       -1872.538
     -1453.982
 -17533864.605 9 -13938230.620 7  17602961.154    17602962.669        1110.740
       849.785
  -7265835.240 9  -5878987.129 8  18116898.367    18116900.628        -846.773
      -659.301
 -29998369.883 9  12309876.395 8  19017749.499    19017751.301        2131.992
      1660.609
 88  3 21  5 37  2.0800000  0  4G 6G 9G11G13
   3765282.449 9  -8802613.250 8  18188446.804    18188449.420       -1882.435
     -1479.900
 -17566525.224 8 -13963680.435 8  17596745.935    17596747.580        1085.517
       837.736
  -7240102.149 9  -5858935.362 8  18121795.667    18121797.576        -852.961
      -669.454
 -30062070.030 9  12260239.930 8  19005628.508    19005631.498        2126.633
      1651.301
 88  3 21  5 37 32.0800000  0  4G 6G 9G11G13
   3822104.102 9  -8758336.667 9  18199259.497    18199261.856       -1904.962
     -1485.635
 -17598620.305 8 -13988689.596 9  17590638.392    17590640.089        1051.905
       849.399
  -7213973.960 9  -5838575.732 9  18126767.886    18126769.739        -859.779
      -690.103
 -30125344.269 9  12210935.350 8  18993587.852    18993590.613        2108.739
      1639.836
 88  3 21  5 38  2.0800000  0  4G 6G 9G11G13
   3879479.086 9  -8713628.925 8  18210177.909    18210181.006       -1899.484
     -1491.625
 -17630147.874 8 -14013256.545 7  17584638.106    17584640.063        1041.515
       800.652
  -7187452.964 9  -5817910.000 7  18131814.387    18131816.904        -886.900
      -675.973
 -30188192.542 9  12161962.685 8  18981627.500    18981630.647        2089.879
      1623.705
 88  3 21  5 38 32.0800000  0  4G 6G 9G11G13
   3937406.392 9  -8668490.797 9  18221201.214    18221203.467       -1929.212
     -1511.217
 -17661105.688 9 -14037379.522 7  17578747.133    17578749.750        1014.633
       800.112
  -7160541.045 9  -5796939.678 8  18136934.709    18136937.807        -900.074
      -707.197
 -30250614.015 9  12113322.587 9  18969748.851    18969752.215        2067.631
      1614.739
 88  3 21  5 39  2.0800000  0  4G 6G 9G11G13
   3995885.124 9  -8622922.994 7  18232329.008    18232331.590       -1961.086
     -1528.529
 -17691491.861 8 -14061057.060 7  17572965.734    17572967.616        1004.570
       791.673
  -7133240.180 9  -5775666.272 7  18142129.981    18142133.518        -906.581
      -711.727
 -30312607.822 9  12065015.749 8  18957952.021    18957955.101        2052.185
      1609.233
 88  3 21  5 39 32.0800000  0  4G 6G 9G11G13
   4054914.432 9  -8576926.167 8  18243562.154    18243565.431       -1979.307
     -1533.245
 -17721303.897 8 -14084287.239 8  17567291.653    17567294.344         980.040
       767.533
  -7105552.173 9  -5754091.193 8  18147398.954    18147401.210        -931.118
      -732.736
 -30374173.647 9  12017042.393 8  18946237.334    18946239.849        2042.727
      1572.783
 88  3 21  5 40  2.0800000  0  4G 6G 9G11G13
   4114493.225 9  -8530501.168 9  18254898.866    18254902.041       -1984.132
     -1548.040
 -17750540.014 9 -14107068.629 8  17561729.498    17561730.853         950.025
       747.792
  -7077479.255 9  -5732216.184 8  18152741.405    18152744.607        -934.922
      -725.304
 -30435311.577 9  11969402.471 8  18934602.772    18934604.977        2027.959
      1583.490
 88  3 21  5 40 32.0800000  0  4G 6G 9G11G13
   4174620.621 9  -8483648.690 8  18266341.657    18266343.388       -2014.099
     -1567.098
 -17779197.864 8 -14129399.439 8  17556275.585    17556278.302         943.087
       745.275
  -7049023.376 9  -5710042.762 8  18158156.154    18158159.728        -950.352
      -737.663
 -30496020.739 9  11922096.652 8  18923049.981    18923053.386        2016.428
      1572.174
 88  3 21  5 41  2.0800000  0  4G 6G 9G11G13
   4235295.609 9  -8436369.532 9  18277887.472    18277889.336       -2042.560
     -1572.671
 -17807275.537 8 -14151278.145 8  17550932.853    17550935.135         916.182
       730.449
  -7020186.531 9  -5687572.498 9  18163643.448    18163646.395        -966.420
      -753.254
 -30556301.124 9  11875124.938 7  18911579.204    18911580.692        2008.868
      1564.488
 88  3 21  5 41 32.0800000  0  4G 6G 9G11G13
   4296516.859 9  -8388664.691 8  18289537.251    18289539.227       -2050.374
     -1590.356
 -17834771.024 9 -14172703.199 7  17545700.782    17545702.044         903.415
       698.759
  -6990970.931 9  -5664807.089 9  18169202.708    18169206.332        -976.556
      -763.121
 -30616152.020 9  11828487.881 8  18900188.786    18900192.678        1996.324
      1553.185
 88  3 21  5 42  2.0800000  0  4G 6G 9G11G13
   4358283.608 9  -8340534.790 8  18301292.321    18301294.488       -2062.129
     -1607.755
 -17861682.329 8 -14193673.042 8  17540579.564    17540581.405         883.351
       695.372
  -6961378.452 8  -5641748.014 8  18174834.141    18174837.260        -976.285
      -760.567
 -30675572.930 8  11782185.888 8  18888881.451    18888885.471        1974.267
      1533.556
 88  3 21  5 42 32.0800000  0  4G 6G 9G11G13
   4420594.604 9  -8291980.810 8  18313148.816    18313151.706       -2093.340
     -1627.471
 -17888007.436 9 -14214186.119 8  17535569.391    17535571.702         863.798
       690.227
  -6931410.810 9  -5618396.614 8  18180536.505    18180540.487       -1002.401
      -783.229
 -30734563.434 9  11736219.280 8  18877656.421    18877659.224        1963.558
      1526.012
 88  3 21  5 43  2.0800000  0  4G 6G 9G11G13
   4483448.947 9  -8243003.444 8  18325110.109    18325112.790       -2101.953
     -1645.696
 -17913744.269 8 -14234240.794 7  17530672.640    17530673.926         845.114
       669.492
  -6901070.469 9  -5594754.764 9  18186310.559    18186313.903       -1017.368
      -788.287
 -30793123.231 8  11690588.288 7  18866511.723    18866516.303        1945.847
      1525.254
 88  3 21  5 43 32.0800000  0  4G 6G 9G11G13
   4546845.411 9  -8193603.633 8  18337174.633    18337176.514       -2119.169
     -1658.167
 -17938890.680 9 -14253835.408 8  17525887.814    17525888.444         829.174
       649.334
  -6870359.250 9  -5570823.947 8  18192154.401    18192158.147       -1030.813
      -802.560
 -30851252.002 9  11645293.163 8  18855450.106    18855454.454        1947.019
      1506.607
 88  3 21  5 44  2.0800000  0  4G 6G 9G11G13
   4610782.641 9  -8143782.452 8  18349340.611    18349343.747       -2136.306
     -1655.377
 -17963445.411 8 -14272968.973 7  17521214.044    17521217.291         803.010
       635.869
  -6839279.477 9  -5546605.940 8  18198069.029    18198072.233       -1058.125
      -810.514
 -30908950.160 9  11600333.588 7  18844470.989    18844475.699        1927.250
      1509.123
 88  3 21  5 44 32.0800000  0  4G 6G 9G11G13
   4675259.636 9  -8093540.668 9  18361610.882    18361612.658       -2157.119
     -1671.558
 -17987406.015 8 -14291639.577 8  17516654.263    17516656.254         769.573
       614.251
  -6807832.900 9  -5522102.108 9  18204053.168    18204056.290       -1056.315
      -809.787
 -30966216.757 9  11555710.291 8  18833575.449    18833577.036        1909.292
      1479.856
 88  3 21  5 45  2.0800000  0  4G 6G 9G11G13
   4740275.218 9  -8042879.230 8  18373982.447    18373984.922       -2170.644
     -1701.284
 -18010770.629 9 -14309845.794 7  17512209.700    17512209.969         750.148
       606.117
  -6776021.827 9  -5497314.248 8  18210106.574    18210110.428       -1088.348
      -813.658
 -31023051.377 9  11511423.591 8  18822758.918    18822761.794        1888.200
      1474.351
 88  3 21  5 45 32.0800000  0  4G 6G 9G11G13
   4805828.009 9  -7991799.162 7  18386456.647    18386460.017       -2187.494
     -1699.116
 -18033537.497 9 -14327586.203 7  17507876.350    17507879.530         747.245
       577.006
  -6743848.104 9  -5472243.823 9  18216229.664    18216231.764       -1063.867
      -851.618
 -31079454.316 9  11467473.251 9  18812025.947    18812029.254        1867.475
      1462.489
 88  3 21  5 46  2.0800000  0  4G 6G 9G11G13
   4871917.065 9  -7940301.227 7  18399033.087    18399035.373       -2217.948
     -1710.195
 -18055704.476 9 -14344859.167 7  17503658.714    17503661.064         721.448
       567.878
  -6711313.886 8  -5446892.484 9  18222419.592    18222423.301       -1079.297
      -845.006
 -31135424.709 9  11423859.981 8  18801374.407    18801378.699        1864.875
      1449.384
 88  3 21  5 46 32.0800000  0  4G 6G 9G11G13
   4938540.821 9  -7888386.639 7  18411711.587    18411713.210       -2227.732
     -1735.914
 -18077270.105 9 -14361663.564 9  17499554.452    17499556.443         693.155
       554.624
  -6678421.344 9  -5421261.915 9  18228678.651    18228681.911       -1093.316
      -861.678
 -31190962.675 9  11380583.666 9  18790806.057    18790809.648        1846.351
      1434.968
 88  3 21  5 47  2.0800000  0  4G 6G 9G11G13
   5005698.085 9  -7836056.347 8  18424490.946    18424493.795       -2249.239
     -1745.918
 -18098232.394 7 -14377997.823 7  17495565.241    17495568.339         670.229
       539.120
  -6645172.382 9  -5395353.643 9  18235005.924    18235009.302       -1124.113
      -861.417
 -31246068.112 8  11337644.371 9  18780320.578    18780323.628        1821.064
      1429.630
 88  3 21  5 47 32.0800000  0  4G 6G 9G11G13
   5073387.458 9  -7783311.419 8  18437372.187    18437374.745       -2255.642
     -1778.043
 -18118589.531 8 -14393860.531 7  17491691.031    17491692.437         656.082
       547.577
  -6611569.002 9  -5369169.192 9  18241400.535    18241403.504       -1124.049
      -879.884
 -31300740.550 9  11295042.492 9  18769915.298    18769919.649        1820.514
      1424.293
 88  3 21  5 48  2.0800000  0  4G 6G 9G11G13
   5141607.709 9  -7730152.817 8  18450353.066    18450356.227       -2269.869
     -1777.888
 -18138339.980 9 -14409250.508 7  17487931.505    17487935.198         665.157
       512.482
  -6577613.233 9  -5342710.163 9  18247863.046    18247865.530       -1141.649
      -884.619
 -31354979.517 9  11252778.394 8  18759595.476    18759598.495        1790.450
      1403.818
 88  3 21  5 48 32.0800000  0  4G 6G 9G11G13
   5210357.317 9  -7676581.711 8  18463436.330    18463437.874       -2293.417
     -1788.321
 -18157481.822 7 -14424166.232 7  17484290.443    17484291.279         642.621
       517.857
  -6543307.438 9  -5315978.363 9  18254389.053    18254393.846       -1151.306
      -884.731
 -31408785.590 9  11210851.593 8  18749356.515    18749359.577        1784.677
      1383.033
 88  3 21  5 49  2.0800000  0  4G 6G 9G11G13
   5279634.872 9  -7622599.224 8  18476619.075    18476621.737       -2331.439
     -1803.594
 -18176013.597 7 -14438606.574 8  17480763.719    17480766.072         626.250
       464.580
  -6508653.836 9  -5288975.560 9  18260983.552    18260988.585       -1166.593
      -908.169
 -31462158.275 9  11169262.503 9  18739199.901    18739203.409        1773.880
      1393.671
 88  3 21  5 49 32.0800000  0  4G 6G 9G11G13
   5349439.189 9  -7568206.280 8  18489903.112    18489904.657       -2337.619
     -1825.026
 -18193933.319 8 -14452569.997 8  17477354.946    17477355.143         573.316
       467.072
  -6473654.395 9  -5261703.274 9  18267644.666    18267647.758       -1185.890
      -923.480
 -31515097.320 9  11128011.309 9  18729125.382    18729129.419        1759.039
      1373.756
 88  3 21  5 50  2.0800000  0  4G 6G 9G11G13
   5419768.132 9  -7513404.533 9  18503285.237    18503288.700       -2349.317
     -1827.642
 -18211239.515 7 -14466055.352 7  17474060.703    17474062.887         565.781
       450.015
  -6438311.204 8  -5234163.131 8  18274370.159    18274374.008       -1182.844
      -921.604
 -31567603.183 9  11087097.666 8  18719134.324    18719136.871        1749.047
      1360.104
 88  3 21  5 50 32.0800000  0  4G 6G 9G11G13
   5490621.732 9  -7458193.965 8  18516769.470    18516771.130       -2369.732
     -1844.481
 -18227930.414 8 -14479061.242 8  17470885.371    17470886.643         557.878
       426.440
  -6402626.236 8  -5206356.652 9  18281160.821    18281164.259       -1191.385
      -929.508
 -31619674.906 9  11046522.316 8  18709224.972    18709227.334        1727.716
      1351.131
 88  3 21  5 51  2.0800000  0  4G 6G 9G11G13
   5561997.205 9  -7402576.728 9  18530351.114    18530353.604       -2391.302
     -1863.035
 -18244004.632 7 -14491586.622 7  17467824.365    17467826.553         525.781
       418.983
  -6366601.832 8  -5178285.687 8  18288015.490    18288019.680       -1216.544
      -944.042
 -31671312.798 9  11006285.009 8  18699398.925    18699401.944        1707.270
      1334.267
 88  3 21  5 51 32.0800000  0  4G 6G 9G11G13
   5633893.314 9  -7346553.817 8  18544032.289    18544034.462       -2382.419
     -1869.249
 -18259460.406 8 -14503630.068 7  17464884.595    17464886.378         490.535
       390.971
  -6330240.130 9  -5149951.894 8  18294934.263    18294939.014       -1209.495
      -942.066
 -31722517.405 9  10966385.317 9  18689654.782    18689657.975        1696.664
      1333.994
 88  3 21  5 52  2.0800000  0  4G 6G 9G11G13
   5706308.657 9  -7290126.305 8  18557813.111    18557816.284       -2414.659
     -1903.456
 -18274296.297 9 -14515190.508 8  17462061.037    17462062.196         480.511
       375.263
  -6293543.143 8  -5121356.845 8  18301919.087    18301921.128       -1232.166
      -940.723
 -31773287.906 9  10926823.904 8  18679994.404    18679996.224        1681.832
      1321.635
 88  3 21  5 52 32.0800000  0  4G 6G 9G11G13
   5779241.689 8  -7233295.393 8  18571691.016    18571693.284       -2437.665
     -1894.117
 -18288510.517 9 -14526266.538 7  17459356.982    17459358.745         468.222
       380.520
  -6256513.083 9  -5092502.253 9  18308966.026    18308968.070       -1246.105
      -968.437
 -31823624.417 9  10887600.668 9  18670414.968    18670418.015        1676.856
      1305.752
 88  3 21  5 53  2.0800000  0  4G 6G 9G11G13
   5852691.137 9  -7176062.097 8  18585668.123    18585670.927       -2456.716
     -1918.841
 -18302101.891 8 -14536857.229 7  17456770.487    17456772.721         441.413
       358.194
  -6219151.795 9  -5063389.565 8  18316074.660    18316078.815       -1247.293
      -962.689
 -31873526.705 9  10848715.779 8  18660918.287    18660922.151        1666.170
      1296.009
 88  3 21  5 53 32.0800000  0  4G 6G 9G11G13
   5926655.297 9  -7118427.723 9  18599742.757    18599745.883       -2483.637
     -1928.143
 -18315068.471 9 -14546961.055 7  17454302.762    17454304.108         422.426
       333.618
  -6181461.419 9  -5034020.444 9  18323246.924    18323250.947       -1267.955
      -977.987
 -31922994.863 9  10810169.186 9  18651505.606    18651509.011        1623.691
      1267.152
 88  3 21  5 54  2.0800000  0  4G 6G 9G11G13
   6001132.259 9  -7060393.748 8  18613915.848    18613918.602       -2486.540
     -1938.788
 -18327409.137 9 -14556577.180 8  17451954.994    17451956.434         393.582
       314.815
  -6143444.516 8  -5004396.877 9  18330481.617    18330485.292       -1259.542
      -995.827
 -31972029.846 9  10771960.114 9  18642174.570    18642177.733        1634.496
      1276.746
 88  3 21  5 54 32.0800000  0  4G 6G 9G11G13
   6076120.387 9  -7001961.484 8  18628185.599    18628189.585       -2501.045
     -1948.960
 -18339122.452 8 -14565704.445 7  17449726.070    17449726.651         376.733
       302.338
  -6105103.103 9  -4974520.459 9  18337777.674    18337781.464       -1276.838
     -1006.938
 -32020630.964 8  10734089.130 8  18632925.927    18632928.489        1590.669
      1247.156
 88  3 21  5 55  2.0800000  0  4G 6G 9G11G13
   6151618.138 9  -6943132.098 8  18642552.094    18642555.667       -2536.491
     -1952.731
 -18350207.083 9 -14574341.825 8  17447617.011    17447618.003         348.878
       276.302
  -6066439.181 9  -4944392.721 9  18345135.532    18345139.082       -1303.209
     -1002.196
 -32068798.395 9  10696556.084 9  18623760.194    18623762.869        1599.871
      1240.041
 88  3 21  5 55 32.0800000  0  4G 6G 9G11G13
   6227624.082 9  -6883906.722 8  18657015.716    18657018.891       -2540.742
     -1982.688
 -18360661.388 9 -14582488.047 8  17445626.809    17445628.250         346.438
       271.443
  -6027454.638 9  -4914015.161 8  18352554.604    18352557.394       -1295.083
     -1009.951
 -32116531.993 9  10659361.084 8  18614676.335    18614679.882        1601.107
      1231.597
 88  3 21  5 56  2.0800000  0  4G 6G 9G11G13
   6304136.394 9  -6824286.780 9  18671575.156    18671578.620       -2560.670
     -1989.063
 -18370484.162 8 -14590142.178 8  17443756.762    17443759.475         309.557
       229.562
  -5988151.746 9  -4883389.513 9  18360032.733    18360035.466       -1309.668
     -1021.211
 -32163832.412 9  10622503.642 8  18605675.644    18605678.407        1568.205
      1233.971
 88  3 21  5 56 32.0800000  0  4G 6G 9G11G13
   6381153.487 9  -6764273.483 8  18686231.515    18686235.370       -2577.846
     -2015.199
 -18379673.764 9 -14597302.904 6  17442009.009    17442009.949         305.553
       248.005
  -5948532.725 9  -4852517.550 8  18367572.073    18367576.086       -1325.171
     -1012.418
 -32210698.956 8  10585984.266 8  18596756.833    18596759.894        1570.382
      1224.749
 88  3 21  5 57  2.0800000  0  4G 6G 9G11G13
   6458673.660 9  -6703868.192 8  18700983.578    18700985.351       -2582.902
     -2019.530
 -18388229.067 8 -14603969.382 7  17440380.720    17440382.633         275.339
       214.034
  -5908599.697 9  -4821400.905 9  18375171.433    18375174.645       -1348.177
     -1028.506
 -32257132.157 9  10549802.558 8  18587920.804    18587924.010        1551.459
      1215.540
 88  3 21  5 57 32.0800000  0  4G 6G 9G11G13
   6536695.164 9  -6643072.246 9  18715831.390    18715833.000       -2606.913
     -2018.958
 -18396148.942 8 -14610140.713 7  17438874.558    17438875.984         245.634
       199.649
  -5868355.154 9  -4790041.525 8  18382829.194    18382832.394       -1355.354
     -1039.560
 -32303131.932 8  10513958.595 9  18579167.261    18579171.081        1524.314
      1186.864
 88  3 21  5 58  2.0800000  0  4G 6G 9G11G13
   6615216.161 9  -6581887.072 8  18730772.301    18730774.294       -2610.509
     -2059.528
 -18403431.814 8 -14615815.684 7  17437487.529    17437488.775         223.322
       176.496
  -5827800.485 9  -4758440.481 8  18390547.732    18390550.197       -1361.334
     -1064.589
 -32348698.843 9  10478451.936 8  18570496.169    18570499.931        1518.341
      1176.711
 88  3 21  5 58 32.0800000  0  4G 6G 9G11G13
   6694234.787 9  -6520314.137 8  18745808.624    18745812.706       -2641.577
     -2070.601
 -18410076.600 9 -14620993.458 8  17436224.004    17436225.594         219.111
       154.214
  -5786938.095 9  -4726599.649 9  18398323.269    18398324.967       -1355.043
     -1063.682
 -32393832.918 8  10443282.525 8  18561906.893    18561910.240        1505.080
      1172.672
 88  3 21  5 59  2.0800000  0  4G 6G 9G11G13
   6773749.020 9  -6458355.015 8  18760939.851    18760942.505       -2659.416
     -2065.872
 -18416082.564 9 -14625673.436 8  17435080.447    17435082.675         187.334
       144.806
  -5745770.534 9  -4694521.025 8  18406157.070    18406159.518       -1380.481
     -1066.223
 -32438534.255 8  10408450.333 8  18553400.145    18553404.627        1476.452
      1164.395
 88  3 21  5 59 32.0800000  0  4G 6G 9G11G13
   6853757.299 9  -6396010.938 8  18776165.550    18776167.279       -2684.663
     -2064.306
 -18421448.074 8 -14629854.353 8  17434059.114    17434061.566         172.980
       132.366
  -5704300.004 9  -4662206.335 8  18414047.034    18414050.805       -1364.755
     -1083.404
 -32482803.529 9  10373954.807 8  18544976.433    18544980.837        1499.275
      1144.902
 88  3 21  6  0  2.0800000  0  4G 6G 9G11G13
   6934257.837 9  -6333283.272 8  18791484.258    18791487.413       -2689.679
     -2096.351
 -18426172.123 8 -14633535.433 7  17433161.698    17433162.585         137.909
       111.134
  -5662528.353 9  -4629656.991 8  18421996.885    18421999.387       -1389.803
     -1094.278
 -32526640.725 8  10339795.970 8  18536635.106    18536638.197        1465.495
      1143.566
 88  3 21  6  0 32.0800000  0  4G 6G 9G11G13
   7015248.813 9  -6270173.447 8  18806896.224    18806899.214       -2708.331
     -2113.662
 -18430253.523 8 -14636715.757 7  17432383.763    17432386.769         130.939
       103.789
  -5620457.627 9  -4596874.603 9  18430002.412    18430005.674       -1403.551
     -1093.968
 -32570046.113 8  10305973.601 8  18528375.084    18528378.489        1436.285
      1113.920
 88  3 21  6  1  2.0800000  0  4G 6G 9G11G13
   7096728.269 9  -6206682.977 9  18822401.142    18822405.328       -2724.439
     -2118.018
 -18433690.974 9 -14639394.299 8  17431729.719    17431730.988         114.592
        88.708
  -5578089.778 9  -4563860.688 9  18438064.974    18438068.410       -1415.703
     -1091.520
 -32613019.600 8  10272487.779 7  18520197.228    18520200.076        1429.140
      1119.109
 88  3 21  6  1 32.0800000  0  4G 6G 9G11G13
   7178694.233 9  -6142813.430 8  18837999.248    18838001.227       -2732.373
     -2146.664
 -18436483.682 8 -14641570.441 8  17431198.282    17431200.644          88.563
        72.714
  -5535427.281 9  -4530617.195 9  18446183.220    18446185.934       -1424.970
     -1119.805
 -32655561.715 8  10239338.084 8  18512100.497    18512105.822        1406.589
      1102.443
 88  3 21  6  2  2.0800000  0  4G 6G 9G11G13
   7261144.863 9  -6078566.205 9  18853689.819    18853691.641       -2748.577
     -2148.006
 -18438630.556 8 -14643243.338 7  17430789.127    17430792.439          77.064
        57.446
  -5492472.355 9  -4497145.826 9  18454358.127    18454360.738       -1434.882
     -1123.079
 -32697672.187 9  10206524.745 9  18504089.281    18504091.959        1376.693
      1083.442
 88  3 21  6  2 32.0800000  0  4G 6G 9G11G13
   7344078.222 9  -6013942.828 7  18869470.121    18869473.117       -2760.714
     -2150.908
 -18440130.691 9 -14644412.288 8  17430505.073    17430506.650          45.964
        31.653
  -5449227.079 9  -4463448.209 8  18462587.049    18462590.504       -1450.001
     -1109.956
 -32739351.649 9  10174047.245 9  18496156.974    18496160.967        1391.334
      1087.251
 88  3 21  6  3  2.0800000  0  4G 6G 9G11G13
   7427492.253 9  -5948944.915 8  18885343.663    18885345.252       -2797.739
     -2182.679
 -18440983.070 8 -14645076.497 7  17430341.830    17430343.583           7.560
        24.159
  -5405693.686 9  -4429526.096 8  18470870.871    18470873.994       -1452.330
     -1134.544
 -32780601.121 9  10141904.803 8  18488308.883    18488310.941        1378.344
      1056.840
 88  3 21  6  3 32.0800000  0  4G 6G 9G11G13
   7511384.817 9  -5883574.097 9  18901308.300    18901310.336       -2829.565
     -2177.708
 -18441186.968 9 -14645235.398 7  17430303.217    17430306.297         -20.024
        -9.060
  -5361874.425 9  -4395381.213 9  18479209.196    18479212.380       -1460.280
     -1132.611
 -32821420.955 9  10110097.163 8  18480540.555    18480543.889        1354.269
      1058.239
 88  3 21  6  4  2.0800000  0  4G 6G 9G11G13
   7595754.234 9  -5817831.735 9  18917362.439    18917365.658       -2822.946
     -2200.680
 -18440741.085 7 -14644887.968 8  17430388.951    17430391.596         -13.325
       -18.691
  -5317771.197 9  -4361015.072 8  18487602.505    18487605.313       -1468.446
     -1131.909
 -32861810.516 9  10078624.805 8  18472855.192    18472857.467        1350.936
      1051.919
 88  3 21  6  4 32.0800000  0  4G 6G 9G11G13
   7680598.387 9  -5751719.432 8  18933507.834    18933510.774       -2825.777
     -2208.491
 -18439644.681 8 -14644033.631 7  17430596.335    17430598.409         -35.310
       -37.127
  -5273385.961 9  -4326429.165 8  18496048.010    18496051.121       -1484.658
     -1162.630
 -32901770.946 9  10047486.823 8  18465250.385    18465253.603        1330.848
      1028.866
 88  3 21  6  5  2.0800000  0  4G 6G 9G11G13
   7765915.271 9  -5685238.752 8  18949743.389    18949746.213       -2851.359
     -2233.570
 -18437896.746 8 -14642671.619 8  17430929.466    17430931.839         -61.371
       -47.473
  -5228721.542 9  -4291625.728 9  18504548.133    18504550.674       -1494.091
     -1160.082
 -32941302.527 8  10016682.998 8  18457728.141    18457731.158        1322.523
      1007.658
 88  3 21  6  5 32.0800000  0  4G 6G 9G11G13
   7851702.886 8  -5618391.276 8  18966068.614    18966070.535       -2851.454
     -2239.566
 -18435496.598 8 -14640801.388 7  17431385.793    17431389.293         -75.661
       -71.931
  -5183779.502 9  -4256605.952 9  18513099.339    18513102.942       -1500.096
     -1163.283
 -32980405.509 9   9986213.154 8  18450287.463    18450288.724        1287.882
      1015.618
 88  3 21  6  6  2.0800000  0  4G 6G 9G11G13
   7937959.044 9  -5551178.706 8  18982481.950    18982484.890       -2867.770
     -2234.315
 -18432443.267 8 -14638422.164 7  17431967.468    17431969.827        -108.730
      -102.739
  -5138562.038 9  -4221371.570 9  18521704.886    18521707.821       -1507.472
     -1186.864
 -33019080.548 9   9956076.771 9  18442927.057    18442930.693        1279.206
      1002.725
 88  3 21  6  6 32.0800000  0  4G 6G 9G11G13
   8024681.762 8  -5483602.609 8  18998984.349    18998988.000       -2916.071
     -2258.412
 -18428736.100 8 -14635533.468 7  17432673.174    17432674.071        -152.884
       -98.358
  -5093071.187 9  -4185924.154 8  18530360.913    18530364.917       -1504.067
     -1170.957
 -33057327.439 9   9926274.005 8  18435648.647    18435651.736        1281.511
       985.152
 88  3 21  6  7  2.0800000  0  4G 6G 9G11G13
   8111868.814 9  -5415664.687 8  19015576.103    19015579.811       -2922.681
     -2263.060
 -18424374.438 8 -14632134.786 7  17433502.126    17433503.949        -146.058
      -127.016
  -5047309.488 9  -4150265.693 9  18539069.473    18539072.228       -1529.737
     -1185.907
 -33095147.191 9   9896804.080 9  18428451.711    18428455.391        1252.468
       994.783
 88  3 21  6  7 32.0800000  0  4G 6G 9G11G13
   8199517.459 9  -5347367.063 9  19032255.841    19032258.481       -2934.061
     -2280.378
 -18419358.251 7 -14628226.072 7  17434458.008    17434459.147        -190.444
      -137.971
  -5001279.605 9  -4114398.255 9  18547829.651    18547832.428       -1542.711
     -1191.493
 -33132540.865 9   9867666.175 8  18421335.767    18421338.941        1256.121
       967.853
 88  3 21  6  8  2.0800000  0  4G 6G 9G11G13
   8287626.040 9  -5278711.061 8  19049022.006    19049024.975       -2948.821
     -2299.467
 -18413686.421 8 -14623806.480 7  17435535.984    17435538.390        -197.357
      -170.537
  -4954983.131 9  -4078323.090 9  18556638.898    18556641.312       -1547.727
     -1187.056
 -33169508.326 9   9838860.370 8  18414301.064    18414304.841        1233.234
       957.482
 88  3 21  6  8 32.0800000  0  4G 6G 9G11G13
   8376192.721 9  -5209698.112 8  19065876.216    19065878.600       -2971.668
     -2309.844
 -18407357.648 8 -14618874.971 7  17436740.314    17436742.192        -236.296
      -157.737
  -4908421.970 9  -4042041.656 9  18565499.356    18565501.902       -1561.475
     -1202.610
 -33206049.869 9   9810386.454 8  18407346.783    18407351.276        1214.048
       945.266
 88  3 21  6  9  2.0800000  0  4G 6G 9G11G13
   8465215.495 9  -5140329.735 8  19082816.612    19082818.372       -2969.810
     -2311.149
 -18400371.400 8 -14613431.148 7  17438070.868    17438072.708        -255.339
      -187.662
  -4861598.181 9  -4005555.584 8  18574410.019    18574412.188       -1561.259
     -1209.998
 -33242166.147 9   9782243.904 8  18400474.574    18400478.511        1185.986
       930.141
 88  3 21  6  9 32.0800000  0  4G 6G 9G11G13
   8554692.066 9  -5070607.743 8  19099843.022    19099845.840       -2995.304
     -2335.575
 -18392727.217 8 -14607474.652 7  17439524.191    17439527.069        -275.674
      -200.351
  -4814514.069 9  -3968866.667 9  18583369.070    18583372.690       -1582.072
     -1232.019
 -33277857.927 9   9754432.150 8  18393682.535    18393686.612        1188.442
       925.351
 88  3 21  6 10  2.0800000  0  4G 6G 9G11G13
   8644620.243 9  -5000533.855 9  19116956.286    19116959.012       -3001.986
     -2333.319
 -18384424.444 8 -14601004.961 8  17441103.635    17441106.424        -268.473
      -216.905
  -4767171.630 9  -3931976.464 9  18592378.492    18592380.440       -1580.183
     -1219.666
 -33313125.709 9   9726950.782 8  18386971.734    18386975.096        1165.891
       901.937
 88  3 21  6 10 32.0800000  0  4G 6G 9G11G13
   8734997.674 9  -4930109.912 8  19134153.883    19134157.193       -3020.814
     -2359.958
 -18375462.787 8 -14594021.878 8  17442811.162    17442812.035        -308.767
      -240.026
  -4719573.207 9  -3894886.772 9  18601436.027    18601438.509       -1582.288
     -1236.748
 -33347969.397 9   9699799.862 9  18380342.384    18380344.486        1151.968
       890.336
 88  3 21  6 11  2.0800000  0  4G 6G 9G11G13
   8825822.186 9  -4859337.581 9  19151436.815    19151440.229       -3045.000
     -2360.523
 -18365841.556 9 -14586524.821 7  17444642.246    17444642.358        -334.413
      -268.752
  -4671720.672 9  -3857599.073 9  18610541.793    18610544.956       -1596.825
     -1242.527
 -33382389.604 9   9672978.928 8  18373791.475    18373793.953        1141.059
       900.657
 88  3 21  6 11 32.0800000  0  4G 6G 9G11G13
   8917091.567 9  -4788218.596 7  19168805.157    19168808.322       -3068.811
     -2370.211
 -18355560.436 8 -14578513.585 7  17446596.416    17446599.244        -352.913
      -244.282
  -4623616.000 9  -3820114.925 8  18619695.353    18619698.857       -1609.297
     -1241.334
 -33416387.506 8   9646487.072 8  18367321.248    18367324.768        1141.968
       891.896
 88  3 21  6 12  2.0800000  0  4G 6G 9G11G13
   9008803.433 9  -4716754.831 9  19186256.455    19186260.736       -3075.542
     -2377.537
 -18344618.772 8 -14569987.626 7  17448680.148    17448682.933        -399.491
      -283.976
  -4575261.810 9  -3782436.342 9  18628896.803    18628899.903       -1611.617
     -1250.953
 -33449963.985 8   9620323.597 8  18360932.090    18360935.667        1115.174
       867.755
 88  3 21  6 12 32.0800000  0  4G 6G 9G11G13
   9100955.695 9  -4644947.899 8  19203792.448    19203796.353       -3079.082
     -2400.932
 -18333016.054 9 -14560946.537 7  17450887.647    17450889.343        -379.771
      -289.127
  -4526659.928 9  -3744564.738 9  18638146.176    18638148.361       -1627.462
     -1276.181
 -33483118.734 9   9594488.743 9  18354623.350    18354626.897        1103.691
       849.984
 88  3 21  6 13  2.0800000  0  4G 6G 9G11G13
   9193545.864 9  -4572799.750 8  19221412.051    19221415.306       -3085.374
     -2402.572
 -18320752.111 9 -14551390.220 7  17453221.139    17453223.943        -418.311
      -322.663
  -4477812.740 9  -3706501.992 9  18647441.382    18647444.187       -1630.979
     -1270.060
 -33515852.888 9   9568981.615 8  18348394.027    18348397.063        1071.985
       855.706
 88  3 21  6 13 32.0800000  0  4G 6G 9G11G13
   9286571.552 9  -4500312.241 8  19239114.943    19239117.397       -3098.779
     -2414.801
 -18307826.746 8 -14541318.524 7  17455681.372    17455683.415        -447.218
      -334.476
  -4428722.201 9  -3668249.633 9  18656781.273    18656786.086       -1643.642
     -1273.279
 -33548167.557 9   9543801.360 9  18342243.518    18342247.855        1058.811
       837.624
 88  3 21  6 14  2.0800000  0  4G 6G 9G11G13
   9380030.518 9  -4427487.107 8  19256899.988    19256902.270       -3125.860
     -2443.098
 -18294239.620 9 -14530731.170 8  17458267.446    17458267.964        -455.854
      -361.021
  -4379390.323 9  -3629809.220 8  18666169.870    18666172.568       -1662.279
     -1290.591
 -33580062.828 8   9518947.922 8  18336174.998    18336178.075        1056.219
       824.277
 88  3 21  6 14 32.0800000  0  4G 6G 9G11G13
   9473920.457 9  -4354326.133 9  19274766.131    19274768.626       -3128.547
     -2445.342
 -18279990.252 8 -14519627.775 8  17460978.658    17460980.563        -485.519
      -365.016
  -4329819.459 9  -3591182.583 9  18675602.827    18675606.512       -1657.789
     -1296.220
 -33611539.601 9   9494420.573 9  18330185.265    18330188.788        1037.504
       826.321
 88  3 21  6 15  2.0800000  0  4G 6G 9G11G13
   9568239.236 9  -4280831.002 9  19292715.057    19292718.032       -3148.627
     -2457.017
 -18265078.147 8 -14508007.951 7  17463816.816    17463818.199        -519.242
      -386.684
  -4280011.573 9  -3552371.235 9  18685081.529    18685084.432       -1651.170
     -1299.532
 -33642598.728 9   9470218.678 8  18324275.841    18324277.557        1041.156
       804.169
 88  3 21  6 15 32.0800000  0  4G 6G 9G11G13
   9662984.327 9  -4207003.680 9  19310743.986    19310746.978       -3173.746
     -2464.337
 -18249503.382 8 -14495871.789 6  17466780.296    17466782.132        -546.818
      -398.608
  -4229968.525 9  -3513376.658 9  18694604.171    18694607.525       -1665.668
     -1289.522
 -33673240.756 9   9446341.791 9  18318443.967    18318447.299        1019.394
       784.981
 88  3 21  6 16  2.0800000  0  4G 6G 9G11G13
   9758153.416 9  -4132845.976 8  19328853.223    19328856.589       -3170.923
     -2488.005
 -18233265.521 8 -14483218.931 8  17469869.370    17469871.563        -536.937
      -424.631
  -4179692.310 9  -3474200.379 9  18704172.413    18704174.644       -1696.999
     -1308.107
 -33703466.019 9   9422789.640 9  18312691.648    18312696.160         992.130
       801.584
 88  3 21  6 16 32.0800000  0  4G 6G 9G11G13
   9853744.060 9  -4058359.795 8  19347044.144    19347047.227       -3188.570
     -2484.743
 -18216364.573 8 -14470049.373 6  17473085.570    17473086.726        -547.152
      -425.222
  -4129185.660 9  -3434844.547 9  18713782.530    18713785.999       -1700.141
     -1305.062
 -33733275.762 9   9399561.286 8  18307019.891    18307023.812         990.710
       770.130
 88  3 21  6 17  2.0800000  0  4G 6G 9G11G13
   9949753.577 9  -3983547.219 9  19365314.923    19365317.341       -3199.726
     -2492.653
 -18198800.443 8 -14456363.045 7  17476428.316    17476430.080        -593.986
      -455.961
  -4078450.462 9  -3395310.637 9  18723437.264    18723439.947       -1678.610
     -1313.401
 -33762670.408 9   9376656.390 8  18301425.469    18301430.062         975.527
       766.414
 88  3 21  6 17 32.0800000  0  4G 6G 9G11G13
  10046179.831 9  -3908409.909 9  19383663.575    19383666.601       -3214.296
     -2502.260
 -18180572.968 8 -14442159.831 7  17479896.619    17479899.339        -606.705
      -479.456
  -4027488.557 9  -3355600.063 9  18733134.977    18733138.762       -1708.984
     -1324.226
 -33791650.642 9   9354074.395 8  18295911.970    18295913.918         953.685
       756.609
 88  3 21  6 18  2.0800000  0  4G 6G 9G11G13
  10143020.162 9  -3832949.939 9  19402091.064    19402094.821       -3240.643
     -2512.792
 -18161682.144 8 -14427439.737 7  17483492.664    17483493.783        -676.465
      -500.800
  -3976302.154 9  -3315714.559 9  18742875.252    18742878.883       -1725.627
     -1324.611
 -33820217.989 9   9331814.136 8  18290475.482    18290477.986         945.687
       731.692
 88  3 21  6 18 32.0800000  0  4G 6G 9G11G13
  10240271.987 9  -3757169.322 9  19420598.834    19420601.158       -3236.217
     -2527.208
 -18142128.035 8 -14412202.796 6  17487213.328    17487214.148        -676.712
      -521.262
  -3924893.729 9  -3275656.051 9  18752657.970    18752660.891       -1704.120
     -1344.700
 -33848373.245 8   9309874.983 8  18285117.722    18285120.756         928.861
       714.902
 88  3 21  6 19  2.0800000  0  4G 6G 9G11G13
  10337933.041 9  -3681069.828 9  19439182.873    19439186.122       -3264.590
     -2534.615
 -18121910.498 8 -14396448.873 7  17491059.558    17491062.422        -668.403
      -525.674
  -3873265.074 9  -3235425.930 9  18762482.869    18762484.904       -1717.038
     -1339.928
 -33876116.539 9   9288256.849 9  18279838.501    18279841.093         914.890
       725.086
 88  3 21  6 19 32.0800000  0  4G 6G 9G11G13
  10436000.890 9  -3604653.339 8  19457844.859    19457847.134       -3271.623
     -2540.437
 -18101029.604 7 -14380178.055 7  17495032.253    17495035.624        -708.107
      -544.135
  -3821418.218 9  -3195025.780 9  18772348.604    18772352.655       -1729.096
     -1334.652
 -33903448.878 9   9266958.935 9  18274636.975    18274640.840         894.938
       705.948
 88  3 21  6 20  2.0800000  0  4G 6G 9G11G13
  10534472.935 9  -3527921.886 9  19476584.074    19476586.356       -3281.161
     -2554.704
 -18079485.044 8 -14363390.121 7  17499132.041    17499135.188        -725.579
      -573.949
  -3769354.925 9  -3154456.994 9  18782256.566    18782259.519       -1723.482
     -1360.396
 -33930371.425 8   9245980.330 8  18269513.144    18269516.193         891.214
       696.590
 88  3 21  6 20 32.0800000  0  4G 6G 9G11G13
  10633346.902 9  -3450877.268 9  19495398.097    19495400.931       -3301.479
     -2569.555
 -18057277.179 8 -14346085.289 7  17503359.018    17503361.302        -761.479
      -584.158
  -3717077.522 9  -3113721.350 9  18792203.415    18792207.240       -1747.532
     -1352.486
 -33956884.644 9   9225320.684 9  18264467.874    18264472.039         871.198
       683.883
 88  3 21  6 21  2.0800000  0  4G 6G 9G11G13
  10732620.013 9  -3373521.621 9  19514289.247    19514292.446       -3321.455
     -2581.591
 -18034406.065 8 -14328263.655 7  17507710.938    17507713.499        -775.801
      -602.228
  -3664588.266 9  -3072820.647 9  18802191.646    18802196.306       -1742.740
     -1367.791
 -33982989.824 9   9204978.994 9  18259500.728    18259503.808         864.006
       688.512
 88  3 21  6 21 32.0800000  0  4G 6G 9G11G13
  10832289.695 9  -3295856.958 9  19533255.337    19533258.434       -3320.594
     -2589.812
 -18010871.817 7 -14309925.302 7  17512190.511    17512191.925        -794.413
      -620.844
  -3611889.118 9  -3031756.373 9  18812220.656    18812224.218       -1759.653
     -1373.290
 -34008686.859 8   9184955.344 9  18254611.142    18254614.719         869.811
       675.184
 88  3 21  6 22  2.0800000  0  4G 6G 9G11G13
  10932353.544 9  -3217885.168 9  19552297.048    19552299.785       -3330.330
     -2612.045
 -17986674.768 8 -14291070.463 7  17516794.130    17516795.722        -809.652
      -658.077
  -3558981.803 9  -2990529.898 9  18822288.693    18822292.246       -1780.179
     -1363.217
 -34033977.788 9   9165248.146 9  18249797.964    18249801.897         851.446
       654.753
 88  3 21  6 22 32.0800000  0  4G 6G 9G11G13
  11032809.122 9  -3139608.111 9  19571413.381    19571416.179       -3362.172
     -2620.893
 -17961815.004 8 -14271699.230 7  17521524.356    17521527.084        -849.907
      -643.903
  -3505868.554 9  -2949142.972 8  18832395.034    18832399.425       -1775.770
     -1369.251
 -34058863.069 8   9145857.017 8  18245061.625    18245065.229         831.183
       641.287
 88  3 21  6 23  2.0800000  0  4G 6G 9G11G13
  11133653.732 9  -3061027.908 9  19590602.919    19590605.573       -3373.177
     -2623.205
 -17936292.589 9 -14251811.643 7  17526381.991    17526383.547        -861.924
      -671.760
  -3452551.452 9  -2907597.182 9  18842542.643    18842545.187       -1776.328
     -1381.734
 -34083343.419 9   9126781.423 8  18240403.555    18240406.976         814.788
       643.885
 88  3 21  6 23 32.0800000  0  4G 6G 9G11G13
  11234884.715 9  -2982146.643 9  19609866.694    19609870.014       -3394.221
     -2641.865
 -17910108.100 9 -14231408.147 8  17531364.512    17531367.481        -877.291
      -687.294
  -3399032.669 9  -2865894.246 9  18852725.715    18852729.890       -1784.486
     -1387.743
 -34107419.822 9   9108020.600 8  18235823.158    18235825.776         791.391
       618.719
 88  3 21  6 24  2.0800000  0  4G 6G 9G11G13
  11336499.598 9  -2902966.227 9  19629203.137    19629206.593       -3395.306
     -2640.864
 -17883261.233 8 -14210488.523 8  17536474.595    17536475.433        -916.557
      -703.425
  -3345314.229 9  -2824035.724 9  18862948.084    18862952.112       -1796.965
     -1378.553
 -34131093.362 9   9089573.695 8  18231316.876    18231320.310         768.449
       600.388
 88  3 21  6 24 32.0800000  0  4G 6G 9G11G13
  11438495.687 9  -2823488.778 8  19648612.969    19648615.815       -3407.514
     -2658.847
 -17855752.939 9 -14189053.505 7  17541707.913    17541710.409        -919.507
      -720.091
  -3291398.136 9  -2782023.185 9  18873208.472    18873210.902       -1790.068
     -1393.541
 -34154364.988 9   9071439.983 9  18226888.532    18226891.924         764.605
       602.607
 88  3 21  6 25  2.0800000  0  4G 6G 9G11G13
  11540870.368 9  -2743716.320 9  19668092.843    19668096.411       -3412.921
     -2664.154
 -17827583.366 8 -14167103.189 7  17547068.620    17547070.423        -942.218
      -751.402
  -3237285.953 9  -2739857.844 9  18883506.025    18883508.789       -1801.439
     -1407.167
 -34177235.733 9   9053618.634 9  18222537.705    18222540.038         753.561
       591.086
 88  3 21  6 25 32.0800000  0  4G 6G 9G11G13
  11643621.065 9  -2663650.869 9  19687646.922    19687649.676       -3430.209
     -2668.479
 -17798752.905 8 -14144637.907 7  17552554.870    17552557.973        -963.063
      -771.472
  -3182979.741 9  -2697541.320 9  18893839.143    18893842.377       -1816.072
     -1417.016
 -34199706.984 9   9036108.587 8  18218260.405    18218263.825         726.727
       571.848
 88  3 21  6 26  2.0800000  0  4G 6G 9G11G13
  11746744.942 9  -2583294.614 8  19707271.037    19707273.930       -3427.937
     -2666.179
 -17769262.012 9 -14121658.010 7  17558166.168    17558168.476        -979.490
      -782.912
  -3128481.899 9  -2655075.478 8  18904211.052    18904214.177       -1809.876
     -1415.680
 -34221779.436 9   9018909.277 9  18214061.516    18214063.590         740.323
       573.532
 88  3 21  6 26 32.0800000  0  4G 6G 9G11G13
  11850239.502 6  -2502649.524 7  19726965.367    19726967.743       -3460.631
     -2700.119
 -17739111.071 8 -14098163.792 7  17563903.593    17563906.372       -1013.022
      -779.202
  -3073794.668 9  -2612462.063 9  18914617.147    18914620.677       -1816.933
     -1424.504
 -34243453.879 5   9002020.107 5  18209935.994    18209938.386         707.493
       554.841
 88  3 21  6 27  2.0800000  0  4G 6G 9G11G13
  11954101.941 9  -2421717.784 9  19746729.617    19746732.487       -3465.823
     -2705.606
 -17708300.742 8 -14074155.753 7  17569766.436    17569770.207       -1022.608
      -801.615
  -3018919.980 9  -2569702.584 9  18925060.062    18925062.206       -1826.335
     -1422.596
 -34264731.631 9   8985440.062 8  18205886.893    18205890.027         702.557
       549.591
 88  3 21  6 27 32.0800000  0  4G 6G 9G11G13
  12058329.613 9  -2340501.447 9  19766562.929    19766566.748       -3480.663
     -2709.813
 -17676831.676 8 -14049634.430 8  17575754.667    17575757.793       -1050.486
      -816.659
 -60907330.675 9  -2472075.498 1                                     -1837.563
      -466.463
 -34285613.385 9   8969168.568 8  18201913.226    18201916.056         692.637
       547.329
 88  3 21  6 28  2.0800000  0  4G 6G 9G11G13
  12162919.750 9  -2259002.669 9  19786466.848    19786470.249       -3476.795
     -2715.890
 -17644704.030 9 -14024599.906 7  17581869.992    17581869.813       -1068.907
      -844.745
 -60852086.708 9  77324091.788 9  18946049.198    18946052.415       -1834.246
     -1425.107
 -34306100.720 9   8953204.429 7  18198014.247    18198018.129         684.351
       526.954
 88  3 21  6 28 32.0800000  0  4G 6G 9G11G13
  12267869.372 9  -2177223.763 9  19806437.566    19806440.604       -3509.889
     -2733.549
 -17611918.891 8 -13999053.056 7  17588108.019    17588111.127       -1114.536
      -861.175
 -60796661.019 9  77367280.641 9  18956597.508    18956599.797       -1851.590
     -1435.254
 -34326194.901 9   8937546.648 8  18194189.933    18194194.447         673.586
       529.222
 88  3 21  6 29  2.0800000  0  4G 6G 9G11G13
  12373176.189 9  -2095166.533 9  19826476.548    19826480.851       -3515.017
     -2740.198
 -17578476.595 8 -13972994.136 7  17594472.427    17594474.155       -1114.305
      -854.961
 -60741055.550 9  77410609.566 8  18967177.817    18967181.345       -1849.046
     -1448.458
 -34345895.910 9   8922195.227 8  18190441.577    18190444.659         644.312
       514.458
 88  3 21  6 29 32.0800000  0  4G 6G 9G11G13
  12478837.438 9  -2012833.108 9  19846582.294    19846587.496       -3516.037
     -2756.000
 -17544377.768 8 -13946423.636 8  17600960.792    17600962.918       -1140.548
      -885.421
 -60685272.633 9  77454076.765 8  18977792.405    18977796.320       -1867.626
     -1464.483
 -34365205.797 9   8907148.570 8  18186767.275    18186769.476         633.842
       492.119
 88  3 21  6 30  2.0800000  0  4G 6G 9G11G13
  12584850.472 9  -1930225.568 9  19866756.906    19866760.247       -3545.670
     -2758.262
 -17509622.714 8 -13919341.794 7  17607574.875    17607576.915       -1154.352
      -899.265
 -60629314.091 9  77497680.812 9  18988441.337    18988444.412       -1873.431
     -1454.057
 -34384125.294 9   8892406.103 7  18183166.330    18183169.738         631.250
       482.239
 88  3 21  6 30 32.0800000  0  4G 6G 9G11G13
  12691212.195 9  -1847346.319 9  19886997.597    19887000.175       -3558.134
     -2756.857
 -17474212.834 8 -13891749.689 7  17614313.851    17614314.727       -1182.493
      -911.798
 -60573181.888 9  77541420.185 9  18999123.064    18999126.996       -1872.291
     -1453.659
 -34402655.354 9   8877967.110 8  18179640.419    18179643.823         602.518
       475.864
 88  3 21  6 31  2.0800000  0  4G 6G 9G11G13
  12797920.010 9  -1764197.382 9  19907303.726    19907306.054       -3572.400
     -2769.732
 -17438148.338 9 -13863647.492 8  17621176.706    17621177.514       -1215.738
      -943.892
 -60516877.794 9  77585293.498 9  19009837.699    19009840.419       -1870.991
     -1466.602
 -34420797.138 9   8863830.667 7  18176187.892    18176190.327         574.473
       483.811
 88  3 21  6 31 32.0800000  0  4G 6G 9G11G13
  12904971.185 8  -1680780.894 9  19927673.983    19927678.195       -3556.794
     -2773.237
 -17401430.347 8 -13835036.099 7  17628162.692    17628166.169       -1210.699
      -964.019
 -60460404.055 9  77629299.008 9  19020584.343    19020586.908       -1878.990
     -1467.652
 -34438552.502 9   8849995.329 8  18172809.891    18172812.210         578.149
       459.248
 88  3 21  6 32  2.0800000  0  4G 6G 9G11G13
  13012363.111 9  -1597098.883 9  19948109.948    19948113.289       -3583.381
     -2791.449
 -17364059.125 8 -13805915.693 8  17635275.156    17635277.827       -1257.301
      -978.628
 -60403762.025 9  77673435.655 8  19031362.563    19031366.492       -1897.131
     -1483.522
 -34455921.959 9   8836460.682 7  18169504.839    18169507.333         584.791
       447.964
 88  3 21  6 32 32.0800000  0  4G 6G 9G11G13
  13120092.920 9  -1513153.581 9  19968610.031    19968613.579       -3590.263
     -2811.290
 -17326035.807 9 -13776287.159 7  17642509.787    17642512.602       -1265.929
      -985.556
 -60346953.808 9  77717701.792 9  19042173.171    19042175.502       -1890.895
     -1467.211
 -34472906.546 9   8823225.953 9  18166272.233    18166275.446         571.490
       441.458
 88  3 21  6 33  2.0800000  0  4G 6G 9G11G13
  13228157.946 9  -1428947.078 9  19989174.610    19989177.974       -3593.715
     -2809.146
 -17287361.056 9 -13746151.013 7  17649868.832    17649872.154       -1292.715
     -1011.287
 -60289981.290 9  77762095.957 9  19053014.291    19053017.640       -1894.611
     -1482.677
 -34489507.563 9   8810290.106 8  18163114.444    18163115.672         541.547
       412.198
 88  3 21  6 33 32.0800000  0  4G 6G 9G11G13
  13336555.390 9  -1344481.563 9  20009801.803    20009805.438       -3603.931
     -2826.650
 -17248035.827 8 -13715507.986 8  17657353.572    17657355.042       -1309.955
     -1036.882
 -60232846.364 9  77806616.675 9  19063885.993    19063890.525       -1899.803
     -1482.224
 -34505726.060 9   8797652.309 8  18160028.188    18160030.161         535.677
       413.583
 88  3 21  6 34  2.0800000  0  4G 6G 9G11G13
  13445282.286 9  -1259759.320 9  20030491.568    20030494.555       -3634.664
     -2814.130
 -17208061.074 9 -13684358.842 7  17664959.445    17664962.356       -1317.140
     -1052.839
 -60175551.280 9  77851262.181 9  19074788.734    19074792.789       -1901.844
     -1499.169
 -34521563.181 9   8785311.709 7  18157014.120    18157016.724         508.660
       422.643
 88  3 21  6 34 32.0800000  0  4G 6G 9G11G13
  13554335.752 8  -1174782.616 9  20051242.756    20051247.052       -3633.133
     -2831.795
 -17167437.743 9 -13652704.324 8  17672689.458    17672692.008       -1368.288
     -1071.356
 -60118097.799 9  77896031.108 9  19085721.902    19085726.530       -1924.435
     -1490.196
 -34537020.583 9   8773266.985 9  18154071.823    18154073.407         502.727
       398.117
 88  3 21  6 35  2.0800000  0  4G 6G 9G11G13
  13663713.150 9  -1089553.495 8  20072057.691    20072061.158       -3654.560
     -2847.933
 -17126166.600 9 -13620545.008 8  17680543.690    17680546.737       -1388.678
     -1084.486
 -60060487.691 9  77940922.099 9  19096685.711    19096689.675       -1910.209
     -1498.814
 -34552099.134 9   8761517.474 8  18151202.603    18151204.033         512.336
       379.233
 88  3 21  6 35 32.0800000  0  4G 6G 9G11G13
  13773411.786 9  -1004074.033 8  20092932.805    20092935.858       -3661.968
     -2848.902
 -17084248.677 9 -13587881.717 8  17688521.368    17688523.836       -1388.327
     -1094.689
 -60002722.504 9  77985933.922 9  19107678.485    19107680.947       -1923.303
     -1507.943
 -34566799.728 9   8750062.466 8  18148405.339    18148407.958         482.385
       401.696
 88  3 21  6 36  2.0800000  0  4G 6G 9G11G13
  13883428.665 9   -918346.612 9  20113867.528    20113871.564       -3665.564
     -2866.170
 -17041685.175 9 -13554715.375 8  17696619.827    17696621.886       -1416.070
     -1120.501
 -59944804.649 9  78031064.707 9  19118699.316    19118702.927       -1929.722
     -1502.518
 -34581123.752 9   8738900.904 8  18145679.454    18145681.049         478.079
       376.506
 88  3 21  6 36 32.0800000  0  4G 6G 9G11G13
  13993760.989 9   -832373.390 9  20134864.374    20134867.285       -3689.368
     -2868.562
 -16998476.772 9 -13521046.511 8  17704842.069    17704845.047       -1450.910
     -1134.127
 -59886735.695 9  78076313.238 8  19129749.483    19129752.926       -1935.017
     -1513.665
 -34595072.478 9   8728031.770 8  18143025.369    18143027.828         454.666
       360.083
 88  3 21  6 37  2.0800000  0  4G 6G 9G11G13
  14104405.946 9   -746156.562 9  20155919.933    20155921.244       -3696.154
     -2867.550
 -16954624.980 9 -13486876.296 8  17713187.787    17713189.984       -1477.457
     -1161.164
 -59828517.638 9  78121677.969 9  19140828.177    19140831.961       -1929.475
     -1516.244
 -34608647.266 9   8717454.021 7  18140442.862    18140444.182         450.607
       342.019
 88  3 21  6 37 32.0800000  0  4G 6G 9G11G13
  14215360.338 9   -659698.611 9  20177033.160    20177035.380       -3697.645
     -2885.924
 -16910130.845 9 -13452205.560 8  17721654.285    17721657.326       -1494.442
     -1161.269
 -59770152.760 9  78167157.084 9  19151934.348    19151938.681       -1948.869
     -1513.647
 -34621849.721 9   8707166.397 8  18137930.499    18137931.936         424.810
       332.145
 88  3 21  6 38  2.0800000  0  4G 6G 9G11G13
  14326621.630 9   -573001.523 9  20198205.908    20198208.358       -3706.864
     -2892.274
 -16864995.340 9 -13417035.049 7  17730243.135    17730244.124       -1507.791
     -1149.612
 -59711642.292 9  78212749.645 9  19163068.939    19163072.559       -1938.159
     -1523.663
 -34634680.260 9   8697168.573 8  18135487.977    18135491.008         416.836
       328.554
 88  3 21  6 38 32.0800000  0  4G 6G 9G11G13
  14438186.915 9   -486067.551 8  20219436.018    20219438.740       -3731.967
     -2911.239
 -16819219.689 9 -13381365.726 7  17738954.735    17738956.577       -1528.174
     -1204.151
 -59652988.292 9  78258454.058 9  19174229.026    19174233.732       -1958.047
     -1519.798
 -34647140.508 9   8687459.297 8  18133117.607    18133119.226         401.333
       311.056
 88  3 21  6 39  2.0800000  0  4G 6G 9G11G13
  14550053.257 8   -398898.985 8  20240722.684    20240726.562       -3719.862
     -2913.550
 -16772805.132 9 -13345198.552 8  17747786.747    17747788.764       -1556.052
     -1199.006
 -59594192.360 9  78304269.058 9  19185417.641    19185421.993       -1966.094
     -1533.494
 -34659232.299 9   8678037.125 8  18130815.241    18130818.712         401.333
       297.833
 88  3 21  6 39 32.0800000  0  4G 6G 9G11G13
  14662217.848 9   -311498.014 9  20262067.767    20262070.987       -3741.185
     -2928.954
 -16725752.933 9 -13308534.537 9  17756740.129    17756742.502       -1569.672
     -1223.022
 -59535256.306 9  78350193.241 9  19196633.320    19196637.311       -1962.561
     -1541.646
 -34670956.483 9   8668901.412 8  18128584.637    18128587.258         386.629
       301.083
 88  3 21  6 40  2.0800000  0  4G 6G 9G11G13
  14774677.890 9   -223866.837 8  20283467.755    20283470.814       -3739.184
     -2940.562
 -16678064.017 9 -13271374.348 8  17765815.738    17765817.091       -1592.463
     -1237.425
 -59476182.091 9  78396225.096 9  19207876.054    19207877.765       -1980.543
     -1528.268
 -34682313.976 9   8660051.432 8  18126423.083    18126426.273         366.908
       274.823
 88  3 21  6 40 32.0800000  0  4G 6G 9G11G13
  14887430.335 9   -136007.810 9  20304923.090    20304927.142       -3759.303
     -2933.291
 -16629740.140 8 -13233719.409 7  17775011.203    17775013.071       -1628.172
     -1268.010
 -59416971.848 9  78442362.952 9  19219143.532    19219145.724       -1974.203
     -1542.560
 -34693306.311 9   8651485.973 8  18124331.174    18124334.100         364.500
       276.296
 88  3 21  6 41  2.0800000  0  4G 6G 9G11G13
  15000471.932 9    -47923.473 8  20326434.114    20326438.094       -3769.199
     -2947.074
 -16580782.571 8 -13195570.685 8  17784327.789    17784329.153       -1638.068
     -1268.712
 -59357627.140 9  78488605.582 8  19230436.261    19230439.408       -1978.007
     -1557.149
 -34703934.963 9   8643203.910 7  18122309.039    18122311.076         339.221
       286.480
 88  3 21  6 41 32.0800000  0  4G 6G 9G11G13
  15113800.305 8     40384.329 8  20347999.866    20348003.850       -3783.465
     -2944.271
 -16531192.296 9 -13156928.940 7  17793764.170    17793766.361       -1647.622
     -1289.733
 -59298149.630 9  78534951.690 9  19241753.727    19241757.508       -1964.411
     -1534.525
 -34714200.857 9   8635204.508 8  18120354.371    18120359.077         352.427
       271.542
 88  3 21  6 42  2.0800000  0  4G 6G 9G11G13
  15227412.086 8    128912.951 8  20369618.935    20369623.723       -3791.456
     -2941.369
 -16480971.072 8 -13117795.527 8  17803320.168    17803323.601       -1686.122
     -1318.285
 -59238541.393 9  78581399.670 9  19253097.858    19253099.896       -1995.455
     -1546.741
 -34724106.216 9   8627486.052 8  18118470.288    18118473.442         326.095
       264.241
 88  3 21  6 42 32.0800000  0  4G 6G 9G11G13
  15341304.578 8    217660.317 9  20391292.406    20391295.354       -3791.464
     -2969.393
 -16430120.128 9 -13078171.434 9  17812997.490    17812999.382       -1701.568
     -1335.821
 -59178803.903 9  78627948.362 9  19264464.929    19264468.284       -2000.479
     -1550.544
 -34733652.503 9   8620047.405 8  18116654.345    18116656.007         320.386
       241.747
 88  3 21  6 43  2.0800000  0  4G 6G 9G11G13
  15455474.654 9    306623.978 8  20413017.968    20413021.681       -3827.364
     -2978.192
 -16378640.943 9 -13038057.813 7  17822793.929    17822797.362       -1732.907
     -1350.765
 -59118939.267 9  78674596.115 9  19275855.921    19275859.763       -2008.230
     -1556.721
 -34742840.147 9   8612888.216 9  18114905.547    18114908.140         301.447
       228.120
 88  3 21  6 43 32.0800000  0  4G 6G 9G11G13
  15569919.511 9    395801.767 8  20434797.466    20434800.243       -3821.910
     -2985.083
 -16326535.019 9 -12997455.809 8  17832709.550    17832711.153       -1744.885
     -1362.509
 -59058948.837 9  78721341.896 9  19287272.748    19287275.601       -2008.222
     -1561.667
 -34751670.646 8   8606007.315 8  18113225.216    18113227.651         291.534
       225.753
 88  3 21  6 44  2.0800000  0  4G 6G 9G11G13
  15684636.076 9    485191.253 8  20456626.586    20456630.195       -3823.329
     -2980.522
 -16273803.984 9 -12956366.712 7  17842744.285    17842745.124       -1752.237
     -1395.193
 -58998834.529 9  78768184.204 8  19298711.974    19298714.917       -1997.592
     -1562.493
 -34760145.626 9   8599403.445 8  18111613.115    18111614.568         285.554
       214.966
 88  3 21  6 44 32.0800000  0  4G 6G 9G11G13
  15799621.771 9    574790.468 8  20478507.651    20478510.687       -3836.080
     -2992.111
 -16220448.727 9 -12914791.217 8  17852897.082    17852899.017       -1789.940
     -1387.184
 -58938598.011 9  78815121.748 9  19310175.023    19310177.576       -1995.631
     -1572.671
 -34768265.742 9   8593076.086 8  18110066.428    18110070.277         276.551
       204.334
 88  3 21  6 45  2.0800000  0  4G 6G 9G11G13
  15914873.755 8    664597.193 8  20500439.259    20500442.857       -3846.319
     -2995.547
 -16166470.999 9 -12872730.662 8  17863169.175    17863170.299       -1803.066
     -1401.034
 -58878240.707 9  78862153.407 9  19321660.637    19321663.492       -2014.841
     -1575.319
 -34776032.509 9   8587024.062 8  18108588.774    18108592.812         267.851
       208.653
 88  3 21  6 45 32.0800000  0  4G 6G 9G11G13
  16030388.583 8    754608.755 9  20522421.133    20522424.546       -3852.204
     -2993.820
 -16111872.735 9 -12830186.584 8  17873558.302    17873560.061       -1831.271
     -1432.507
 -58817764.779 9  78909277.500 9  19333168.437    19333171.444       -2023.094
     -1579.637
 -34783448.155 9   8581245.662 8  18107177.873    18107181.306         251.615
       184.183
 88  3 21  6 46  2.0800000  0  3G 6G 9G11
  16146163.685 8    844823.126 9  20544452.799    20544456.655       -3854.357
     -2996.697
 -16056655.106 9 -12787159.871 8  17884065.546    17884068.441       -1845.904
     -1447.153
 -67627200.000 1  85661120.000 1

 88  3 21  6 47  2.0800000  0  4G 6G 9G11G13
  16378482.427 9   1025850.682 9  20588660.913    20588664.611       -3883.647
     -3018.824
 -15944368.483 8 -12699663.841 7  17905433.825    17905435.508       -1883.232
     -1478.352
 -58635641.129 9  79051192.050 9  19367825.969    19367829.111       -2034.282
     -1590.940
 -34803598.981 9   8565543.749 8  18103342.823    18103346.640         202.796
       172.774
 88  3 21  6 47 32.0800000  0  4G 6G 9G11G13
  16495019.869 9   1116659.052 9  20610838.450    20610842.321       -3890.489
     -3024.385
 -15887303.021 9 -12655197.253 8  17916291.264    17916294.738       -1910.329
     -1474.208
 -58574707.332 9  79098672.911 9  19379420.954    19379423.962       -2025.407
     -1580.687
 -34809621.971 9   8560850.514 8  18102197.714    18102200.298         199.120
       149.367
 88  3 21  6 48  2.0800000  0  4G 6G 9G11G13
  16611805.509 9   1207660.834 9  20633061.510    20633064.937       -3894.070
     -3029.015
 -15829625.129 9 -12610253.461 8  17927267.952    17927269.936       -1916.222
     -1488.941
 -58513663.227 9  79146239.729 9  19391037.115    19391040.239       -2043.006
     -1589.703
 -34815300.639 9   8556425.593 9  18101116.950    18101119.667         182.884
       147.248
 88  3 21  6 48 32.0800000  0  4G 6G 9G11G13
  16728836.651 9   1298853.930 8  20655332.342    20655335.310       -3914.197
     -3044.543
 -15771335.985 9 -12564833.373 8  17938358.659    17938360.902       -1949.188
     -1519.960
 -58452510.403 9  79193891.279 9  19402673.317    19402677.221       -2031.459
     -1578.450
 -34820635.962 9   8552268.220 8  18100101.936    18100104.070         189.511
       138.965
 88  3 21  6 49  2.0800000  0  4G 6G 9G11G13
  16846109.801 9   1390235.598 8  20677647.697    20677652.394       -3903.344
     -3044.630
 -15712437.833 9 -12518938.732 8  17949567.530    17949570.403       -1974.754
     -1541.379
 -58391250.594 9  79241626.194 9  19414330.606    19414333.697       -2048.939
     -1584.124
 -34825629.537 9   8548377.127 8  18099151.384    18099154.006         173.434
       119.367
 88  3 21  6 49 32.0800000  0  4G 6G 9G11G13
  16963622.113 8   1481803.627 8  20700009.679    20700012.973       -3903.854
     -3045.954
 -15652932.346 8 -12472570.841 7  17960890.934    17960892.250       -1995.447
     -1557.808
 -58329885.454 8  79289443.176 8  19426009.579    19426011.744       -2053.413
     -1596.713
 -34830283.468 9   8544750.690 8  18098265.511    18098268.648         161.034
       114.781
 88  3 21  6 50  2.0800000  0  4G 6G 9G11G13
  17081370.715 9   1573555.756 9  20722415.881    20722420.193       -3924.372
     -3056.536
 -15592821.243 9 -12425731.035 8  17972329.728    17972332.660       -1998.788
     -1559.101
 -58268416.430 9  79337341.114 9  19437705.831    19437708.856       -2051.172
     -1590.151
 -34834598.379 9   8541388.425 8  18097445.190    18097447.463         132.023
       108.431
 88  3 21  6 50 32.0800000  0  4G 6G 9G11G13
  17199352.309 8   1665489.419 9  20744865.481    20744871.748       -3906.310
     -3058.810
 -15532106.504 9 -12378420.885 7  17983882.927    17983885.012       -2027.408
     -1565.780
 -58206845.521 9  79385318.439 9  19449422.843    19449425.064       -2055.925
     -1596.880
 -34838576.039 9   8538288.967 8  18096687.663    18096690.208         127.853
        89.305
 88  3 21  6 51  2.0800000  0  4G 6G 9G11G13
  17317564.146 8   1757602.501 9  20767362.800    20767366.369       -3951.740
     -3074.947
 -15470789.803 9 -12330641.656 8  17995552.343    17995554.440       -2066.738
     -1607.195
 -58145174.116 9  79433374.078 9  19461158.069    19461161.447       -2060.685
     -1596.650
 -34842217.290 9   8535451.633 8  18095994.914    18095997.236         125.325
        88.006
 88  3 21  6 51 32.0800000  0  4G 6G 9G11G13
  17436003.260 9   1849892.685 9  20789901.855    20789905.296       -3956.286
     -3073.785
 -15408872.971 9 -12282394.801 8  18007334.225    18007337.654       -2093.229
     -1613.316
 -58083403.771 9  79481506.809 9  19472911.654    19472915.821       -2067.751
     -1613.303
 -34845523.877 9   8532875.098 8  18095366.576    18095368.077         111.976
        84.949
 88  3 21  6 52  2.0800000  0  4G 6G 9G11G13
  17554666.497 9   1942357.528 8  20812482.930    20812485.165       -3956.030
     -3086.182
 -15346358.268 8 -12233682.068 8  18019230.847    18019233.055       -2091.730
     -1640.135
 -58021536.388 9  79529715.161 9  19484684.894    19484688.568       -2056.674
     -1605.201
 -34848497.712 9   8530557.837 8  18094799.188    18094802.278         113.244
        76.902
 88  3 21  6 52 32.0800000  0  4G 6G 9G11G13
  17673550.892 8   2034994.712 8  20835105.153    20835108.137       -3980.910
     -3089.804
 -15283247.252 9 -12184504.670 8  18031240.841    18031243.501       -2116.330
     -1664.331
 -57959573.286 9  79577998.090 9  19496476.496    19496479.509       -2068.452
     -1619.784
 -34851140.249 9   8528498.727 8  18094296.800    18094300.046          96.833
        71.340
 88  3 21  6 53  2.0800000  0  4G 6G 9G11G13
  17792653.554 9   2127801.969 9  20857768.894    20857773.004       -3966.939
     -3095.030
 -15219541.981 9 -12134864.214 9  18043363.279    18043366.059       -2137.088
     -1674.149
 -57897515.650 8  79626354.664 9  19508286.442    19508289.161       -2092.033
     -1617.262
 -34853452.170 9   8526697.227 8  18093857.411    18093859.985          69.138
        52.457
 88  3 21  6 53 32.0800000  0  4G 6G 9G11G13
  17911971.590 9   2220777.041 9  20880475.655    20880478.308       -3977.059
     -3096.608
 -15155244.212 9 -12084762.062 7  18055598.916    18055600.838       -2143.906
     -1681.226
 -57835365.489 9  79674783.353 9  19520113.235    19520115.701       -2067.535
     -1607.643
 -34855435.545 9   8525151.737 8  18093479.577    18093482.733          63.906
        41.806
 88  3 21  6 54  2.0800000  0  4G 6G 9G11G13
  18031501.693 9   2313917.386 8  20903221.083    20903223.993       -3984.874
     -3100.591
 -15090356.085 9 -12034199.903 7  18067946.665    18067948.269       -2172.486
     -1698.737
 -57773124.528 9  79723282.801 9  19531957.491    19531959.948       -2079.130
     -1619.623
 -34857091.873 9   8523861.101 8  18093163.270    18093166.935          49.313
        39.520
 88  3 21  6 54 32.0800000  0  4G 6G 9G11G13
  18151241.007 9   2407220.781 8  20926006.943    20926010.337       -3992.122
     -3114.373
 -15024879.676 9 -11983179.356 8  18080407.009    18080408.575       -2186.202
     -1698.880
 -57710793.661 9  79771852.304 9  19543819.870    19543821.148       -2071.507
     -1609.936
 -34858422.244 9   8522824.456 7  18092909.921    18092914.035          42.033
        37.339
 88  3 21  6 55  2.0800000  0  4G 6G 9G11G13
  18271186.355 9   2500684.715 7  20948831.875    20948834.053       -4000.615
     -3125.962
 -14958817.120 9 -11931702.054 8  18092978.322    18092979.016       -2212.980
     -1719.565
 -57648374.769 8  79820490.398 9  19555696.830    19555698.899       -2085.135
     -1631.659
 -34859428.628 9   8522040.263 8  18092718.978    18092721.488          21.770
        18.933
 88  3 21  6 55 32.0800000  0  4G 6G 9G11G13
  18391334.490 9   2594306.661 7  20971695.009    20971697.989       -3994.283
     -3117.014
 -14892170.713 9 -11879769.795 7  18105660.423    18105662.872       -2235.730
     -1732.136
 -57585870.015 8  79869195.383 9  19567589.700    19567592.981       -2084.194
     -1622.338
 -34860112.283 9   8521507.557 8  18092589.083    18092592.466           8.820
        18.548
 88  3 21  6 56  2.0800000  0  4G 6G 9G11G13
  18511682.700 9   2688084.480 8  20994596.460    20994598.741       -4022.832
     -3133.984
 -14824942.137 9 -11827383.898 8  18118453.625    18118455.094       -2233.649
     -1740.816
 -57523280.224 9  79917966.630 8  19579500.714    19579502.965       -2094.895
     -1610.756
 -34860475.003 9   8521224.921 9  18092520.332    18092524.062           9.067
       -17.150
 88  3 21  6 56 32.0800000  0  4G 6G 9G11G13
  18632227.155 8   2782015.247 9  21017535.221    21017537.600       -4008.813
     -3123.663
 -14757134.368 8 -11774546.717 8  18131357.077    18131358.569       -2265.044
     -1773.265
 -57460607.743 9  79966802.334 9  19591426.876    19591429.706       -2092.974
     -1629.876
 -34860518.598 9   8521190.962 8  18092512.267    18092514.350          -2.065
        -8.140
 88  3 21  6 57  2.0800000  0  4G 6G 9G11G13
  18752966.156 8   2876097.597 9  21040511.760    21040514.992       -4017.202
     -3147.002
 -14688747.894 9 -11721258.575 7  18144369.217    18144372.312       -2281.639
     -1786.544
 -57397852.876 8  80015702.225 9  19603369.759    19603371.507       -2085.390
     -1627.788
 -34860243.423 9   8521405.398 8  18092564.422    18092566.352         -10.550
       -18.728
 88  3 21  6 57 32.0800000  0  4G 6G 9G11G13
  18873895.899 8   2970328.578 9  21063522.221    21063526.417       -4028.007
     -3140.875
 -14619786.140 9 -11667522.165 9  18157492.914    18157494.907       -2307.874
     -1807.410
 -57335018.008 9  80064664.462 9  19615325.789    19615328.809       -2082.958
     -1634.306
 -34859652.011 9   8521866.253 9  18092676.601    18092679.498         -29.051
       -17.877
 88  3 21  6 58  2.0800000  0  4G 6G 9G11G13
  18995013.517 7   3064705.916 8  21086571.181    21086574.929       -4050.590
     -3127.528
 -14550250.828 9 -11613338.817 8  18170725.810    18170727.381       -2323.345
     -1810.299
 -57272104.337 8  80113688.096 9  19627297.495    19627301.327       -2099.233
     -1635.741
 -34858745.084 9   8522572.947 8  18092849.564    18092851.842         -18.804
       -17.498
 88  3 21  6 58 32.0800000  0  4G 6G 9G11G13
  19116315.954 8   3159227.275 8  21109653.649    21109657.547       -4049.195
     -3148.176
 -14480144.478 9 -11558710.508 8  18184066.462    18184068.719       -2344.501
     -1825.833
 -57209113.259 8  80162772.043 9  19639283.964    19639287.607       -2066.196
     -1635.369
 -34857524.581 9   8523523.996 8  18093081.455    18093084.678         -35.861
       -27.167
 88  3 21  6 59  2.0800000  0  4G 6G 9G11G13
  19237800.109 9   3253890.235 9  21132771.316    21132775.106       -4035.726
     -3166.004
 -14409468.964 9 -11503638.699 9  18197515.421    18197516.261       -2348.751
     -1844.369
 -57146046.055 9  80211915.293 9  19651286.368    19651289.397       -2094.584
     -1639.874
 -34855992.385 9   8524717.928 9  18093373.783    18093376.169         -54.377
       -28.590
 88  3 21  6 59 32.0800000  0  4G 6G 9G11G13
  19359462.696 9   3348692.197 9  21155923.109    21155927.095       -4070.438
     -3162.841
 -14338226.862 9 -11448125.391 8  18211072.739    18211073.930       -2377.618
     -1859.593
 -57082904.734 8  80261116.306 9  19663300.961    19663304.825       -2104.903
     -1647.069
 -34854149.848 9   8526153.682 8  18093724.984    18093727.240         -72.032
       -33.188
 88  3 21  7  0  2.0800000  0  4G 6G 9G11G13
  19481300.937 9   3443631.041 9  21179107.554    21179112.997       -4062.879
     -3163.338
 -14266420.297 9 -11392172.239 8  18224737.631    18224738.432       -2394.572
     -1867.882
 -57019690.336 9  80310374.269 9  19675330.634    19675333.520       -2095.812
     -1639.861
 -34851998.077 9   8527830.391 9  18094134.078    18094136.736         -87.742
       -62.206
 88  3 21  7  0 32.0800000  0  4G 6G 9G11G13
  19603311.884 9   3538704.466 8  21202325.835    21202330.035       -4071.962
     -3166.296
 -14194051.592 9 -11335781.066 8  18238508.822    18238510.770       -2437.673
     -1888.431
 -56956404.202 9  80359688.148 9  19687373.653    19687376.381       -2100.254
     -1642.086
 -34849538.506 9   8529746.953 9  18094601.997    18094603.449         -91.498
       -67.892
 88  3 21  7  1  2.0800000  0  4G 6G 9G11G13
  19725492.231 9   3633909.926 9  21225576.931    21225580.467       -4067.887
     -3176.493
 -14121122.919 8 -11278953.544 8  18252385.970    18252388.237       -2443.973
     -1898.864
 -56893047.858 9  80409056.722 9  19699430.917    19699433.058       -2120.334
     -1656.912
 -34846773.504 9   8531901.505 8  18095128.583    18095130.580         -97.917
       -93.406
 88  3 21  7  1 32.0800000  0  4G 6G 9G11G13
  19847839.051 9   3729245.109 9  21248858.756    21248862.325       -4079.465
     -3171.136
 -14047636.980 9 -11221691.798 7  18266369.751    18266371.061       -2461.253
     -1915.940
 -56829622.833 9  80458478.802 9  19711499.684    19711503.030       -2112.319
     -1638.177
 -34843704.558 9   8534292.880 8  18095711.476    18095715.025        -106.370
       -67.065
 88  3 21  7  2  2.0800000  0  4G 6G 9G11G13
  19970349.186 9   3824707.554 9  21272171.717    21272174.912       -4089.035
     -3183.440
 -13973595.991 9 -11163997.553 8  18280458.739    18280461.547       -2486.181
     -1915.343
 -56766130.557 9  80507953.292 9  19723581.916    19723584.437       -2137.135
     -1642.632
 -34840332.881 9   8536920.175 8  18096352.971    18096356.881        -110.501
      -105.056
 88  3 21  7  2 32.0800000  0  4G 6G 9G11G13
  20093019.858 9   3920295.104 8  21295515.364    21295518.577       -4093.947
     -3181.023
 -13899001.965 9 -11105872.366 8  18294654.965    18294655.730       -2481.620
     -1946.996
 -56702571.979 9  80557479.436 9  19735676.272    19735678.480       -2127.638
     -1653.171
 -34836659.218 9   8539782.773 9  18097052.390    18097054.829        -124.727
       -95.991
 88  3 21  7  3  2.0800000  0  4G 6G 9G11G13
  20215847.878 9   4016005.282 8  21318887.770    21318891.634       -4078.030
     -3185.378
 -13823857.503 9 -11047318.258 7  18308953.785    18308955.579       -2517.584
     -1956.652
 -56638948.926 9  80607055.830 9  19747784.053    19747786.243       -2113.188
     -1655.383
 -34832686.302 9   8542878.565 9  18097808.602    18097811.590        -137.478
      -109.332
 88  3 21  7  3 32.0800000  0  4G 6G 9G11G13
  20338829.982 9   4111835.506 8  21342290.779    21342293.933       -4108.333
     -3195.376
 -13748165.340 9 -10988337.366 8  18323357.184    18323359.702       -2519.450
     -1968.434
 -56575262.843 8  80656681.349 8  19759902.159    19759905.001       -2119.209
     -1678.480
 -34828415.535 8   8546206.429 9  18098620.478    18098623.672        -141.577
      -128.060
 88  3 21  7  4  2.0800000  0  4G 6G 9G11G13
  20461963.339 8   4207783.580 9  21365721.357    21365725.543       -4113.213
     -3191.685
 -13671927.653 8 -10928931.396 7  18337865.220    18337867.114       -2544.490
     -1989.362
 -56511514.555 9  80706355.338 9  19772032.972    19772036.144       -2121.904
     -1653.041
 -34823848.131 9   8549765.454 8  18099490.092    18099493.324        -155.444
      -125.363
 88  3 21  7  4 32.0800000  0  4G 6G 9G11G13
  20585244.735 9   4303846.988 9  21389182.570    21389186.446       -4146.354
     -3205.200
 -13595147.046 9 -10869102.376 8  18352475.400    18352477.714       -2560.813
     -1996.967
 -56447705.894 9  80756076.359 9  19784175.695    19784178.483       -2133.100
     -1661.982
 -34818985.770 9   8553554.319 9  18100415.739    18100418.693        -170.683
      -121.206
 88  3 21  7  5  2.0800000  0  4G 6G 9G11G13
  20708671.430 8   4400023.619 8  21412668.542    21412672.768       -4111.698
     -3204.330
 -13517825.863 9 -10808852.133 7  18367189.945    18367191.710       -2584.433
     -2009.389
 -56383837.977 8  80805843.554 9  19796329.387    19796332.524       -2119.010
     -1653.929
 -34813829.919 9   8557571.885 8  18101396.964    18101400.149        -163.873
      -133.485
 88  3 21  7  5 32.0800000  0  4G 6G 9G11G13
  20832240.148 8   4496310.922 8  21436182.931    21436187.365       -4132.487
     -3196.948
 -13439966.425 9 -10748182.473 7  18382006.110    18382008.183       -2612.359
     -2018.977
 -56319912.154 8  80855655.869 9  19808494.818    19808497.757       -2141.665
     -1660.640
 -34808382.140 9   8561816.917 8  18102433.301    18102436.113        -187.182
      -151.852
 88  3 21  7  6  2.0800000  0  4G 6G 9G11G13
  20955947.721 8   4592706.424 9  21459724.456    21459727.570       -4135.007
     -3210.426
 -13361571.730 9 -10687095.718 8  18396924.300    18396926.280       -2625.278
     -2039.221
 -56255929.900 9  80905512.158 9  19820669.398    19820672.858       -2109.544
     -1665.518
 -34802643.887 9   8566288.288 9  18103525.231    18103527.585        -193.769
      -148.559
 88  3 21  7  6 32.0800000  0  4G 6G 9G11G13
  21079790.963 8   4689207.626 7  21483290.109    21483295.214       -4117.718
     -3235.983
 -13282644.197 9 -10625593.754 8  18411943.390    18411945.832       -2632.853
     -2066.319
 -56191892.500 8  80955411.407 9  19832855.031    19832858.158       -2120.070
     -1661.473
 -34796616.723 9   8570984.785 8  18104671.706    18104675.214        -201.169
      -157.010
 88  3 21  7  7  2.0800000  0  3G 9G11G13
 -13203186.442 9 -10563678.625 8  18427063.257    18427066.880       -2660.237
     -2062.995
 -56127801.384 8  81005352.533 9  19845050.454    19845054.112       -2126.290
     -1661.411
 -34790303.211 9   8575904.408 9  18105874.357    18105875.815        -214.327
      -155.612
 88  3 21  7  7 32.0800000  0  4G 3G 9G11G13
 -75344487.522 9   5040083.221 9                                      2155.293
     -3221.884
 -13123200.698 9 -10501352.107 8  18442283.868    18442286.409       -2678.315
     -2083.146
 -56063657.478 8  81055334.776 9  19857256.851    19857260.915       -2126.809
     -1664.437
 -34783703.908 9   8581046.720 9  18107129.308    18107131.832        -220.427
      -181.654
 88  3 21  7  8  2.0800000  0  4G 3G 9G11G13
 -75408164.682 8  95488660.129 9  20574671.882    20574674.335        2116.243
      1640.793
 -13042689.855 9 -10438616.405 8  18457604.642    18457606.981       -2681.664
     -2089.633
 -55999462.580 9  81105356.775 9  19869472.898    19869476.919       -2148.938
     -1662.044
 -34776820.844 9   8586410.153 9  18108439.446    18108441.775        -247.500
      -177.080
 88  3 21  7  8 32.0800000  0  4G 3G 9G11G13
 -75471623.983 8  95439211.360 9  20562595.166    20562598.751        2101.530
      1643.080
 -12961656.930 9 -10375473.890 8  18473024.899    18473027.318       -2707.852
     -2111.382
 -55935217.979 8  81155417.497 9  19881697.486    19881701.967       -2144.360
     -1674.671
 -34769655.484 9   8591993.559 9  18109803.127    18109805.769        -232.317
      -193.615
 88  3 21  7  9  2.0800000  0  4G 3G 9G11G13
 -75534865.942 9  95389931.915 9  20550561.421    20550564.171        2102.240
      1650.940
 -12880104.034 9 -10311926.212 7  18488543.745    18488547.173       -2720.763
     -2117.061
 -55870924.356 8  81205516.424 9  19893933.351    19893936.890       -2159.344
     -1679.617
 -34762209.627 9   8597795.522 9  18111219.662    18111222.553        -241.703
      -193.665
 88  3 21  7  9 32.0800000  0  4G 3G 9G11G13
 -75597890.848 8  95340821.620 9  20538567.975    20538570.573        2090.262
      1643.415
 -12798033.989 9 -10247975.545 8  18504161.641    18504163.933       -2743.529
     -2152.206
 -55806583.449 8  81255652.187 9  19906176.754    19906180.561       -2133.994
     -1672.769
 -34754484.484 9   8603815.125 9  18112689.086    18112692.682        -265.905
      -199.313
 88  3 21  7 10  2.0800000  0  4G 3G 9G11G13
 -75660698.625 9  95291880.519 9  20526616.215    20526619.412        2107.048
      1618.442
 -12715449.663 9 -10183624.136 8  18519876.949    18519878.428       -2766.775
     -2164.510
 -55742196.496 8  81305823.834 9  19918429.416    19918432.855       -2157.813
     -1677.423
 -34746481.579 9   8610051.163 9  18114212.257    18114215.445        -279.015
      -207.478
 88  3 21  7 10 32.0800000  0  4G 3G 9G11G13
 -75723289.845 8  95243108.168 9  20514703.507    20514708.205        2096.618
      1637.388
 -12632353.720 9 -10118874.071 8  18535689.544    18535691.307       -2769.590
     -2173.569
 -55677764.286 8  81356030.740 9  19930690.737    19930694.843       -2134.496
     -1674.323
 -34738202.936 9   8616502.054 9  18115788.037    18115791.493        -290.466
      -224.467
 88  3 21  7 11  2.0800000  0  4G 3G 9G11G13
 -75785664.681 9  95194504.423 9  20502834.322    20502838.858        2079.856
      1622.624
 -12548748.537 9 -10053727.195 8  18551598.983    18551601.755       -2786.782
     -2184.599
 -55613288.282 8  81406271.772 9  19942960.145    19942963.610       -2131.745
     -1666.692
 -34729649.907 9   8623166.761 9  18117415.648    18117419.133        -291.710
      -225.007
 88  3 21  7 11 32.0800000  0  4G 3G 9G11G13
 -75847823.064 8  95146069.356 9  20491007.271    20491010.180        2070.597
      1616.883
 -12464637.075 8  -9988185.814 9  18567604.988    18567607.056       -2810.075
     -2192.888
 -55548769.854 9  81456545.864 9  19955237.362    19955241.417       -2147.064
     -1669.762
 -34720824.276 9   8630043.881 9  18119095.779    18119098.093        -302.746
      -236.049
 88  3 21  7 12  2.0800000  0  4G 3G 9G11G13
 -75909765.150 8  95097802.812 9  20479220.030    20479223.445        2061.267
      1602.566
 -12380021.809 9  -9922251.858 9  18583706.115    18583708.805       -2856.311
     -2200.034
 -55484209.881 9  81506852.344 9  19967523.025    19967526.079       -2160.979
     -1673.782
 -34711727.254 9   8637132.472 9  18120826.137    18120828.594        -317.714
      -232.893
 88  3 21  7 12 32.0800000  0  4G 3G 9G11G13
 -75971491.234 8  95049704.602 9  20467473.562    20467477.906        2043.006
      1597.123
 -12294905.550 9  -9855927.521 7  18599903.900    18599905.605       -2846.718
     -2214.835
 -55419609.450 8  81557190.347 9  19979815.989    19979819.209       -2152.917
     -1684.936
 -34702360.496 9   8644431.254 9  18122608.131    18122611.295        -304.915
      -244.767
 88  3 21  7 13  2.0800000  0  4G 3G 9G11G13
 -76033001.949 9  95001774.184 9  20455769.102    20455771.586        2049.457
      1603.548
 -12209291.176 8  -9789215.037 8  18616196.063    18616198.642       -2870.043
     -2226.057
 -55354969.880 8  81607558.855 9  19992116.169    19992119.903       -2141.904
     -1681.394
 -34692725.538 9   8651939.023 9  18124441.888    18124444.632        -312.324
      -248.079
 88  3 21  7 13 32.0800000  0  4G 3G 9G11G13
 -76094297.788 8  94954011.198 8  20444104.346    20444107.681        2043.493
      1584.117
 -12123181.579 8  -9722116.668 7  18632581.807    18632583.490       -2882.530
     -2238.019
 -55290292.629 9  81657956.702 9  20004424.371    20004427.642       -2162.175
     -1671.918
 -34682823.742 9   8659654.706 8  18126326.092    18126329.341        -330.744
      -248.638
 88  3 21  7 14  2.0800000  0  4G 3G 9G11G13
 -76155378.644 8  94906415.746 8  20432480.674    20432483.841        2024.888
      1589.741
 -12036579.382 9  -9654634.480 8  18649060.958    18649064.150       -2890.919
     -2251.372
 -55225578.334 8  81708383.419 9  20016739.110    20016742.532       -2155.357
     -1685.874
 -34672656.912 9   8667576.913 9  18128260.177    18128263.601        -340.657
      -257.959
 88  3 21  7 14 32.0800000  0  4G 3G 9G11G13
 -76216245.060 9  94858987.404 9  20420898.625    20420901.873        2035.678
      1586.025
 -11949487.692 8  -9586770.828 9  18665634.009    18665636.145       -2901.677
     -2269.877
 -55160828.521 9  81758837.816 9  20029060.489    20029064.899       -2155.923
     -1684.383
 -34662226.584 9   8675704.448 8  18130245.293    18130248.276        -354.644
      -272.766
 88  3 21  7 15  2.0800000  0  4G 3G 9G11G13
 -76276897.554 9  94811725.734 9  20409357.674    20409359.979        2027.129
      1572.591
 -11861908.854 9  -9518527.617 8  18682299.706    18682302.859       -2926.509
     -2288.487
 -55096044.146 8  81809319.148 9  20041389.221    20041391.870       -2148.292
     -1680.829
 -34651534.280 9   8684036.114 9  18132278.966    18132284.141        -361.270
      -283.367
 88  3 21  7 15 32.0800000  0  4G 3G 9G11G13
 -76337336.028 9  94764630.834 9  20397857.206    20397859.235        2036.826
      1566.284
 -11773846.034 9  -9449907.253 8  18699057.869    18699060.038       -2935.791
     -2278.576
 -55031225.978 9  81859826.822 9  20053723.280    20053726.172       -2153.618
     -1683.575
 -34640581.646 9   8692570.642 8  18134363.208    18134366.929        -368.782
      -293.123
 88  3 21  7 16  2.0800000  0  4G 3G 9G11G13
 -76397560.809 9  94717702.448 9  20386396.088    20386399.000        2017.257
      1557.094
 -11685301.969 9  -9380911.894 9  18715907.242    18715910.440       -2946.963
     -2317.512
 -54966375.351 8  81910359.771 9  20066064.141    20066067.151       -2162.015
     -1676.280
 -34629370.068 9   8701306.946 9  18136497.174    18136500.472        -393.208
      -303.077
 88  3 21  7 16 32.0800000  0  4G 3G 9G11G13
 -76457571.936 8  94670940.554 9  20374976.217    20374979.543        2004.961
      1548.077
 -11596279.565 9  -9311543.799 8  18732849.140    18732850.410       -2987.321
     -2312.553
 -54901493.137 9  81960917.349 9  20078410.498    20078413.580       -2163.140
     -1680.673
 -34617901.288 9   8710243.670 9  18138679.457    18138682.503        -392.195
      -295.055
 88  3 21  7 17  2.0800000  0  4G 3G 9G11G13
 -76517370.465 9  94624344.318 8  20363596.374    20363600.410        1986.436
      1539.446
 -11506782.034 9  -9241805.481 8  18749878.945    18749881.303       -2985.806
     -2338.986
 -54836581.298 8  82011497.997 9  20090762.786    20090765.592       -2153.411
     -1684.159
 -34606177.248 9   8719379.275 9  18140911.391    18140913.438        -398.136
      -314.585
 88  3 21  7 17 32.0800000  0  4G 3G 9G11G13
 -76576956.329 8  94577913.775 9  20352257.434    20352260.386        1977.601
      1550.513
 -11416811.889 8  -9171698.899 8  18766999.191    18767002.845       -3003.015
     -2342.628
 -54771640.224 8  82062101.430 9  20103120.208    20103123.965       -2179.782
     -1682.308
 -34594199.038 9   8728712.962 9  18143190.802    18143193.255        -396.605
      -305.662
 88  3 21  7 18  2.0800000  0  4G 3G 9G11G13
 -76636330.062 9  94531648.544 8  20340959.408    20340962.194        1977.808
      1538.564
 -11326372.077 9  -9101226.354 8  18784209.283    18784212.786       -3021.771
     -2360.542
 -54706671.288 9  82112726.572 9  20115483.513    20115487.707       -2149.886
     -1681.133
 -34581968.685 9   8738243.121 8  18145518.134    18145521.756        -420.934
      -318.425
 88  3 21  7 18 32.0800000  0  4G 3G 9G11G13
 -76695491.542 9  94485548.709 8  20329701.325    20329703.565        1998.278
      1523.825
 -11235465.749 9  -9030390.274 8  18801508.806    18801510.224       -3036.731
     -2360.803
 -54641675.180 9  82163372.889 9  20127852.446    20127855.780       -2162.510
     -1697.121
 -34569486.955 9   8747969.146 8  18147893.099    18147896.555        -419.244
      -323.154
 88  3 21  7 19  2.0800000  0  4G 3G 9G11G13
 -76754441.439 9  94439613.740 9  20318483.871    20318486.728        1960.727
      1516.257
 -11144095.897 9  -8959193.003 8  18818895.984    18818898.502       -3054.011
     -2361.014
 -54576653.068 8  82214039.471 9  20140225.217    20140228.626       -2168.690
     -1690.361
 -34556756.064 9   8757889.323 9  18150316.174    18150318.767        -415.153
      -331.661
 88  3 21  7 19 32.0800000  0  4G 3G 9G11G13
 -76813180.019 9  94393843.437 9  20307305.212    20307307.906        1947.322
      1528.392
 -11052265.347 9  -8887636.747 9  18836370.296    18836373.059       -3067.512
     -2383.173
 -54511605.766 7  82264725.684 9  20152602.426    20152606.451       -2161.393
     -1681.121
 -34543777.909 9   8768002.179 8  18152785.737    18152788.373        -434.547
      -348.227
 88  3 21  7 20  2.0800000  0  4G 3G 9G11G13
 -76871707.764 9  94348237.430 8  20296167.413    20296171.428        1941.716
      1528.690
 -10959976.874 9  -8815723.664 8  18853933.172    18853935.120       -3094.042
     -2404.710
 -54446534.568 9  82315430.504 9  20164984.141    20164989.429       -2182.908
     -1691.038
 -34530553.330 9   8778307.044 9  18155302.082    18155304.505        -447.170
      -341.752
 88  3 21  7 20 32.0800000  0  4G 3G 9G11G13
 -76930024.929 9  94302795.512 8  20285070.788    20285073.273        1951.979
      1517.704
 -10867233.501 9  -8743456.116 8  18871581.817    18871583.046       -3105.406
     -2404.188
 -54381440.286 7  82366153.309 8  20177372.573    20177376.193       -2163.236
     -1696.873
 -34517083.846 9   8788802.753 9  18157865.157    18157867.851        -447.840
      -343.094
 88  3 21  7 21  2.0800000  0  4G 3G 9G11G13
 -76988132.116 9  94257517.201 7  20274011.804    20274016.320        1930.281
      1518.121
 -10774038.582 9  -8670836.717 8  18889315.632    18889317.596       -3104.529
     -2428.073
 -54316324.222 8  82416893.093 9  20189763.682    20189767.496       -2187.015
     -1687.769
 -34503371.463 9   8799487.724 9  18160474.883    18160478.320        -457.194
      -365.035
 88  3 21  7 21 32.0800000  0  4G 3G 9G11G13
 -77046029.850 9  94212402.093 8  20262996.011    20262999.131        1935.153
      1507.023
 -10680394.755 9  -8597867.513 8  18907135.751    18907137.553       -3116.873
     -2431.603
 -54251187.085 9  82467649.289 9  20202160.062    20202163.011       -2171.601
     -1701.384
 -34489417.359 9   8810361.050 7  18163130.736    18163133.081        -465.726
      -363.879
 88  3 21  7 22  2.0800000  0  4G 3G 9G11G13
 -77103718.134 9  94167450.214 8  20252017.903    20252020.542        1929.595
      1488.394
 -10586305.195 9  -8524550.996 9  18925040.137    18925041.923       -3153.571
     -2440.942
 -54186029.992 9  82518421.052 9  20214558.358    20214561.794       -2175.117
     -1700.396
 -34475223.590 9   8821421.129 9  18165831.896    18165834.967        -471.237
      -367.974
 88  3 21  7 22 32.0800000  0  4G 3G 9G11G13
 -77161197.553 9  94122661.080 8  20241080.425    20241082.262        1922.298
      1493.328
 -10491772.942 9  -8450889.531 8  18943028.917    18943030.775       -3160.812
     -2468.774
 -54120853.723 9  82569207.751 9  20226961.003    20226964.653       -2167.271
     -1696.612
 -34460790.993 9   8832667.312 8  18168577.937    18168579.763        -488.940
      -383.415
 88  3 21  7 23  2.0800000  0  4G 3G 9G11G13
 -77218468.352 8  94078034.501 8  20230181.632    20230184.622        1909.460
      1486.977
 -10396801.119 9  -8376885.535 9  18961101.205    18961103.485       -3180.524
     -2487.092
 -54055659.299 9  82620008.603 9  20239367.541    20239370.666       -2178.275
     -1689.503
 -34446121.976 9   8844097.707 8  18171368.886    18171372.164        -487.752
      -370.385
 88  3 21  7 23 32.0800000  0  4G 3G 9G11G13
 -77275531.424 9  94033569.779 9  20219323.781    20219326.326        1889.253
      1497.261
 -10301393.097 9  -8302541.649 8  18979257.284    18979259.571       -3174.655
     -2479.722
 -53990447.906 9  82670822.689 9  20251776.567    20251779.693       -2172.366
     -1683.569
 -34431217.760 9   8855711.387 8  18174204.894    18174207.879        -496.061
      -401.323
 88  3 21  7 24  2.0800000  0  4G 3G 9G11G13
 -77332387.362 8  93989266.479 8  20208503.626    20208506.088        1895.879
      1477.445
 -10205551.929 9  -8227860.245 9  18997495.486    18997497.242       -3187.430
     -2472.931
 -53925221.041 9  82721648.820 9  20264189.279    20264192.091       -2190.795
     -1695.375
 -34416079.907 9   8867507.114 9  18177086.181    18177088.249        -514.258
      -395.520
 88  3 21  7 24 32.0800000  0  4G 3G 9G11G13
 -77389036.553 8  93945124.277 8  20197724.318    20197726.715        1890.329
      1466.360
 -10109281.277 9  -8152844.176 8  19015814.892    19015817.091       -3219.702
     -2500.191
 -53859979.337 8  82772486.514 9  20276603.143    20276607.429       -2171.808
     -1680.624
 -34400710.425 9   8879483.338 8  18180010.303    18180012.682        -518.788
      -397.545
 88  3 21  7 25  2.0800000  0  4G 3G 9G11G13
 -77445479.389 9  93901142.871 8  20186983.364    20186985.535        1879.221
      1460.755
 -10012583.530 9  -8077495.308 8  19034216.398    19034217.540       -3226.879
     -2521.554
 -53794723.397 9  82823335.312 9  20289021.469    20289024.451       -2182.549
     -1694.859
 -34385110.188 9   8891639.361 9  18182978.155    18182982.339        -538.532
      -400.522
 88  3 21  7 25 32.0800000  0  4G 3G 9G11G13
 -77501715.743 9  93857322.340 8  20176280.739    20176284.598        1877.881
      1459.394
  -9915461.433 9  -8001815.783 8  19052697.694    19052700.978       -3259.646
     -2541.413
 -53729453.534 9  82874194.940 9  20301441.593    20301445.491       -2183.506
     -1694.971
 -34369280.698 9   8903974.036 9  18185990.721    18185994.179        -528.014
      -411.340
 88  3 21  7 26  2.0800000  0  4G 3G 9G11G13
 -77557745.983 9  93813662.418 9  20165618.900    20165622.460        1867.650
      1444.295
  -9817918.444 9  -7925808.276 9  19071259.758    19071261.590       -3263.011
     -2540.524
 -53664170.998 9  82925064.451 9  20313865.700    20313868.710       -2173.004
     -1689.267
 -34353223.442 9   8916486.189 9  18189047.528    18189050.254        -549.585
      -411.446
 88  3 21  7 26 32.0800000  0  4G 3G 9G11G13
 -77613571.234 9  93770162.252 9  20154996.635    20154998.705        1845.457
      1443.686
  -9719957.786 9  -7849475.307 8  19089900.024    19089902.837       -3269.917
     -2565.087
 -53598877.087 8  82975942.828 9  20326289.756    20326293.619       -2151.115
     -1688.770
 -34336940.361 9   8929174.296 9  18192146.198    18192147.932        -534.848
      -440.713
 88  3 21  7 27  2.0800000  0  4G 3G 9G11G13
 -77669191.850 9  93726821.552 9  20144411.014    20144414.075        1853.504
      1451.615
  -9621582.626 9  -7772819.365 9  19108620.595    19108622.565       -3287.245
     -2553.722
 -53533572.443 7  83026829.557 9  20338716.436    20338719.874       -2173.243
     -1688.708
 -34320433.000 9   8942037.178 9  18195286.794    18195289.352        -552.934
      -417.790
 88  3 21  7 27 32.0800000  0  4G 3G 9G11G13
 -77724608.219 8  93683639.985 8  20133866.471    20133869.671        1846.877
      1437.397
  -9522796.154 9  -7695842.925 9  19127419.223    19127422.027       -3298.305
     -2569.754
 -53468258.175 8  83077723.769 9  20351144.961    20351148.405       -2206.201
     -1699.507
 -34303702.632 9   8955073.819 8  18198470.566    18198473.678        -563.006
      -436.245
 88  3 21  7 28  2.0800000  0  4G 3G 9G11G13
 -77779820.788 9  93640617.211 9  20123359.458    20123363.332        1837.100
      1427.083
  -9423601.705 9  -7618548.584 8  19146294.801    19146297.703       -3311.328
     -2590.645
 -53402934.941 8  83128624.984 9  20363575.281    20363579.753       -2182.254
     -1688.211
 -34286750.582 9   8968283.226 9  18201697.117    18201699.713        -563.891
      -436.512
 88  3 21  7 28 32.0800000  0  4G 3G 9G11G13
 -77834829.995 8  93597752.909 9  20112891.584    20112894.982        1835.952
      1415.245
  -9324002.290 9  -7540938.665 8  19165248.119    19165250.361       -3329.238
     -2584.679
 -53337603.340 9  83179532.730 9  20376008.195    20376011.248       -2189.240
     -1703.807
 -34269578.919 9   8981663.727 9  18204964.542    18204967.820        -585.286
      -445.808
 88  3 21  7 29  2.0800000  0  4G 3G 9G11G13
 -77889636.438 9  93555046.614 9  20102462.699    20102466.742        1813.042
      1419.303
  -9224001.198 9  -7463015.767 8  19184277.882    19184280.500       -3342.802
     -2613.157
 -53272264.580 9  83230446.046 9  20388442.116    20388445.609       -2172.789
     -1699.420
 -34252189.231 9   8995214.141 9  18208273.648    18208275.221        -577.575
      -439.252
 88  3 21  7 29 32.0800000  0  4G 3G 9G11G13
 -77944240.931 8  93512497.684 9  20092072.039    20092074.897        1817.786
      1405.135
  -9123601.648 9  -7384782.379 9  19203382.537    19203386.519       -3347.778
     -2619.104
 -53206919.517 9  83281364.283 9  20400876.958    20400880.480       -2159.862
     -1688.875
 -34234582.646 9   9008933.561 8  18211623.585    18211625.643        -592.750
      -449.474
 88  3 21  7 30  2.0800000  0  4G 3G 9G11G13
 -77998643.116 9  93470106.379 8  20081719.384    20081722.600        1822.746
      1415.854
  -9022806.411 8  -7306240.670 9  19222563.463    19222566.572       -3361.853
     -2609.317
 -53141568.575 9  83332287.069 9  20413312.100    20413315.838       -2175.357
     -1696.413
 -34216760.450 9   9022820.973 9  18215015.027    18215018.300        -599.680
      -467.208
 88  3 21  7 30 32.0800000  0  4G 3G 9G11G13
 -78052843.998 9  93427871.963 9  20071405.231    20071407.363        1801.878
      1395.771
  -8921619.250 8  -7227393.539 8  19241819.073    19241821.973       -3383.105
     -2626.896
 -53076212.884 8  83383213.579 9  20425748.487    20425753.265       -2144.480
     -1690.298
 -34198724.878 9   9036874.674 8  18218446.513    18218448.929        -604.376
      -473.379
 88  3 21  7 31  2.0800000  0  4G 3G 9G11G13
 -78106844.293 9  93385793.828 8  20061130.189    20061131.391        1785.554
      1399.611
  -8820043.085 9  -7148243.304 8  19261147.962    19261150.395       -3403.750
     -2626.772
 -53010853.123 8  83434143.223 9  20438186.779    20438190.602       -2173.810
     -1696.506
 -34180477.045 9   9051093.769 8  18221919.859    18221922.190        -597.136
      -453.513
 88  3 21  7 31 32.0800000  0  4G 3G 9G11G13
 -78160644.155 9  93343871.877 9  20050891.452    20050893.746        1794.111
      1403.253
  -8718081.503 9  -7068792.745 8  19280551.012    19280553.675       -3406.358
     -2648.824
 -52945489.968 8  83485075.528 8  20450626.068    20450628.378       -2178.658
     -1692.877
 -34162018.752 9   9065476.852 9  18225431.599    18225433.666        -617.845
      -478.455
 88  3 21  7 32  2.0800000  0  4G 3G 9G11G13
 -78214244.049 9  93302105.743 9  20040692.660    20040694.619        1780.722
      1394.740
  -8615737.575 9  -6989044.249 8  19300026.723    19300029.365       -3427.578
     -2661.550
 -52880123.943 9  83536010.106 9  20463063.249    20463067.034       -2189.431
     -1693.834
 -34143351.303 9   9080022.910 9  18228984.088    18228986.585        -632.374
      -477.405
 88  3 21  7 32 32.0800000  0  4G 3G 9G11G13
 -78267644.807 9  93260494.794 9  20030530.402    20030533.078        1780.052
      1385.953
  -8513014.353 9  -6909000.194 8  19319574.576    19319577.287       -3430.863
     -2675.040
 -52814756.042 9  83586946.139 9  20475503.097    20475506.191       -2173.889
     -1693.933
 -34124475.773 9   9094731.119 8  18232576.616    18232579.041        -616.091
      -476.641
 88  3 21  7 33  2.0800000  0  4G 3G 9G11G13
 -78320846.933 9  93219038.605 9  20020405.632    20020408.985        1779.518
      1382.076
  -8409915.414 8  -6828663.385 8  19339192.866    19339196.064       -3460.791
     -2672.822
 -52749387.204 9  83637882.882 9  20487942.244    20487945.909       -2174.487
     -1699.551
 -34105394.158 9   9109599.915 9  18236207.641    18236209.724        -640.787
      -500.023
 88  3 21  7 33 32.0800000  0  4G 3G 9G11G13
 -78373850.711 9  93177736.987 9  20010319.464    20010323.138        1775.411
      1371.488
  -8306443.713 9  -6748036.109 8  19358882.592    19358886.024       -3441.469
     -2692.551
 -52684018.202 9  83688819.766 9  20500382.140    20500385.082       -2183.482
     -1685.744
 -34086107.811 9   9124628.246 9  18239878.253    18239880.186        -645.205
      -492.691
 88  3 21  7 34  2.0800000  0  4G 3G 9G11G13
 -78426656.676 8  93136589.491 8  20000271.899    20000274.263        1746.113
      1380.610
  -8202602.678 9  -6667121.035 9  19378643.148    19378645.831       -3468.901
     -2705.954
 -52618649.468 8  83739756.411 9  20512821.607    20512824.185       -2186.361
     -1705.342
 -34066617.855 9   9139815.220 9  18243586.651    18243587.640        -660.923
      -489.802
 88  3 21  7 34 32.0800000  0  4G 3G 9G11G13
 -78479265.423 9  93095595.679 9  19990259.303    19990262.232        1761.137
      1370.170
  -8098395.650 9  -6585920.768 9  19398473.054    19398477.644       -3474.260
     -2719.494
 -52553281.884 9  83790692.168 9  20525258.984    20525263.969       -2192.701
     -1701.402
 -34046925.916 9   9155159.589 9  18247333.460    18247335.730        -644.687
      -517.447
 88  3 21  7 35  2.0800000  0  4G 3G 9G11G13
 -78531677.471 9  93054755.149 8  19980285.717    19980289.358        1736.336
      1346.589
  -7993825.935 9  -6504437.900 8  19418372.187    19418376.115       -3495.360
     -2726.174
 -52487916.269 8  83841626.380 9  20537697.909    20537702.223       -2177.908
     -1686.253
 -34027034.030 9   9170659.761 8  18251118.558    18251122.044        -664.009
      -516.614
 88  3 21  7 35 32.0800000  0  4G 3G 9G11G13
 -78583893.795 9  93014067.131 9  19970350.871    19970351.834        1740.451
      1350.069
  -7888896.947 8  -6422675.077 8  19438339.798    19438343.828       -3505.136
     -2723.191
 -52422553.271 8  83892558.586 9  20550137.057    20550139.682       -2187.669
     -1691.212
 -34006943.103 9   9186315.031 8  18254942.025    18254944.146        -674.702
      -534.168
 88  3 21  7 36  2.0800000  0  4G 3G 9G11G13
 -78635914.975 9  92973531.166 9  19960450.333    19960453.286        1727.054
      1350.342
  -7783612.038 8  -6340634.917 8  19458375.330    19458377.923       -3521.492
     -2730.529
 -52357193.376 8  83943488.383 9  20562574.746    20562577.274       -2195.117
     -1688.820
 -33986654.626 9   9202124.236 9  18258802.459    18258805.765        -676.209
      -531.229
 88  3 21  7 36 32.0800000  0  3G 3G 9G13
 -78687741.028 9  92933147.248 9  19950588.043    19950590.742        1716.353
      1342.805
  -7677974.140 9  -6258319.711 8  19478475.620    19478480.187       -3525.383
     -2741.093
 -33966170.231 9   9218086.111 9  18262700.275    18262702.149        -685.747
      -521.610
 88  3 21  7 37  2.0800000  0  3G 3G 9G13
 -78739372.536 9  92892914.934 9  19940762.856    19940764.506        1723.330
      1345.471
  -7571986.971 9  -6175732.319 9  19498645.113    19498648.701       -3529.498
     -2760.834
 -33945491.396 9   9234199.495 9  18266636.298    18266638.118        -694.830
      -533.547
 88  3 21  7 37 32.0800000  0  3G 3G 9G13
 -78790810.167 9  92852833.669 9  19930974.835    19930977.870        1722.724
      1324.543
  -7465653.469 9  -6092875.053 8  19518880.455    19518882.708       -3540.136
     -2761.667
 -33924619.258 9   9250463.502 8  18270607.796    18270610.165        -695.531
      -554.195
 88  3 21  7 38  2.0800000  0  3G 3G 9G13
 -78842054.603 9  92812902.952 8  19921222.683    19921226.308        1710.141
      1342.737
  -7358977.166 9  -6009750.699 9  19539180.156    19539184.684       -3562.336
     -2781.246
 -33903555.678 9   9266876.681 9  18274615.643    18274617.875        -705.723
      -538.499
 88  3 21  7 38 32.0800000  0  3G 3G 9G13
 -78893106.297 9  92773122.448 9  19911509.017    19911511.644        1706.903
      1333.863
  -7251961.568 8  -5926361.950 8  19559545.026    19559547.776       -3561.986
     -2793.649
 -33882302.133 9   9283437.890 8  18278659.875    18278662.823        -717.381
      -550.094
 88  3 21  7 39  2.0800000  0  3G 3G 9G13
 -78943965.068 9  92733492.243 8  19901829.910    19901832.867        1701.257
      1330.234
  -7144609.614 9  -5842711.100 9  19579972.739    19579975.827       -3581.610
     -2779.662
 -33860859.817 9   9300146.185 8  18282740.750    18282743.327        -714.534
      -550.119
 88  3 21  7 39 32.0800000  0  3G 3G 9G13
 -78994632.050 9  92694011.490 9  19892188.759    19892192.187        1673.849
      1319.143
  -7036924.729 8  -5758800.835 9  19600464.748    19600467.880       -3614.226
     -2799.359
 -33839229.595 9   9317000.902 8  18286856.104    18286859.159        -707.844
      -581.088
 88  3 21  7 40  2.0800000  0  3G 3G 9G13
 -79045108.575 9  92654679.150 8  19882582.212    19882585.900        1681.433
      1316.235
  -6928910.554 9  -5674633.958 8  19621019.904    19621022.143       -3597.264
     -2804.424
 -33817413.489 9   9334000.469 9  18291008.483    18291011.313        -725.922
      -583.251
 88  3 21  7 40 32.0800000  0  3G 3G 9G13
 -79095394.517 8  92615495.317 8  19873013.497    19873017.014        1683.945
      1300.328
  -6820570.287 9  -5590212.993 8  19641635.605    19641638.607       -3614.983
     -2802.814
 -33795412.787 9   9351143.877 8  18295194.942    18295197.246        -741.583
      -570.829
 88  3 21  7 41  2.0800000  0  3G 3G 9G13
 -79145490.142 9  92576459.782 8  19863480.547    19863484.296        1677.230
      1308.399
  -6711907.021 9  -5505540.342 9  19662313.515    19662316.388       -3631.665
     -2817.299
 -33773228.453 9   9368430.380 8  18299416.413    18299418.858        -737.859
      -565.206
 88  3 21  7 41 32.0800000  0  3G 3G 9G13
 -79195396.573 9  92537571.678 9  19853984.033    19853986.271        1671.545
      1286.216
  -6602924.250 8  -5420618.727 8  19683052.448    19683054.906       -3630.996
     -2841.489
 -33750862.340 9   9385858.521 8  18303671.574    18303675.539        -744.303
      -568.611
 88  3 21  7 42  2.0800000  0  3G 3G 9G13
 -79245114.310 9  92498830.593 8  19844523.778    19844525.949        1662.087
      1295.139
  -6493625.453 9  -5335450.859 8  19703851.215    19703854.477       -3660.628
     -2853.239
 -33728315.962 9   9403427.124 8  18307962.950    18307965.820        -762.691
      -576.403
 88  3 21  7 42 32.0800000  0  3G 3G 9G13
 -79294643.816 9  92460236.182 8  19835098.347    19835101.118        1653.156
      1285.545
  -6384014.203 9  -5250039.520 9  19724709.751    19724712.105       -3669.464
     -2834.343
 -33705590.104 9   9421135.583 9  18312287.650    18312290.757        -766.671
      -588.588
 88  3 21  7 43  2.0800000  0  3G 3G 9G13
 -79343985.731 9  92421787.951 8  19825708.205    19825711.972        1649.543
      1261.939
  -6274093.392 9  -5164386.954 8  19745626.511    19745629.767       -3666.059
     -2856.272
 -33682686.649 9   9438982.421 8  18316645.694    18316648.809        -768.010
      -599.450
 88  3 21  7 43 32.0800000  0  3G 3G 9G13
 -79393140.833 9  92383485.304 8  19816354.834    19816357.011        1623.244
      1283.588
  -6163867.039 9  -5078496.312 9  19766602.701    19766604.820       -3687.207
     -2867.705
 -33659606.969 9   9456966.590 9  18321037.673    18321041.451        -762.452
      -599.431
 88  3 21  7 44  2.0800000  0  3G 3G 9G13
 -79442109.815 9  92345327.665 9  19807036.695    19807039.279        1625.349
      1257.732
  -6053338.487 9  -4992370.187 8  19787635.583    19787638.820       -3688.834
     -2862.479
 -33636352.868 9   9475086.671 8  18325463.377    18325465.273        -783.959
      -607.994
 88  3 21  7 44 32.0800000  0  3G 3G 9G13
 -79490892.895 9  92307314.881 9  19797753.219    19797756.089        1633.140
      1263.610
  -5942510.793 8  -4906010.956 8  19808726.031    19808728.341       -3687.980
     -2875.056
 -33612924.792 9   9493342.308 9  18329920.549    18329923.704        -777.348
      -586.619
 88  3 21  7 45  2.0800000  0  3G 3G 9G13
 -79539490.703 9  92269446.492 9  19788505.941    19788508.208        1615.405
      1246.833
  -5831387.136 8  -4819421.124 8  19829871.238    19829875.825       -3690.054
     -2891.622
 -33589324.197 9   9511732.391 8  18334411.183    18334414.385        -786.184
      -617.203
 88  3 21  7 45 32.0800000  0  3G 3G 9G13
 -79587904.040 8  92231721.818 9  19779292.018    19779295.907        1599.696
      1250.077
  -5719971.487 9  -4732603.758 9  19851072.545    19851076.617       -3716.082
     -2891.740
 -33565552.629 9   9530255.678 9  18338935.729    18338938.364        -794.756
      -627.580
 88  3 21  7 46  2.0800000  0  3G 3G 9G13
 -79636133.705 9  92194140.270 9  19770114.717    19770117.843        1621.530
      1251.158
  -5608267.229 8  -4645561.488 9  19872329.345    19872333.157       -3732.884
     -2897.550
 -33541612.038 9   9548910.686 8  18343491.577    18343494.451        -806.686
      -647.097
 88  3 21  7 46 32.0800000  0  3G 3G 9G13
 -79684180.159 9  92156701.491 9  19760972.518    19760974.648        1601.434
      1251.754
  -5496277.224 9  -4558296.583 9  19893639.685    19893644.466       -3726.217
     -2908.592
 -33517502.675 9   9567697.195 8  18348079.096    18348082.451        -798.217
      -635.384
 88  3 21  7 47  2.0800000  0  3G 3G 9G13
 -79732043.997 9  92119405.015 8  19751863.436    19751866.694        1593.300
      1237.637
  -5384005.181 9  -4470811.893 9  19915005.401    19915008.715       -3743.769
     -2924.101
 -33493226.254 9   9586613.895 9  18352698.720    18352700.967        -818.799
      -642.493
 88  3 21  7 47 32.0800000  0  3G 3G 9G13
 -79779725.980 9  92082250.233 9  19742790.210    19742792.520        1594.337
      1225.917
  -5271454.602 9  -4383110.158 8  19936422.816    19936426.037       -3755.842
     -2918.391
 -33468784.696 9   9605659.265 9  18357350.464    18357353.841        -812.555
      -641.014
 88  3 21  7 48  2.0800000  0  3G 3G 9G13
 -79827226.532 9  92045236.833 8  19733750.729    19733753.886        1593.994
      1233.983
  -5158628.905 9  -4295194.058 9  19957893.498    19957896.605       -3754.726
     -2928.314
 -33444179.397 9   9624832.224 9  18362032.488    18362035.116        -821.056
      -638.845
 88  3 21  7 48 32.0800000  0  3G 3G 9G13
 -79874545.976 9  92008364.552 9  19724745.639    19724749.196        1573.883
      1217.877
  -5045531.429 9  -4207066.171 9  19979414.694    19979417.857       -3777.819
     -2937.206
 -33419410.686 9   9644132.524 8  18366745.971    18366748.556        -831.606
      -649.291
 88  3 21  7 49  2.0800000  0  3G 3G 9G13
 -79921685.295 8  91971632.632 9  19715776.039    19715777.910        1577.192
      1223.910
  -4932165.486 9  -4118729.101 9  20000987.400    20000991.370       -3794.231
     -2949.105
 -33394480.214 9   9663558.847 9  18371489.604    18371492.127        -833.791
      -644.487
 88  3 21  7 49 32.0800000  0  3G 3G 9G13
 -79968645.373 9  91935040.380 9  19706840.988    19706842.501        1564.720
      1220.630
  -4818535.004 9  -4030185.910 9  20022610.326    20022614.219       -3794.605
     -2952.380
 -33369389.599 9   9683109.977 9  18376264.270    18376266.905        -844.118
      -648.278
 88  3 21  7 50  2.0800000  0  3G 3G 9G13
 -80015426.709 9  91898587.389 8  19697937.408    19697939.449        1563.644
      1212.135
  -4704643.063 8  -3941438.956 9  20044283.997    20044287.930       -3787.038
     -2957.475
 -33344139.872 9   9702785.088 9  18381069.698    18381071.852        -850.505
      -659.481
 88  3 21  7 50 32.0800000  0  3G 3G 9G13
 -80062029.583 9  91862273.484 9  19689069.752    19689072.219        1566.562
      1205.244
  -4590493.007 9  -3852490.875 9  20066005.990    20066008.910       -3818.497
     -2967.927
 -33318732.456 9   9722583.063 9  18385903.596    18385906.560        -853.671
      -656.368
 88  3 21  7 51  2.0800000  0  3G 3G 9G13
 -80108454.722 9  91826098.075 8  19680234.691    19680237.731        1569.090
      1210.197
  -4476088.766 9  -3763344.750 9  20087775.383    20087779.387       -3815.714
     -2970.686
 -33293168.824 9   9742502.776 9  18390768.795    18390770.531        -845.633
      -653.274
 88  3 21  7 51 32.0800000  0  3G 3G 9G13
 -80154702.990 9  91790060.458 8  19671433.300    19671437.375        1528.812
      1193.643
  -4361433.268 9  -3674002.810 9  20109594.414    20109597.148       -3822.372
     -2964.578
 -33267449.763 9   9762543.590 8  18395663.142    18395665.095        -857.578
      -665.217
 88  3 21  7 52  2.0800000  0  3G 3G 9G13
 -80200774.994 9  91754160.207 9  19662666.089    19662670.167        1533.190
      1205.381
  -4246530.484 9  -3584468.201 8  20131459.695    20131463.256       -3826.734
     -2987.886
 -33241576.724 9   9782704.396 8  18400586.568    18400589.121        -875.840
      -677.930
 88  3 21  7 52 32.0800000  0  3G 3G 9G13
 -80246671.036 9  91718397.078 8  19653932.587    19653934.815        1528.461
      1183.689
  -4131382.911 9  -3494742.834 9  20153371.181    20153375.066       -3842.180
     -3000.605
 -33215550.597 9   9802984.481 9  18405538.503    18405541.244        -869.731
      -676.227
 88  3 21  7 53  2.0800000  0  3G 3G 9G13
 -80292392.444 9  91682770.019 9  19645232.746    19645235.547        1522.097
      1184.788
  -4015994.686 9  -3404829.962 8  20175329.154    20175332.063       -3847.523
     -2987.165
 -33189373.340 9   9823382.345 8  18410520.128    18410521.957        -862.339
      -681.447
 88  3 21  7 53 32.0800000  0  3G 3G 9G13
 -80337939.670 9  91647278.678 9  19636565.726    19636567.910        1522.034
      1177.475
  -3900369.096 9  -3314732.117 8  20197331.096    20197335.059       -3838.082
     -3004.222
 -33163045.902 8   9843897.229 8  18415529.940    18415533.119        -872.411
      -689.494
 88  3 21  7 54  2.0800000  0  3G 3G 9G13
 -80383312.799 9  91611923.006 9  19627931.849    19627934.147        1501.571
      1163.767
  -3784509.546 9  -3224451.972 9  20219380.345    20219382.499       -3869.222
     -3024.709
 -33136569.525 9   9864528.168 9  18420567.676    18420571.994        -890.544
      -686.810
 88  3 21  7 54 32.0800000  0  3G 3G 9G13
 -80428512.803 9  91576702.228 9  19619329.846    19619332.549        1502.688
      1175.300
  -3668419.465 9  -3133992.190 9  20241470.217    20241474.634       -3869.445
     -3020.378
 -33109945.269 9   9885274.343 8  18425635.445    18425637.387        -900.823
      -686.977
 88  3 21  7 55  2.0800000  0  3G 3G 9G13
 -80473540.380 9  91541615.841 9  19610761.851    19610764.567        1490.056
      1167.893
  -3552102.665 9  -3043355.724 9  20263605.177    20263608.307       -3869.628
     -3026.834
 -33083174.661 9   9906134.545 9  18430728.892    18430731.589        -886.477
      -694.515
 88  3 21  7 55 32.0800000  0  3G 3G 9G13
 -80518396.181 9  91506663.272 8  19602225.842    19602229.332        1497.401
      1174.784
  -3435562.242 9  -2952545.029 9  20285781.615    20285784.698       -3879.118
     -3028.605
 -33056258.594 9   9927108.096 9  18435851.332    18435853.483        -906.732
      -702.506
 88  3 21  7 56  2.0800000  0  3G 3G 9G13
 -80563081.246 9  91471843.755 9  19593721.437    19593725.038        1493.653
      1161.909
  -3318801.639 9  -2861562.752 9  20308000.368    20308004.852       -3889.317
     -3044.605
 -33029198.168 9   9948194.152 9  18441000.367    18441004.424        -910.209
      -715.231
 88  3 21  7 56 32.0800000  0  3G 3G 9G13
 -80607595.496 9  91437157.338 8  19585251.501    19585254.533        1480.463
      1155.640
  -3201824.307 9  -2770411.596 9  20330261.193    20330263.749       -3895.840
     -3046.681
 -33001994.501 9   9969391.808 9  18446177.972    18446180.005        -904.444
      -720.439
 88  3 21  7 57  2.0800000  0  3G 3G 9G13
 -80651940.320 9  91402602.937 8  19576812.910    19576816.041        1471.644
      1147.593
  -3084633.885 9  -2679094.397 9  20352561.564    20352565.048       -3897.849
     -3060.630
 -32974649.406 9   9990699.670 9  18451381.863    18451382.766        -917.952
      -706.339
 88  3 21  7 57 32.0800000  0  3G 3G 9G13
 -80696115.592 8  91368180.659 9  19568406.493    19568409.266        1472.417
      1149.457
  -2967233.522 9  -2587613.610 9  20374902.909    20374904.850       -3914.045
     -3044.810
 -32947163.503 9  10012117.253 8  18456611.830    18456614.502        -922.537
      -704.096
 88  3 21  7 58  2.0800000  0  3G 3G 9G13
 -80740121.760 9  91333890.152 8  19560031.608    19560034.521        1466.508
      1138.570
  -2849626.597 8  -2495971.860 9  20397281.175    20397285.346       -3927.195
     -3059.916
 -32919538.055 9  10033643.573 9  18461869.893    18461871.136        -928.805
      -712.746
 88  3 21  7 58 32.0800000  0  3G 3G 9G13
 -80783960.185 9  91299730.353 8  19551691.181    19551693.552        1475.463
      1148.556
  -2731816.709 8  -2404171.970 9  20419700.262    20419703.653       -3926.749
     -3059.102
 -32891774.632 9  10055277.392 9  18467152.133    18467154.554        -931.804
      -724.714
 88  3 21  7 59  2.0800000  0  3G 3G 9G13
 -80827631.536 9  91265700.736 8  19543379.999    19543382.668        1464.379
      1128.889
  -2613807.311 8  -2312216.646 9  20442156.136    20442160.224       -3931.198
     -3058.406
 -32863873.823 9  10077018.274 9  18472461.270    18472463.487        -941.301
      -713.137
 88  3 21  7 59 32.0800000  0  3G 3G 9G13
 -80871135.990 9  91231801.171 9  19535101.435    19535103.320        1446.668
      1127.131
  -2495601.776 8  -2220108.458 8  20464650.003    20464654.085       -3921.948
     -3077.762
 -32835836.489 9  10098865.544 9  18477796.636    18477798.514        -951.062
      -725.521
 88  3 21  8  0  2.0800000  0  3G 3G 9G13
 -80914474.273 9  91198031.097 8  19526853.674    19526856.762        1448.534
      1133.767
  -2377203.069 8  -2127849.756 8  20487180.745    20487184.084       -3948.814
     -3075.786
 -32807663.752 9  10120818.317 9  18483157.309    18483160.387        -934.100
      -728.106
 88  3 21  8  0 32.0800000  0  3G 3G 9G13
 -80957647.060 9  91164389.983 9  19518639.142    19518641.523        1451.795
      1118.543
  -2258614.886 9  -2035443.384 8  20509747.478    20509750.355       -3960.584
     -3095.763
 -32779357.495 9  10142875.130 9  18488543.430    18488547.168        -943.765
      -730.076
 88  3 21  8  1  2.0800000  0  3G 3G 9G13
 -81000655.113 9  91130877.222 8  19510454.072    19510457.616        1414.683
      1104.202
  -2139841.177 9  -1942892.456 8  20532349.368    20532353.036       -3953.136
     -3090.941
 -32750918.086 9  10165035.696 9  18493955.365    18493959.276        -938.622
      -749.171
 88  3 21  8  1 32.0800000  0  3G 3G 9G13
 -81043498.871 9  91097492.472 8  19502301.971    19502305.090        1411.748
      1109.838
  -2020884.676 9  -1850199.080 8  20554985.603    20554989.421       -3962.553
     -3082.118
 -32722346.763 9  10187299.053 8  18499392.256    18499395.918        -959.650
      -736.737
 88  3 21  8  2  2.0800000  0  3G 3G 9G13
 -81086178.877 8  91064235.343 9  19494179.617    19494181.709        1400.799
      1114.629
  -1901748.951 9  -1757366.051 8  20577657.846    20577660.102       -3986.277
     -3095.856
 -32693644.742 9  10209664.257 9  18504854.012    18504856.207        -945.663
      -748.009
 88  3 21  8  2 32.0800000  0  3G 3G 9G13
 -81128696.284 9  91031104.909 8  19486088.828    19486091.012        1424.124
      1107.085
  -1782437.693 9  -1664396.262 9  20600361.570    20600364.924       -3981.429
     -3102.431
 -32664812.461 9  10232130.953 9  18510341.183    18510343.615        -976.572
      -758.013
 88  3 21  8  3  2.0800000  0  3G 3G 9G13
 -81171051.315 8  90998100.995 9  19478029.258    19478031.029        1420.711
      1107.675
  -1662954.429 9  -1571292.426 9  20623098.962    20623101.565       -3982.465
     -3096.441
 -32635852.022 9  10254697.515 9  18515852.498    18515855.620        -963.278
      -760.747
 88  3 21  8  3 32.0800000  0  3G 3G 9G13
 -81213244.843 9  90965222.923 8  19469999.072    19470002.072        1415.081
      1097.093
  -1543302.238 8  -1478056.967 9  20645867.499    20645869.160       -3992.266
     -3111.291
 -32606764.128 9  10277363.393 9  18521387.089    18521390.316        -970.870
      -755.105
 88  3 21  8  4  2.0800000  0  3G 3G 9G13
 -81255277.502 9  90932470.209 8  19462001.201    19462004.535        1397.075
      1099.076
  -1423484.731 9  -1384692.668 9  20668668.306    20668671.180       -3993.199
     -3110.801
 -32577549.417 9  10300128.094 9  18526947.086    18526949.111        -978.382
      -752.999
 88  3 21  8  4 32.0800000  0  3G 3G 9G13
 -81297149.596 9  90899842.610 9  19454034.237    19454035.480        1387.745
      1089.270
  -1303505.352 9  -1291202.249 8  20691499.953    20691502.871       -4002.497
     -3132.692
 -32548209.711 9  10322990.191 8  18532530.563    18532532.658        -971.301
      -760.437
 88  3 21  8  5  2.0800000  0  3G 3G 9G13
 -81338862.098 8  90867339.364 8  19446096.551    19446099.149        1387.889
      1074.773
  -1183367.518 9  -1197588.370 9  20714360.860    20714364.618       -4001.373
     -3103.611
 -32518745.610 9  10345949.229 9  18538137.107    18538139.681        -988.182
      -771.155
 88  3 21  8  5 32.0800000  0  3G 3G 9G13
 -81380415.269 9  90834960.285 9  19438188.973    19438190.806        1383.208
      1098.467
  -1063074.262 9  -1103853.355 8  20737252.166    20737254.860       -4006.388
     -3133.754
 -32489157.805 9  10369004.664 9  18543767.709    18543770.114        -972.002
      -772.529
 88  3 21  8  6  2.0800000  0  3G 3G 9G13
 -81421810.063 9  90802704.607 9  19430311.640    19430313.008        1384.005
      1074.264
   -942629.428 9  -1010000.255 9  20760171.704    20760175.361       -4008.422
     -3124.626
 -32459447.670 9  10392155.400 9  18549420.937    18549423.083        -995.710
      -763.189
 88  3 21  8  6 32.0800000  0  3G 3G 9G13
 -81463047.312 9  90770571.682 9  19422463.984    19422466.661        1365.975
      1082.037
   -822036.363 9   -916031.651 9  20783120.007    20783123.031       -4020.886
     -3130.504
 -32429616.339 9  10415400.578 9  18555097.523    18555101.061       -1007.369
      -777.003
 88  3 21  8  7  2.0800000  0  3G 3G 9G13
 -81504127.548 9  90738561.116 8  19414646.898    19414649.533        1383.997
      1053.348
   -701298.398 8   -821950.137 9  20806095.698    20806098.772       -4022.720
     -3130.995
 -32399664.840 9  10438739.404 9  18560796.757    18560799.753        -992.480
      -774.474
 88  3 21  8  7 32.0800000  0  3G 3G 9G13
 -81545051.696 9  90706672.177 8  19406860.483    19406861.997        1364.173
      1068.025
   -580419.123 9   -727758.520 9  20829098.208    20829101.119       -4037.281
     -3136.134
 -32369593.937 9  10462171.271 9  18566520.161    18566522.122        -991.061
      -778.873
 88  3 21  8  8  2.0800000  0  3G 3G 9G13
 -81585819.932 9  90674904.719 8  19399101.624    19399103.552        1351.534
      1051.857
   -459401.519 9   -633459.108 9  20852126.889    20852130.284       -4013.525
     -3140.596
 -32339404.738 9  10485695.312 9  18572264.110    18572268.010       -1004.625
      -789.219
 88  3 21  8  8 32.0800000  0  3G 3G 9G13
 -81626433.108 9  90643258.095 8  19391373.514    19391374.197        1364.851
      1062.371
   -338249.246 8   -539054.789 9  20875180.782    20875183.938       -4038.134
     -3143.386
 -32309098.399 9  10509310.644 9  18578031.411    18578034.212       -1004.761
      -770.491
 88  3 21  8  9  2.0800000  0  3G 3G 9G13
 -81666891.443 9  90611732.112 8  19383674.098    19383676.040        1352.315
      1050.142
   -216965.678 8   -444548.112 9  20898261.168    20898264.232       -4038.382
     -3149.425
 -32278675.851 9  10533016.521 8  18583820.225    18583823.102       -1014.450
      -796.402
 88  3 21  8  9 32.0800000  0  3G 3G 9G13
 -81707195.711 9  90580326.202 8  19376005.678    19376007.008        1337.435
      1052.143
    -95554.277 9   -349941.853 9  20921365.066    20921367.477       -4052.472
     -3155.950
 -32248137.689 9  10556812.481 8  18589631.942    18589634.535       -1005.215
      -793.090
 88  3 21  8 10  2.0800000  0  3G 3G 9G13
 -81747347.183 9  90549039.360 8  19368363.902    19368367.057        1335.410
      1030.500
     25981.451 9   -255238.710 8  20944491.456    20944495.194       -4068.612
     -3152.153
 -32217485.021 9  10580697.684 9  18595463.881    18595468.670       -1019.984
      -802.964
 88  3 21  8 10 32.0800000  0  3G 3G 9G13
 -81787346.066 9  90517871.384 9  19360751.969    19360755.458        1321.391
      1032.632
    147638.064 9   -160441.365 8  20967642.559    20967645.998       -4068.134
     -3167.309
 -32186718.950 9  10604671.250 8  18601318.919    18601321.866       -1015.925
      -805.207
 88  3 21  8 11  2.0800000  0  3G 3G 9G13
 -81827192.990 9  90486821.830 9  19353169.147    19353172.381        1328.528
      1044.997
    269412.393 9    -65552.276 8  20990815.618    20990818.220       -4061.491
     -3155.577
 -32155840.377 9  10628732.465 9  18607194.749    18607198.470       -1013.453
      -803.206
 88  3 21  8 11 32.0800000  0  3G 3G 9G13
 -81866888.063 9  90455890.605 8  19345616.174    19345617.274        1315.657
      1028.655
    391301.085 9     29425.903 9  21014010.515    21014013.299       -4062.703
     -3159.902
 -32124850.014 9  10652880.799 9  18613092.663    18613094.541       -1026.292
      -793.941
 88  3 21  8 12  2.0800000  0  3G 3G 9G13
 -81906432.693 9  90425076.588 7  19338091.100    19338093.508        1300.937
      1037.329
    513300.554 9    124490.412 8  21037226.195    21037229.646       -4064.155
     -3169.123
 -32093748.812 9  10677115.494 9  18619011.409    18619014.049       -1041.020
      -806.475
 88  3 21  8 12 32.0800000  0  3G 3G 9G13
 -81945827.671 9  90394379.201 9  19330594.964    19330597.638        1319.373
      1029.170
    635407.740 9    219638.877 9  21060462.248    21060465.552       -4082.759
     -3163.618
 -32062537.792 9  10701435.772 9  18624951.273    18624953.440       -1038.676
      -814.882
 88  3 21  8 13  2.0800000  0  3G 3G 9G13
 -81985073.117 8  90363798.350 9  19323125.815    19323127.889        1302.547
      1022.578
    757619.242 9    314868.608 9  21083718.926    21083721.743       -4069.960
     -3176.014
 -32031217.558 9  10725841.150 9  18630909.813    18630914.143       -1039.992
      -818.014
 88  3 21  8 13 32.0800000  0  3G 3G 9G13
 -82024169.829 9  90333333.381 8  19315686.937    19315687.551        1300.394
      1019.073
    879931.613 9    410176.938 9  21106993.629    21106996.567       -4097.448
     -3174.436
 -31999789.222 9  10750330.765 9  18636890.114    18636893.612       -1049.074
      -814.826
 88  3 21  8 14  2.0800000  0  3G 3G 9G13
 -82063118.222 9  90302983.990 8  19308275.194    19308277.425        1284.198
      1008.249
   1002341.435 8    505561.197 8  21130286.842    21130290.921       -4083.301
     -3168.943
 -31968253.367 9  10774904.163 8  18642891.326    18642894.266       -1042.097
      -819.443
 88  3 21  8 14 32.0800000  0  3G 3G 9G13
 -82101918.754 8  90272749.810 8  19300892.161    19300894.257        1312.236
      1012.760
   1124845.602 8    601018.968 9  21153598.615    21153602.514       -4081.268
     -3186.105
 -31936611.087 9  10799560.483 9  18648913.276    18648916.067       -1051.156
      -825.197
 88  3 21  8 15  2.0800000  0  3G 3G 9G13
 -82140572.268 9  90242630.199 9  19293535.324    19293538.598        1296.894
      1006.310
   1247440.787 9    696547.671 9  21176927.852    21176932.145       -4084.856
     -3182.682
 -31904863.309 9  10824299.017 7  18654954.539    18654957.002       -1061.881
      -818.411
 88  3 21  8 15 32.0800000  0  3G 3G 9G13
 -82179079.367 9  90212624.685 8  19286208.212    19286209.206        1286.104
       992.944
   1370123.258 7    792144.383 9  21200273.394    21200277.238       -4094.808
     -3185.441
 -31873010.734 9  10849119.213 9  18661015.562    18661019.314       -1083.149
      -822.189
 88  3 21  8 16  2.0800000  0  3G 3G 9G13
 -82217440.805 9  90182732.652 8  19278907.902    19278910.533        1264.278
       991.745
   1492889.817 8    887806.614 9  21223635.493    21223639.165       -4091.100
     -3191.331
 -31841054.195 9  10874020.403 9  18667095.879    18667099.930       -1072.591
      -837.065
 88  3 21  8 16 32.0800000  0  3G 3G 9G13
 -82255656.692 9  90152954.049 9  19271634.897    19271637.855        1267.396
       988.315
   1615737.233 9    983531.848 9  21247011.871    21247016.350       -4092.145
     -3196.495
 -31808994.696 9  10899001.822 8  18673197.396    18673200.820       -1084.337
      -840.750
 88  3 21  8 17  2.0800000  0  3G 3G 9G13
 -82293728.127 9  90123288.009 9  19264391.486    19264394.018        1263.282
       996.020
   1738662.167 8   1079317.490 9  21270403.339    21270407.609       -4108.683
     -3192.717
 -31776832.977 9  10924062.908 9  18679317.811    18679320.188       -1068.197
      -832.610
 88  3 21  8 17 32.0800000  0  3G 3G 9G13
 -82331655.586 9  90093734.153 8  19257174.338    19257175.969        1255.251
       984.767
   1861661.218 8   1175160.890 9  21293809.991    21293814.152       -4110.199
     -3192.593
 -31744569.957 9  10949202.929 8  18685457.526    18685461.216       -1073.364
      -833.213
 88  3 21  8 18  2.0800000  0  3G 3G 9G13
 -82369439.985 9  90064291.788 9  19249982.531    19249984.375        1261.782
       989.309
   1984730.805 9   1271059.265 8  21317230.910    21317233.157       -4105.876
     -3185.037
 -31712205.963 9  10974421.624 9  18691615.537    18691618.082       -1067.647
      -832.088
 88  3 21  8 18 32.0800000  0  3G 3G 9G13
 -82407081.400 9  90034960.806 8  19242819.791    19242822.578        1250.212
       976.782
   2107868.184 9   1367010.455 9  21340661.561    21340665.591       -4100.605
     -3197.905
 -31679741.961 9  10999718.244 8  18697793.818    18697796.804       -1081.179
      -842.148
 88  3 21  8 19  2.0800000  0  3G 3G 9G13
 -82444580.333 9  90005740.867 9  19235684.328    19235687.317        1244.566
       977.677
   2231069.595 8   1463011.566 8  21364105.679    21364110.102       -4114.002
     -3212.023
 -31647178.573 9  11025092.319 9  18703990.230    18703993.580       -1089.353
      -847.448
 88  3 21  8 19 32.0800000  0  3G 3G 9G13
 -82481937.605 9  89976631.327 8  19228575.935    19228578.851        1243.513
       969.537
   2354332.162 9   1559060.339 8  21387562.240    21387565.754       -4098.995
     -3204.709
 -31614516.942 8  11050542.931 8  18710205.274    18710208.804       -1086.562
      -853.929
 88  3 21  8 20  2.0800000  0  3G 3G 9G13
 -82519154.142 9  89947631.433 8  19221493.785    19221496.416        1234.526
       967.859
   2477652.275 9   1655153.899 8  21411028.858    21411033.524       -4120.988
     -3197.775
 -31581757.666 9  11076069.638 9  18716438.893    18716442.461       -1088.388
      -850.332
 88  3 21  8 20 32.0800000  0  3G 3G 9G13
 -82556230.256 9  89918740.954 9  19214439.109    19214440.564        1235.977
       961.627
   2601026.588 8   1751289.729 8  21434506.887    21434510.593       -4098.524
     -3209.966
 -31548902.028 9  11101671.444 9  18722691.809    18722694.967       -1091.578
      -858.534
 88  3 21  8 21  2.0800000  0  3G 3G 9G13
 -82593166.856 8  89889959.188 8  19207409.756    19207411.683        1240.371
       960.030
   2724451.772 9   1847465.208 8  21457994.206    21457998.578       -4091.483
     -3198.626
 -31515950.393 9  11127348.035 8  18728961.566    18728964.309       -1091.697
      -841.054
 88  3 21  8 21 32.0800000  0  3G 3G 9G13
 -82629964.505 9  89861285.725 8  19200408.399    19200409.855        1226.504
       955.680
   2847924.484 9   1943677.718 8  21481490.175    21481493.677       -4121.610
     -3201.621
 -31482903.254 9  11153099.059 9  18735251.182    18735254.241       -1112.550
      -860.162
 88  3 21  8 22  2.0800000  0  3G 3G 9G13
 -82666623.511 8  89832720.257 9  19193431.185    19193434.033        1207.294
       952.610
   2971441.257 9   2039924.579 9  21504994.134    21504998.271       -4118.978
     -3204.629
 -31449761.316 9  11178923.940 9  18741557.369    18741560.531       -1102.542
      -858.242
 88  3 21  8 22 32.0800000  0  3G 3G 9G13
 -82703144.652 9  89804262.239 8  19186481.802    19186484.445        1224.614
       952.399
   3094999.346 8   2136203.601 8  21528505.462    21528510.394       -4104.832
     -3215.304
 -31416525.574 9  11204821.922 9  18747882.214    18747884.819       -1131.641
      -847.759
 88  3 21  8 23  2.0800000  0  3G 3G 9G13
 -82739528.403 9  89775911.272 9  19179558.651    19179560.912        1212.286
       955.456
   3218595.101 8   2232511.977 8  21552025.968    21552029.955       -4096.140
     -3208.320
 -31383197.081 9  11230792.180 9  18754224.692    18754227.202       -1124.934
      -864.462
 88  3 21  8 23 32.0800000  0  3G 3G 9G13
 -82775775.022 9  89747667.159 8  19172660.942    19172662.459        1196.696
       943.818
   3342225.248 9   2328847.146 8  21575552.557    21575554.791       -4123.739
     -3207.661
 -31349776.204 9  11256834.436 8  18760584.242    18760586.287       -1103.364
      -872.341
 88  3 21  8 24  2.0800000  0  3G 3G 9G13
 -82811885.563 9  89719529.082 8  19165788.794    19165790.852        1198.163
       939.872
   3465886.781 8   2425206.775 9  21599084.598    21599088.044       -4130.390
     -3205.194
 -31316263.240 9  11282948.430 9  18766961.577    18766964.112       -1140.883
      -855.725
 88  3 21  8 24 32.0800000  0  3G 3G 9G13
 -82847860.411 9  89691496.743 9  19158942.507    19158945.625        1185.292
       925.823
   3589576.216 9   2521588.162 8  21622622.132    21622624.629       -4118.077
     -3209.774
 -31282659.220 9  11309133.375 9  18773355.215    18773358.174       -1122.718
      -867.444
 88  3 21  8 25  2.0800000  0  3G 3G 9G13
 -82883700.048 9  89663569.756 8  19152122.871    19152125.148        1170.484
       931.173
   3713290.438 9   2617988.866 8  21646164.213    21646167.117       -4107.479
     -3224.084
 -31248964.718 9  11335388.815 8  18779767.217    18779771.564       -1132.773
      -890.734
 88  3 21  8 25 32.0800000  0  3G 3G 9G13
 -82919405.445 9  89635747.380 9  19145328.632    19145330.225        1204.000
       922.337
   3837026.182 9   2714406.337 9  21669710.327    21669713.486       -4121.187
     -3218.485
 -31215180.726 9  11361714.003 9  18786196.470    18786199.072       -1135.301
      -876.684
 88  3 21  8 26  2.0800000  0  3G 3G 9G13
 -82954975.998 9  89608030.073 9  19138559.815    19138562.460        1191.592
       930.906
   3960780.397 9   2810838.175 8  21693259.998    21693263.010       -4124.983
     -3216.590
 -31181307.375 9  11388108.817 9  18792642.856    18792645.432       -1124.097
      -871.794
 88  3 21  8 26 32.0800000  0  3G 3G 9G13
 -82990413.008 9  89580416.824 8  19131816.188    19131819.545        1177.629
       912.824
   4084549.625 9   2907281.738 9  21716812.270    21716814.838       -4131.331
     -3208.382
 -31147345.662 9  11414572.488 9  18799105.024    18799108.075       -1137.079
      -886.197
 88  3 21  8 27  2.0800000  0  3G 3G 9G13
 -83025717.455 9  89552906.872 9  19125098.035    19125100.209        1184.224
       932.416
   4208330.614 9   3003734.459 8  21740366.373    21740370.428       -4138.524
     -3215.509
 -31113295.876 9  11441104.770 9  18805584.426    18805587.650       -1109.719
      -882.929
 88  3 21  8 27 32.0800000  0  3G 3G 9G13
 -83060889.201 9  89525500.325 9  19118405.173    19118408.134        1168.897
       919.739
   4332120.386 9   3100193.988 9  21763923.468    21763927.041       -4123.197
     -3229.664
 -31079158.312 9  11467705.467 9  18812080.927    18812084.138       -1144.559
      -879.803
 88  3 21  8 28  2.0800000  0  3G 3G 9G13
 -83095928.822 9  89498196.732 9  19111737.061    19111740.154        1143.945
       909.667
   4455915.822 9   3196657.975 8  21787480.715    21787484.781       -4131.642
     -3212.452
 -31044933.437 9  11494374.192 9  18818594.337    18818596.946       -1138.961
      -903.876
 88  3 21  8 28 32.0800000  0  3G 3G 9G13
 -83130836.836 9  89470995.689 9  19105094.782    19105096.680        1167.677
       906.274
   4579713.209 9   3293123.481 9  21811039.270    21811042.185       -4116.203
     -3224.879
 -31010622.655 9  11521109.861 9  18825123.278    18825125.777       -1157.454
      -876.840
 88  3 21  8 29  2.0800000  0  3G 3G 9G13
 -83165614.301 9  89443896.372 9  19098477.067    19098479.172        1144.408
       905.870
   4703509.719 8   3389588.260 9  21834596.317    21834600.103       -4119.760
     -3219.194
 -30976227.017 9  11547911.654 9  18831667.763    18831670.429       -1136.609
      -889.273
 88  3 21  8 29 32.0800000  0  3G 3G 9G13
 -83200261.222 9  89416898.777 8  19091883.518    19091886.607        1159.320
       908.325
   4827302.105 9   3486049.843 8  21858153.103    21858156.892       -4131.179
     -3223.251
 -30941746.086 9  11574779.914 9  18838230.292    18838232.586       -1143.020
      -896.314
 88  3 21  8 30  2.0800000  0  3G 3G 9G13
 -83234777.914 9  89390002.668 9  19085315.551    19085317.774        1160.492
       886.664
   4951087.218 8   3582505.753 8  21881708.392    21881711.567       -4110.238
     -3210.271
 -30907180.116 9  11601714.431 9  18844807.592    18844810.056       -1157.215
      -901.210
 88  3 21  8 30 32.0800000  0  3G 3G 9G13
 -83269165.404 9  89363207.223 9  19078771.050    19078774.094        1161.441
       901.564
   5074861.907 8   3678953.502 8  21905261.545    21905265.663       -4133.037
     -3210.513
 -30872530.454 9  11628714.160 9  18851401.194    18851403.703       -1157.127
      -904.671
 88  3 21  8 31  2.0800000  0  3G 3G 9G13
 -83303423.867 9  89336512.341 8  19072252.788    19072255.387        1144.272
       885.545
   5198622.893 8   3775390.624 8  21928813.877    21928817.197       -4105.629
     -3222.208
 -30837797.366 9  11655778.893 9  18858010.854    18858012.626       -1151.050
      -908.480
 88  3 21  8 31 32.0800000  0  3G 3G 9G13
 -83337553.655 9  89309917.663 9  19065757.480    19065760.164        1141.888
       880.009
   5322367.391 8   3871814.910 8  21952361.351    21952363.991       -4111.873
     -3213.844
 -30802981.245 9  11682908.358 8  18864636.803    18864638.417       -1169.033
      -903.490
 88  3 21  8 32  2.0800000  0  3G 3G 9G13
 -83371555.615 9  89283422.645 9  19059287.101    19059289.919        1131.178
       888.782
   5446092.081 8   3968223.722 8  21975905.709    21975908.745       -4115.358
     -3210.743
 -30768082.766 9  11710101.981 9  18871277.290    18871279.596       -1173.259
      -899.657
 88  3 21  8 32 32.0800000  0  3G 3G 9G13
 -83405430.384 8  89257026.719 9  19052841.248    19052843.701        1139.735
       874.410
   5569793.662 9   4064614.575 7  21999444.274    21999447.819       -4126.171
     -3203.889
 -30733102.774 9  11737359.112 9  18877933.332    18877936.311       -1171.082
      -911.879
 88  3 21  8 33  2.0800000  0  3G 3G 9G13
 -83439178.310 9  89230729.627 9  19046418.884    19046422.253        1131.936
       869.402
   5693469.182 9   4160985.131 7  22022979.028    22022982.489       -4117.328
     -3214.639
 -30698041.044 9  11764679.930 9  18884604.517    18884607.753       -1164.926
      -907.480
 88  3 21  8 33 32.0800000  0  3G 3G 9G13
 -83472799.680 9  89204531.175 8  19040021.535    19040022.217        1116.609
       863.449
   5817115.453 9   4257332.908 7  22046508.605    22046512.444       -4106.977
     -3219.859
 -30662898.409 8  11792063.787 9  18891292.593    18891295.735       -1174.001
      -922.797
 88  3 21  8 34  2.0800000  0  3G 3G 9G13
 -83506294.861 9  89178431.034 9  19033647.198    19033649.383        1115.445
       867.022
   5940729.449 9   4353655.517 8  22070031.424    22070035.695       -4118.643
     -3201.982
 -30627675.254 9  11819510.385 9  18897995.684    18897998.705       -1169.049
      -922.983
 88  3 21  8 34 32.0800000  0  3G 3G 9G13
 -83539664.642 9  89152428.601 9  19027296.899    19027300.400        1108.029
       859.242
   6064307.811 9   4449950.372 7  22093547.451    22093550.363       -4114.369
     -3198.794
 -30592372.041 9  11847019.380 8  18904713.064    18904716.408       -1170.803
      -922.095
 88  3 21  8 35  2.0800000  0  3G 3G 9G13
 -83572908.909 9  89126523.983 8  19020970.779    19020973.010        1096.570
       863.430
   6187847.636 9   4546215.189 9  22117056.434    22117060.479       -4111.363
     -3222.493
 -30556989.617 9  11874590.096 9  18911446.348    18911449.300       -1167.765
      -927.513
